<?xml version="1.0" encoding="UTF-8" standalone="no" ?>
<gpx xmlns="http://www.topografix.com/GPX/1/1" xmlns:xsi="http://www.w3.org/2001/XMLSchema-instance" xsi:schemaLocation="http://www.topografix.com/GPX/1/1 http://www.topografix.com/GPX/1/1/gpx.xsd" version="1.1" creator="VisuGPX - https://www.visugpx.com">
  <metadata>
    <name>Cime de la Jasse - 2022-03-28</name>
  </metadata>
  <trk>
    <name><![CDATA[Cime de la Jasse - 2022-03-28]]></name>
    <trkseg>
      <trkpt lat="45.22234" lon="6.00461">
        <ele>1325.31</ele>
        <time>2022-03-28T07:23:20Z</time>
      </trkpt>
      <trkpt lat="45.2223" lon="6.00463">
        <ele>1326.76</ele>
        <time>2022-03-28T07:23:23Z</time>
      </trkpt>
      <trkpt lat="45.22229" lon="6.00473">
        <ele>1328.2</ele>
        <time>2022-03-28T07:23:41Z</time>
      </trkpt>
      <trkpt lat="45.22228" lon="6.00482">
        <ele>1332.04</ele>
        <time>2022-03-28T07:23:56Z</time>
      </trkpt>
      <trkpt lat="45.22229" lon="6.00486">
        <ele>1333.01</ele>
        <time>2022-03-28T07:24:02Z</time>
      </trkpt>
      <trkpt lat="45.22239" lon="6.00501">
        <ele>1334.93</ele>
        <time>2022-03-28T07:24:18Z</time>
      </trkpt>
      <trkpt lat="45.22242" lon="6.00509">
        <ele>1338.77</ele>
        <time>2022-03-28T07:24:31Z</time>
      </trkpt>
      <trkpt lat="45.22242" lon="6.0051">
        <ele>1339.25</ele>
        <time>2022-03-28T07:24:33Z</time>
      </trkpt>
      <trkpt lat="45.22242" lon="6.00511">
        <ele>1337.81</ele>
        <time>2022-03-28T07:24:34Z</time>
      </trkpt>
      <trkpt lat="45.22238" lon="6.00511">
        <ele>1338.29</ele>
        <time>2022-03-28T07:24:45Z</time>
      </trkpt>
      <trkpt lat="45.22237" lon="6.00511">
        <ele>1340.22</ele>
        <time>2022-03-28T07:24:46Z</time>
      </trkpt>
      <trkpt lat="45.22237" lon="6.00511">
        <ele>1338.77</ele>
        <time>2022-03-28T07:24:47Z</time>
      </trkpt>
      <trkpt lat="45.22236" lon="6.00511">
        <ele>1340.22</ele>
        <time>2022-03-28T07:24:48Z</time>
      </trkpt>
      <trkpt lat="45.22229" lon="6.00509">
        <ele>1341.66</ele>
        <time>2022-03-28T07:24:58Z</time>
      </trkpt>
      <trkpt lat="45.22228" lon="6.00508">
        <ele>1342.14</ele>
        <time>2022-03-28T07:25:00Z</time>
      </trkpt>
      <trkpt lat="45.22227" lon="6.00508">
        <ele>1340.7</ele>
        <time>2022-03-28T07:25:01Z</time>
      </trkpt>
      <trkpt lat="45.22225" lon="6.00511">
        <ele>1342.62</ele>
        <time>2022-03-28T07:25:06Z</time>
      </trkpt>
      <trkpt lat="45.22225" lon="6.00513">
        <ele>1340.7</ele>
        <time>2022-03-28T07:25:07Z</time>
      </trkpt>
      <trkpt lat="45.22225" lon="6.00514">
        <ele>1342.62</ele>
        <time>2022-03-28T07:25:08Z</time>
      </trkpt>
      <trkpt lat="45.22225" lon="6.00525">
        <ele>1344.54</ele>
        <time>2022-03-28T07:25:25Z</time>
      </trkpt>
      <trkpt lat="45.22224" lon="6.00535">
        <ele>1345.98</ele>
        <time>2022-03-28T07:25:39Z</time>
      </trkpt>
      <trkpt lat="45.22224" lon="6.00542">
        <ele>1349.35</ele>
        <time>2022-03-28T07:25:52Z</time>
      </trkpt>
      <trkpt lat="45.22222" lon="6.00551">
        <ele>1350.31</ele>
        <time>2022-03-28T07:26:07Z</time>
      </trkpt>
      <trkpt lat="45.22222" lon="6.00554">
        <ele>1350.79</ele>
        <time>2022-03-28T07:26:12Z</time>
      </trkpt>
      <trkpt lat="45.22222" lon="6.00555">
        <ele>1352.23</ele>
        <time>2022-03-28T07:26:13Z</time>
      </trkpt>
      <trkpt lat="45.22221" lon="6.00563">
        <ele>1354.63</ele>
        <time>2022-03-28T07:26:31Z</time>
      </trkpt>
      <trkpt lat="45.2222" lon="6.00563">
        <ele>1354.63</ele>
        <time>2022-03-28T07:26:32Z</time>
      </trkpt>
      <trkpt lat="45.22222" lon="6.00573">
        <ele>1358.48</ele>
        <time>2022-03-28T07:26:47Z</time>
      </trkpt>
      <trkpt lat="45.22221" lon="6.00573">
        <ele>1358.48</ele>
        <time>2022-03-28T07:26:48Z</time>
      </trkpt>
      <trkpt lat="45.22216" lon="6.00585">
        <ele>1361.36</ele>
        <time>2022-03-28T07:27:04Z</time>
      </trkpt>
      <trkpt lat="45.22213" lon="6.00594">
        <ele>1364.25</ele>
        <time>2022-03-28T07:27:16Z</time>
      </trkpt>
      <trkpt lat="45.22213" lon="6.00595">
        <ele>1364.25</ele>
        <time>2022-03-28T07:27:17Z</time>
      </trkpt>
      <trkpt lat="45.22213" lon="6.00605">
        <ele>1367.61</ele>
        <time>2022-03-28T07:27:30Z</time>
      </trkpt>
      <trkpt lat="45.22213" lon="6.00606">
        <ele>1367.61</ele>
        <time>2022-03-28T07:27:31Z</time>
      </trkpt>
      <trkpt lat="45.22213" lon="6.00618">
        <ele>1369.54</ele>
        <time>2022-03-28T07:27:43Z</time>
      </trkpt>
      <trkpt lat="45.22213" lon="6.00633">
        <ele>1372.42</ele>
        <time>2022-03-28T07:28:00Z</time>
      </trkpt>
      <trkpt lat="45.22212" lon="6.00645">
        <ele>1375.78</ele>
        <time>2022-03-28T07:28:13Z</time>
      </trkpt>
      <trkpt lat="45.22212" lon="6.00652">
        <ele>1376.26</ele>
        <time>2022-03-28T07:28:19Z</time>
      </trkpt>
      <trkpt lat="45.22215" lon="6.00668">
        <ele>1379.15</ele>
        <time>2022-03-28T07:28:36Z</time>
      </trkpt>
      <trkpt lat="45.22214" lon="6.00679">
        <ele>1382.03</ele>
        <time>2022-03-28T07:28:50Z</time>
      </trkpt>
      <trkpt lat="45.22216" lon="6.00684">
        <ele>1383.96</ele>
        <time>2022-03-28T07:29:01Z</time>
      </trkpt>
      <trkpt lat="45.22212" lon="6.00699">
        <ele>1386.84</ele>
        <time>2022-03-28T07:29:18Z</time>
      </trkpt>
      <trkpt lat="45.22211" lon="6.00705">
        <ele>1388.76</ele>
        <time>2022-03-28T07:29:28Z</time>
      </trkpt>
      <trkpt lat="45.22211" lon="6.00713">
        <ele>1391.65</ele>
        <time>2022-03-28T07:29:44Z</time>
      </trkpt>
      <trkpt lat="45.2221" lon="6.00715">
        <ele>1393.09</ele>
        <time>2022-03-28T07:29:49Z</time>
      </trkpt>
      <trkpt lat="45.22205" lon="6.00721">
        <ele>1396.45</ele>
        <time>2022-03-28T07:30:05Z</time>
      </trkpt>
      <trkpt lat="45.22202" lon="6.00727">
        <ele>1399.82</ele>
        <time>2022-03-28T07:30:21Z</time>
      </trkpt>
      <trkpt lat="45.22201" lon="6.00724">
        <ele>1400.78</ele>
        <time>2022-03-28T07:30:32Z</time>
      </trkpt>
      <trkpt lat="45.22197" lon="6.00718">
        <ele>1403.18</ele>
        <time>2022-03-28T07:30:49Z</time>
      </trkpt>
      <trkpt lat="45.22194" lon="6.00721">
        <ele>1405.1</ele>
        <time>2022-03-28T07:30:57Z</time>
      </trkpt>
      <trkpt lat="45.22194" lon="6.00735">
        <ele>1407.99</ele>
        <time>2022-03-28T07:31:13Z</time>
      </trkpt>
      <trkpt lat="45.22193" lon="6.00746">
        <ele>1411.35</ele>
        <time>2022-03-28T07:31:27Z</time>
      </trkpt>
      <trkpt lat="45.22194" lon="6.00752">
        <ele>1412.31</ele>
        <time>2022-03-28T07:31:35Z</time>
      </trkpt>
      <trkpt lat="45.22195" lon="6.00762">
        <ele>1415.2</ele>
        <time>2022-03-28T07:31:50Z</time>
      </trkpt>
      <trkpt lat="45.22197" lon="6.00772">
        <ele>1418.56</ele>
        <time>2022-03-28T07:32:06Z</time>
      </trkpt>
      <trkpt lat="45.22196" lon="6.00784">
        <ele>1421.45</ele>
        <time>2022-03-28T07:32:24Z</time>
      </trkpt>
      <trkpt lat="45.22199" lon="6.00793">
        <ele>1424.81</ele>
        <time>2022-03-28T07:32:41Z</time>
      </trkpt>
      <trkpt lat="45.22199" lon="6.00794">
        <ele>1424.81</ele>
        <time>2022-03-28T07:32:42Z</time>
      </trkpt>
      <trkpt lat="45.22204" lon="6.00805">
        <ele>1428.18</ele>
        <time>2022-03-28T07:32:59Z</time>
      </trkpt>
      <trkpt lat="45.22205" lon="6.00807">
        <ele>1428.66</ele>
        <time>2022-03-28T07:33:03Z</time>
      </trkpt>
      <trkpt lat="45.22213" lon="6.00815">
        <ele>1432.02</ele>
        <time>2022-03-28T07:33:17Z</time>
      </trkpt>
      <trkpt lat="45.22213" lon="6.00817">
        <ele>1432.5</ele>
        <time>2022-03-28T07:33:21Z</time>
      </trkpt>
      <trkpt lat="45.22212" lon="6.00824">
        <ele>1435.87</ele>
        <time>2022-03-28T07:33:37Z</time>
      </trkpt>
      <trkpt lat="45.22216" lon="6.00834">
        <ele>1438.75</ele>
        <time>2022-03-28T07:33:52Z</time>
      </trkpt>
      <trkpt lat="45.22224" lon="6.00846">
        <ele>1442.11</ele>
        <time>2022-03-28T07:34:08Z</time>
      </trkpt>
      <trkpt lat="45.22231" lon="6.00863">
        <ele>1445.48</ele>
        <time>2022-03-28T07:34:27Z</time>
      </trkpt>
      <trkpt lat="45.22236" lon="6.00872">
        <ele>1448.36</ele>
        <time>2022-03-28T07:34:42Z</time>
      </trkpt>
      <trkpt lat="45.22238" lon="6.00882">
        <ele>1451.73</ele>
        <time>2022-03-28T07:35:00Z</time>
      </trkpt>
      <trkpt lat="45.22237" lon="6.0089">
        <ele>1454.61</ele>
        <time>2022-03-28T07:35:18Z</time>
      </trkpt>
      <trkpt lat="45.22237" lon="6.00892">
        <ele>1456.05</ele>
        <time>2022-03-28T07:35:21Z</time>
      </trkpt>
      <trkpt lat="45.22235" lon="6.00896">
        <ele>1459.42</ele>
        <time>2022-03-28T07:35:39Z</time>
      </trkpt>
      <trkpt lat="45.22238" lon="6.00905">
        <ele>1462.3</ele>
        <time>2022-03-28T07:35:53Z</time>
      </trkpt>
      <trkpt lat="45.22241" lon="6.00913">
        <ele>1466.15</ele>
        <time>2022-03-28T07:36:08Z</time>
      </trkpt>
      <trkpt lat="45.22238" lon="6.00915">
        <ele>1467.11</ele>
        <time>2022-03-28T07:36:19Z</time>
      </trkpt>
      <trkpt lat="45.22237" lon="6.00915">
        <ele>1468.55</ele>
        <time>2022-03-28T07:36:27Z</time>
      </trkpt>
      <trkpt lat="45.22233" lon="6.00919">
        <ele>1471.92</ele>
        <time>2022-03-28T07:36:46Z</time>
      </trkpt>
      <trkpt lat="45.2223" lon="6.00934">
        <ele>1475.28</ele>
        <time>2022-03-28T07:37:03Z</time>
      </trkpt>
      <trkpt lat="45.22227" lon="6.00939">
        <ele>1478.65</ele>
        <time>2022-03-28T07:37:18Z</time>
      </trkpt>
      <trkpt lat="45.22224" lon="6.00943">
        <ele>1479.13</ele>
        <time>2022-03-28T07:37:25Z</time>
      </trkpt>
      <trkpt lat="45.22228" lon="6.00953">
        <ele>1481.05</ele>
        <time>2022-03-28T07:37:37Z</time>
      </trkpt>
      <trkpt lat="45.22226" lon="6.00959">
        <ele>1482.97</ele>
        <time>2022-03-28T07:37:51Z</time>
      </trkpt>
      <trkpt lat="45.22229" lon="6.00967">
        <ele>1485.37</ele>
        <time>2022-03-28T07:38:07Z</time>
      </trkpt>
      <trkpt lat="45.22233" lon="6.0098">
        <ele>1487.3</ele>
        <time>2022-03-28T07:38:22Z</time>
      </trkpt>
      <trkpt lat="45.22233" lon="6.00991">
        <ele>1490.66</ele>
        <time>2022-03-28T07:38:35Z</time>
      </trkpt>
      <trkpt lat="45.22233" lon="6.00991">
        <ele>1490.66</ele>
        <time>2022-03-28T07:38:41Z</time>
      </trkpt>
      <trkpt lat="45.22236" lon="6.00999">
        <ele>1492.1</ele>
        <time>2022-03-28T07:38:55Z</time>
      </trkpt>
      <trkpt lat="45.22238" lon="6.01001">
        <ele>1492.58</ele>
        <time>2022-03-28T07:39:12Z</time>
      </trkpt>
      <trkpt lat="45.22239" lon="6.01004">
        <ele>1494.51</ele>
        <time>2022-03-28T07:39:26Z</time>
      </trkpt>
      <trkpt lat="45.22239" lon="6.01002">
        <ele>1495.95</ele>
        <time>2022-03-28T07:39:44Z</time>
      </trkpt>
      <trkpt lat="45.22237" lon="6.00998">
        <ele>1497.39</ele>
        <time>2022-03-28T07:40:09Z</time>
      </trkpt>
      <trkpt lat="45.22236" lon="6.01001">
        <ele>1498.35</ele>
        <time>2022-03-28T07:40:42Z</time>
      </trkpt>
      <trkpt lat="45.22236" lon="6.01013">
        <ele>1500.76</ele>
        <time>2022-03-28T07:40:57Z</time>
      </trkpt>
      <trkpt lat="45.22237" lon="6.01026">
        <ele>1504.12</ele>
        <time>2022-03-28T07:41:11Z</time>
      </trkpt>
      <trkpt lat="45.22237" lon="6.01043">
        <ele>1507</ele>
        <time>2022-03-28T07:41:30Z</time>
      </trkpt>
      <trkpt lat="45.22235" lon="6.01057">
        <ele>1509.89</ele>
        <time>2022-03-28T07:41:45Z</time>
      </trkpt>
      <trkpt lat="45.22235" lon="6.01071">
        <ele>1512.77</ele>
        <time>2022-03-28T07:42:01Z</time>
      </trkpt>
      <trkpt lat="45.22236" lon="6.01082">
        <ele>1515.18</ele>
        <time>2022-03-28T07:42:13Z</time>
      </trkpt>
      <trkpt lat="45.22235" lon="6.01089">
        <ele>1517.58</ele>
        <time>2022-03-28T07:42:22Z</time>
      </trkpt>
      <trkpt lat="45.22237" lon="6.01104">
        <ele>1519.5</ele>
        <time>2022-03-28T07:42:37Z</time>
      </trkpt>
      <trkpt lat="45.22236" lon="6.01118">
        <ele>1522.39</ele>
        <time>2022-03-28T07:42:52Z</time>
      </trkpt>
      <trkpt lat="45.22236" lon="6.01132">
        <ele>1524.31</ele>
        <time>2022-03-28T07:43:06Z</time>
      </trkpt>
      <trkpt lat="45.22237" lon="6.01148">
        <ele>1526.71</ele>
        <time>2022-03-28T07:43:23Z</time>
      </trkpt>
      <trkpt lat="45.22238" lon="6.01162">
        <ele>1529.11</ele>
        <time>2022-03-28T07:43:36Z</time>
      </trkpt>
      <trkpt lat="45.2224" lon="6.01181">
        <ele>1532</ele>
        <time>2022-03-28T07:43:56Z</time>
      </trkpt>
      <trkpt lat="45.2224" lon="6.01193">
        <ele>1535.84</ele>
        <time>2022-03-28T07:44:15Z</time>
      </trkpt>
      <trkpt lat="45.2224" lon="6.01196">
        <ele>1537.29</ele>
        <time>2022-03-28T07:44:22Z</time>
      </trkpt>
      <trkpt lat="45.22235" lon="6.01202">
        <ele>1540.17</ele>
        <time>2022-03-28T07:44:37Z</time>
      </trkpt>
      <trkpt lat="45.22237" lon="6.01206">
        <ele>1540.65</ele>
        <time>2022-03-28T07:44:43Z</time>
      </trkpt>
      <trkpt lat="45.22236" lon="6.01214">
        <ele>1544.01</ele>
        <time>2022-03-28T07:44:57Z</time>
      </trkpt>
      <trkpt lat="45.2224" lon="6.0123">
        <ele>1546.42</ele>
        <time>2022-03-28T07:45:15Z</time>
      </trkpt>
      <trkpt lat="45.22234" lon="6.01239">
        <ele>1550.26</ele>
        <time>2022-03-28T07:45:31Z</time>
      </trkpt>
      <trkpt lat="45.22234" lon="6.01251">
        <ele>1553.63</ele>
        <time>2022-03-28T07:45:46Z</time>
      </trkpt>
      <trkpt lat="45.22233" lon="6.01262">
        <ele>1556.51</ele>
        <time>2022-03-28T07:46:01Z</time>
      </trkpt>
      <trkpt lat="45.22231" lon="6.01272">
        <ele>1559.4</ele>
        <time>2022-03-28T07:46:16Z</time>
      </trkpt>
      <trkpt lat="45.22232" lon="6.01284">
        <ele>1563.24</ele>
        <time>2022-03-28T07:46:31Z</time>
      </trkpt>
      <trkpt lat="45.22233" lon="6.01296">
        <ele>1566.61</ele>
        <time>2022-03-28T07:46:49Z</time>
      </trkpt>
      <trkpt lat="45.22235" lon="6.01305">
        <ele>1569.97</ele>
        <time>2022-03-28T07:47:06Z</time>
      </trkpt>
      <trkpt lat="45.22245" lon="6.01308">
        <ele>1573.33</ele>
        <time>2022-03-28T07:47:22Z</time>
      </trkpt>
      <trkpt lat="45.22252" lon="6.01304">
        <ele>1575.74</ele>
        <time>2022-03-28T07:47:38Z</time>
      </trkpt>
      <trkpt lat="45.22264" lon="6.01301">
        <ele>1578.14</ele>
        <time>2022-03-28T07:47:54Z</time>
      </trkpt>
      <trkpt lat="45.22279" lon="6.01311">
        <ele>1581.51</ele>
        <time>2022-03-28T07:48:09Z</time>
      </trkpt>
      <trkpt lat="45.2228" lon="6.01314">
        <ele>1584.39</ele>
        <time>2022-03-28T07:48:25Z</time>
      </trkpt>
      <trkpt lat="45.22276" lon="6.01326">
        <ele>1586.79</ele>
        <time>2022-03-28T07:48:42Z</time>
      </trkpt>
      <trkpt lat="45.22277" lon="6.01341">
        <ele>1590.16</ele>
        <time>2022-03-28T07:48:57Z</time>
      </trkpt>
      <trkpt lat="45.22271" lon="6.01354">
        <ele>1592.56</ele>
        <time>2022-03-28T07:49:12Z</time>
      </trkpt>
      <trkpt lat="45.22257" lon="6.01357">
        <ele>1594.48</ele>
        <time>2022-03-28T07:49:28Z</time>
      </trkpt>
      <trkpt lat="45.2225" lon="6.01361">
        <ele>1596.89</ele>
        <time>2022-03-28T07:49:41Z</time>
      </trkpt>
      <trkpt lat="45.22244" lon="6.01367">
        <ele>1599.77</ele>
        <time>2022-03-28T07:49:57Z</time>
      </trkpt>
      <trkpt lat="45.22238" lon="6.01372">
        <ele>1601.21</ele>
        <time>2022-03-28T07:50:03Z</time>
      </trkpt>
      <trkpt lat="45.22234" lon="6.01378">
        <ele>1601.69</ele>
        <time>2022-03-28T07:50:10Z</time>
      </trkpt>
      <trkpt lat="45.22229" lon="6.0139">
        <ele>1603.62</ele>
        <time>2022-03-28T07:50:23Z</time>
      </trkpt>
      <trkpt lat="45.22228" lon="6.01406">
        <ele>1606.98</ele>
        <time>2022-03-28T07:50:37Z</time>
      </trkpt>
      <trkpt lat="45.22227" lon="6.01423">
        <ele>1609.86</ele>
        <time>2022-03-28T07:50:54Z</time>
      </trkpt>
      <trkpt lat="45.22229" lon="6.01441">
        <ele>1612.27</ele>
        <time>2022-03-28T07:51:10Z</time>
      </trkpt>
      <trkpt lat="45.22235" lon="6.0146">
        <ele>1613.71</ele>
        <time>2022-03-28T07:51:27Z</time>
      </trkpt>
      <trkpt lat="45.22236" lon="6.01474">
        <ele>1614.67</ele>
        <time>2022-03-28T07:51:39Z</time>
      </trkpt>
      <trkpt lat="45.22239" lon="6.01493">
        <ele>1616.11</ele>
        <time>2022-03-28T07:51:54Z</time>
      </trkpt>
      <trkpt lat="45.2224" lon="6.01507">
        <ele>1616.59</ele>
        <time>2022-03-28T07:52:05Z</time>
      </trkpt>
      <trkpt lat="45.22243" lon="6.01522">
        <ele>1616.59</ele>
        <time>2022-03-28T07:52:14Z</time>
      </trkpt>
      <trkpt lat="45.22245" lon="6.01542">
        <ele>1616.11</ele>
        <time>2022-03-28T07:52:28Z</time>
      </trkpt>
      <trkpt lat="45.22247" lon="6.01546">
        <ele>1617.56</ele>
        <time>2022-03-28T07:52:32Z</time>
      </trkpt>
      <trkpt lat="45.22248" lon="6.01555">
        <ele>1617.56</ele>
        <time>2022-03-28T07:52:40Z</time>
      </trkpt>
      <trkpt lat="45.22249" lon="6.01562">
        <ele>1617.56</ele>
        <time>2022-03-28T07:52:44Z</time>
      </trkpt>
      <trkpt lat="45.22252" lon="6.01584">
        <ele>1618.52</ele>
        <time>2022-03-28T07:52:59Z</time>
      </trkpt>
      <trkpt lat="45.22255" lon="6.01603">
        <ele>1619</ele>
        <time>2022-03-28T07:53:13Z</time>
      </trkpt>
      <trkpt lat="45.22259" lon="6.0163">
        <ele>1618.04</ele>
        <time>2022-03-28T07:53:27Z</time>
      </trkpt>
      <trkpt lat="45.22261" lon="6.01657">
        <ele>1616.59</ele>
        <time>2022-03-28T07:53:40Z</time>
      </trkpt>
      <trkpt lat="45.22261" lon="6.01662">
        <ele>1616.59</ele>
        <time>2022-03-28T07:53:42Z</time>
      </trkpt>
      <trkpt lat="45.2226" lon="6.01697">
        <ele>1616.59</ele>
        <time>2022-03-28T07:53:58Z</time>
      </trkpt>
      <trkpt lat="45.22261" lon="6.01722">
        <ele>1616.59</ele>
        <time>2022-03-28T07:54:12Z</time>
      </trkpt>
      <trkpt lat="45.22258" lon="6.01749">
        <ele>1617.07</ele>
        <time>2022-03-28T07:54:28Z</time>
      </trkpt>
      <trkpt lat="45.22255" lon="6.01753">
        <ele>1617.56</ele>
        <time>2022-03-28T07:54:32Z</time>
      </trkpt>
      <trkpt lat="45.22242" lon="6.01755">
        <ele>1619.96</ele>
        <time>2022-03-28T07:54:50Z</time>
      </trkpt>
      <trkpt lat="45.22231" lon="6.01751">
        <ele>1623.32</ele>
        <time>2022-03-28T07:55:05Z</time>
      </trkpt>
      <trkpt lat="45.22218" lon="6.01767">
        <ele>1625.73</ele>
        <time>2022-03-28T07:55:23Z</time>
      </trkpt>
      <trkpt lat="45.22217" lon="6.01784">
        <ele>1628.13</ele>
        <time>2022-03-28T07:55:39Z</time>
      </trkpt>
      <trkpt lat="45.22223" lon="6.01797">
        <ele>1629.09</ele>
        <time>2022-03-28T07:55:53Z</time>
      </trkpt>
      <trkpt lat="45.22232" lon="6.01811">
        <ele>1630.53</ele>
        <time>2022-03-28T07:56:07Z</time>
      </trkpt>
      <trkpt lat="45.22234" lon="6.01823">
        <ele>1633.9</ele>
        <time>2022-03-28T07:56:21Z</time>
      </trkpt>
      <trkpt lat="45.22242" lon="6.0184">
        <ele>1635.82</ele>
        <time>2022-03-28T07:56:39Z</time>
      </trkpt>
      <trkpt lat="45.22244" lon="6.01854">
        <ele>1639.19</ele>
        <time>2022-03-28T07:56:56Z</time>
      </trkpt>
      <trkpt lat="45.22243" lon="6.01868">
        <ele>1640.15</ele>
        <time>2022-03-28T07:57:10Z</time>
      </trkpt>
      <trkpt lat="45.22244" lon="6.0189">
        <ele>1642.07</ele>
        <time>2022-03-28T07:57:27Z</time>
      </trkpt>
      <trkpt lat="45.22244" lon="6.01907">
        <ele>1643.51</ele>
        <time>2022-03-28T07:57:42Z</time>
      </trkpt>
      <trkpt lat="45.22244" lon="6.01926">
        <ele>1644.95</ele>
        <time>2022-03-28T07:57:59Z</time>
      </trkpt>
      <trkpt lat="45.22243" lon="6.0193">
        <ele>1646.4</ele>
        <time>2022-03-28T07:58:02Z</time>
      </trkpt>
      <trkpt lat="45.22243" lon="6.01951">
        <ele>1647.36</ele>
        <time>2022-03-28T07:58:17Z</time>
      </trkpt>
      <trkpt lat="45.22241" lon="6.0197">
        <ele>1648.32</ele>
        <time>2022-03-28T07:58:32Z</time>
      </trkpt>
      <trkpt lat="45.22245" lon="6.0199">
        <ele>1650.72</ele>
        <time>2022-03-28T07:58:52Z</time>
      </trkpt>
      <trkpt lat="45.22247" lon="6.02006">
        <ele>1654.09</ele>
        <time>2022-03-28T07:59:09Z</time>
      </trkpt>
      <trkpt lat="45.22248" lon="6.02009">
        <ele>1654.57</ele>
        <time>2022-03-28T07:59:13Z</time>
      </trkpt>
      <trkpt lat="45.22248" lon="6.02024">
        <ele>1657.93</ele>
        <time>2022-03-28T07:59:32Z</time>
      </trkpt>
      <trkpt lat="45.22247" lon="6.02042">
        <ele>1660.81</ele>
        <time>2022-03-28T07:59:50Z</time>
      </trkpt>
      <trkpt lat="45.22246" lon="6.02053">
        <ele>1663.7</ele>
        <time>2022-03-28T08:00:04Z</time>
      </trkpt>
      <trkpt lat="45.22245" lon="6.02066">
        <ele>1666.58</ele>
        <time>2022-03-28T08:00:21Z</time>
      </trkpt>
      <trkpt lat="45.22247" lon="6.02082">
        <ele>1668.99</ele>
        <time>2022-03-28T08:00:38Z</time>
      </trkpt>
      <trkpt lat="45.22248" lon="6.02095">
        <ele>1672.83</ele>
        <time>2022-03-28T08:00:53Z</time>
      </trkpt>
      <trkpt lat="45.22247" lon="6.02115">
        <ele>1676.2</ele>
        <time>2022-03-28T08:01:13Z</time>
      </trkpt>
      <trkpt lat="45.22248" lon="6.02123">
        <ele>1676.2</ele>
        <time>2022-03-28T08:01:19Z</time>
      </trkpt>
      <trkpt lat="45.22246" lon="6.02144">
        <ele>1677.64</ele>
        <time>2022-03-28T08:01:37Z</time>
      </trkpt>
      <trkpt lat="45.22244" lon="6.0216">
        <ele>1679.56</ele>
        <time>2022-03-28T08:01:54Z</time>
      </trkpt>
      <trkpt lat="45.22252" lon="6.02175">
        <ele>1681.96</ele>
        <time>2022-03-28T08:02:11Z</time>
      </trkpt>
      <trkpt lat="45.22258" lon="6.02178">
        <ele>1683.41</ele>
        <time>2022-03-28T08:02:18Z</time>
      </trkpt>
      <trkpt lat="45.22273" lon="6.02178">
        <ele>1685.33</ele>
        <time>2022-03-28T08:02:34Z</time>
      </trkpt>
      <trkpt lat="45.22288" lon="6.02177">
        <ele>1687.73</ele>
        <time>2022-03-28T08:02:50Z</time>
      </trkpt>
      <trkpt lat="45.22299" lon="6.02172">
        <ele>1689.65</ele>
        <time>2022-03-28T08:03:08Z</time>
      </trkpt>
      <trkpt lat="45.22301" lon="6.02169">
        <ele>1691.1</ele>
        <time>2022-03-28T08:03:20Z</time>
      </trkpt>
      <trkpt lat="45.22301" lon="6.02169">
        <ele>1687.25</ele>
        <time>2022-03-28T08:03:23Z</time>
      </trkpt>
      <trkpt lat="45.22301" lon="6.02169">
        <ele>1694.94</ele>
        <time>2022-03-28T08:03:24Z</time>
      </trkpt>
      <trkpt lat="45.22301" lon="6.02169">
        <ele>1689.17</ele>
        <time>2022-03-28T08:03:25Z</time>
      </trkpt>
      <trkpt lat="45.22301" lon="6.02169">
        <ele>1690.14</ele>
        <time>2022-03-28T08:03:32Z</time>
      </trkpt>
      <trkpt lat="45.223" lon="6.0217">
        <ele>1688.69</ele>
        <time>2022-03-28T08:03:40Z</time>
      </trkpt>
      <trkpt lat="45.22296" lon="6.02169">
        <ele>1689.17</ele>
        <time>2022-03-28T08:04:13Z</time>
      </trkpt>
      <trkpt lat="45.22299" lon="6.02168">
        <ele>1690.14</ele>
        <time>2022-03-28T08:04:41Z</time>
      </trkpt>
      <trkpt lat="45.22299" lon="6.02165">
        <ele>1690.62</ele>
        <time>2022-03-28T08:05:12Z</time>
      </trkpt>
      <trkpt lat="45.223" lon="6.02164">
        <ele>1691.58</ele>
        <time>2022-03-28T08:05:43Z</time>
      </trkpt>
      <trkpt lat="45.22298" lon="6.02166">
        <ele>1692.06</ele>
        <time>2022-03-28T08:06:09Z</time>
      </trkpt>
      <trkpt lat="45.22298" lon="6.02167">
        <ele>1693.5</ele>
        <time>2022-03-28T08:06:49Z</time>
      </trkpt>
      <trkpt lat="45.22301" lon="6.0217">
        <ele>1693.98</ele>
        <time>2022-03-28T08:07:14Z</time>
      </trkpt>
      <trkpt lat="45.22299" lon="6.0217">
        <ele>1695.9</ele>
        <time>2022-03-28T08:07:41Z</time>
      </trkpt>
      <trkpt lat="45.223" lon="6.0217">
        <ele>1696.86</ele>
        <time>2022-03-28T08:07:53Z</time>
      </trkpt>
      <trkpt lat="45.22301" lon="6.02169">
        <ele>1697.34</ele>
        <time>2022-03-28T08:08:27Z</time>
      </trkpt>
      <trkpt lat="45.22304" lon="6.0217">
        <ele>1698.31</ele>
        <time>2022-03-28T08:08:57Z</time>
      </trkpt>
      <trkpt lat="45.22312" lon="6.02179">
        <ele>1700.71</ele>
        <time>2022-03-28T08:09:13Z</time>
      </trkpt>
      <trkpt lat="45.22317" lon="6.0219">
        <ele>1703.59</ele>
        <time>2022-03-28T08:09:28Z</time>
      </trkpt>
      <trkpt lat="45.2232" lon="6.02193">
        <ele>1705.04</ele>
        <time>2022-03-28T08:09:46Z</time>
      </trkpt>
      <trkpt lat="45.2232" lon="6.02193">
        <ele>1705.52</ele>
        <time>2022-03-28T08:10:15Z</time>
      </trkpt>
      <trkpt lat="45.22314" lon="6.022">
        <ele>1707.92</ele>
        <time>2022-03-28T08:10:31Z</time>
      </trkpt>
      <trkpt lat="45.22306" lon="6.02205">
        <ele>1710.8</ele>
        <time>2022-03-28T08:10:48Z</time>
      </trkpt>
      <trkpt lat="45.22308" lon="6.02213">
        <ele>1712.25</ele>
        <time>2022-03-28T08:11:01Z</time>
      </trkpt>
      <trkpt lat="45.22312" lon="6.0222">
        <ele>1714.17</ele>
        <time>2022-03-28T08:11:10Z</time>
      </trkpt>
      <trkpt lat="45.22315" lon="6.0223">
        <ele>1716.57</ele>
        <time>2022-03-28T08:11:29Z</time>
      </trkpt>
      <trkpt lat="45.22318" lon="6.02236">
        <ele>1718.01</ele>
        <time>2022-03-28T08:11:41Z</time>
      </trkpt>
      <trkpt lat="45.22324" lon="6.02246">
        <ele>1720.42</ele>
        <time>2022-03-28T08:11:58Z</time>
      </trkpt>
      <trkpt lat="45.22331" lon="6.02254">
        <ele>1723.78</ele>
        <time>2022-03-28T08:12:15Z</time>
      </trkpt>
      <trkpt lat="45.22332" lon="6.0226">
        <ele>1726.18</ele>
        <time>2022-03-28T08:12:32Z</time>
      </trkpt>
      <trkpt lat="45.22327" lon="6.02264">
        <ele>1728.59</ele>
        <time>2022-03-28T08:12:48Z</time>
      </trkpt>
      <trkpt lat="45.22336" lon="6.02276">
        <ele>1730.99</ele>
        <time>2022-03-28T08:13:09Z</time>
      </trkpt>
      <trkpt lat="45.22338" lon="6.02285">
        <ele>1731.47</ele>
        <time>2022-03-28T08:13:17Z</time>
      </trkpt>
      <trkpt lat="45.22343" lon="6.02301">
        <ele>1732.43</ele>
        <time>2022-03-28T08:13:35Z</time>
      </trkpt>
      <trkpt lat="45.22344" lon="6.0232">
        <ele>1734.36</ele>
        <time>2022-03-28T08:13:54Z</time>
      </trkpt>
      <trkpt lat="45.22346" lon="6.02338">
        <ele>1736.76</ele>
        <time>2022-03-28T08:14:12Z</time>
      </trkpt>
      <trkpt lat="45.22345" lon="6.02355">
        <ele>1737.72</ele>
        <time>2022-03-28T08:14:29Z</time>
      </trkpt>
      <trkpt lat="45.22347" lon="6.02367">
        <ele>1741.08</ele>
        <time>2022-03-28T08:14:45Z</time>
      </trkpt>
      <trkpt lat="45.22354" lon="6.0238">
        <ele>1743.49</ele>
        <time>2022-03-28T08:15:02Z</time>
      </trkpt>
      <trkpt lat="45.22365" lon="6.02386">
        <ele>1746.85</ele>
        <time>2022-03-28T08:15:19Z</time>
      </trkpt>
      <trkpt lat="45.22374" lon="6.02387">
        <ele>1750.22</ele>
        <time>2022-03-28T08:15:37Z</time>
      </trkpt>
      <trkpt lat="45.22383" lon="6.0239">
        <ele>1753.1</ele>
        <time>2022-03-28T08:15:56Z</time>
      </trkpt>
      <trkpt lat="45.2239" lon="6.02381">
        <ele>1755.5</ele>
        <time>2022-03-28T08:16:14Z</time>
      </trkpt>
      <trkpt lat="45.22393" lon="6.02384">
        <ele>1757.91</ele>
        <time>2022-03-28T08:16:27Z</time>
      </trkpt>
      <trkpt lat="45.224" lon="6.02383">
        <ele>1760.31</ele>
        <time>2022-03-28T08:16:42Z</time>
      </trkpt>
      <trkpt lat="45.22409" lon="6.02385">
        <ele>1762.23</ele>
        <time>2022-03-28T08:16:59Z</time>
      </trkpt>
      <trkpt lat="45.22417" lon="6.02385">
        <ele>1764.64</ele>
        <time>2022-03-28T08:17:15Z</time>
      </trkpt>
      <trkpt lat="45.22421" lon="6.02387">
        <ele>1767.52</ele>
        <time>2022-03-28T08:17:31Z</time>
      </trkpt>
      <trkpt lat="45.22422" lon="6.02399">
        <ele>1770.89</ele>
        <time>2022-03-28T08:17:53Z</time>
      </trkpt>
      <trkpt lat="45.22421" lon="6.02408">
        <ele>1773.29</ele>
        <time>2022-03-28T08:18:08Z</time>
      </trkpt>
      <trkpt lat="45.22432" lon="6.02413">
        <ele>1775.21</ele>
        <time>2022-03-28T08:18:26Z</time>
      </trkpt>
      <trkpt lat="45.22442" lon="6.02408">
        <ele>1777.13</ele>
        <time>2022-03-28T08:18:43Z</time>
      </trkpt>
      <trkpt lat="45.22446" lon="6.02407">
        <ele>1779.54</ele>
        <time>2022-03-28T08:18:55Z</time>
      </trkpt>
      <trkpt lat="45.22453" lon="6.02408">
        <ele>1780.98</ele>
        <time>2022-03-28T08:19:10Z</time>
      </trkpt>
      <trkpt lat="45.22458" lon="6.02413">
        <ele>1783.86</ele>
        <time>2022-03-28T08:19:29Z</time>
      </trkpt>
      <trkpt lat="45.22455" lon="6.02426">
        <ele>1786.75</ele>
        <time>2022-03-28T08:19:48Z</time>
      </trkpt>
      <trkpt lat="45.22456" lon="6.0244">
        <ele>1788.67</ele>
        <time>2022-03-28T08:20:07Z</time>
      </trkpt>
      <trkpt lat="45.22454" lon="6.02451">
        <ele>1792.03</ele>
        <time>2022-03-28T08:20:22Z</time>
      </trkpt>
      <trkpt lat="45.22457" lon="6.02464">
        <ele>1795.4</ele>
        <time>2022-03-28T08:20:44Z</time>
      </trkpt>
      <trkpt lat="45.22459" lon="6.02474">
        <ele>1797.32</ele>
        <time>2022-03-28T08:21:03Z</time>
      </trkpt>
      <trkpt lat="45.2246" lon="6.0248">
        <ele>1799.24</ele>
        <time>2022-03-28T08:21:16Z</time>
      </trkpt>
      <trkpt lat="45.2247" lon="6.02475">
        <ele>1802.13</ele>
        <time>2022-03-28T08:21:35Z</time>
      </trkpt>
      <trkpt lat="45.22476" lon="6.02467">
        <ele>1803.57</ele>
        <time>2022-03-28T08:21:52Z</time>
      </trkpt>
      <trkpt lat="45.22483" lon="6.02461">
        <ele>1805.97</ele>
        <time>2022-03-28T08:22:07Z</time>
      </trkpt>
      <trkpt lat="45.22495" lon="6.02465">
        <ele>1807.9</ele>
        <time>2022-03-28T08:22:24Z</time>
      </trkpt>
      <trkpt lat="45.22501" lon="6.02476">
        <ele>1809.34</ele>
        <time>2022-03-28T08:22:41Z</time>
      </trkpt>
      <trkpt lat="45.22509" lon="6.02484">
        <ele>1812.22</ele>
        <time>2022-03-28T08:22:58Z</time>
      </trkpt>
      <trkpt lat="45.22517" lon="6.02491">
        <ele>1815.11</ele>
        <time>2022-03-28T08:23:15Z</time>
      </trkpt>
      <trkpt lat="45.22526" lon="6.02501">
        <ele>1817.03</ele>
        <time>2022-03-28T08:23:32Z</time>
      </trkpt>
      <trkpt lat="45.22533" lon="6.02516">
        <ele>1818.95</ele>
        <time>2022-03-28T08:23:51Z</time>
      </trkpt>
      <trkpt lat="45.22539" lon="6.02531">
        <ele>1820.39</ele>
        <time>2022-03-28T08:24:10Z</time>
      </trkpt>
      <trkpt lat="45.22549" lon="6.02537">
        <ele>1823.76</ele>
        <time>2022-03-28T08:24:30Z</time>
      </trkpt>
      <trkpt lat="45.22551" lon="6.02551">
        <ele>1826.16</ele>
        <time>2022-03-28T08:24:47Z</time>
      </trkpt>
      <trkpt lat="45.22554" lon="6.02566">
        <ele>1829.53</ele>
        <time>2022-03-28T08:25:05Z</time>
      </trkpt>
      <trkpt lat="45.22553" lon="6.02578">
        <ele>1831.45</ele>
        <time>2022-03-28T08:25:23Z</time>
      </trkpt>
      <trkpt lat="45.22563" lon="6.02581">
        <ele>1833.85</ele>
        <time>2022-03-28T08:25:42Z</time>
      </trkpt>
      <trkpt lat="45.22575" lon="6.02585">
        <ele>1837.22</ele>
        <time>2022-03-28T08:26:02Z</time>
      </trkpt>
      <trkpt lat="45.22586" lon="6.02586">
        <ele>1839.62</ele>
        <time>2022-03-28T08:26:22Z</time>
      </trkpt>
      <trkpt lat="45.22595" lon="6.02594">
        <ele>1842.5</ele>
        <time>2022-03-28T08:26:40Z</time>
      </trkpt>
      <trkpt lat="45.22606" lon="6.02587">
        <ele>1845.39</ele>
        <time>2022-03-28T08:27:01Z</time>
      </trkpt>
      <trkpt lat="45.22615" lon="6.0258">
        <ele>1845.87</ele>
        <time>2022-03-28T08:27:16Z</time>
      </trkpt>
      <trkpt lat="45.22626" lon="6.02578">
        <ele>1847.31</ele>
        <time>2022-03-28T08:27:35Z</time>
      </trkpt>
      <trkpt lat="45.22637" lon="6.02585">
        <ele>1848.27</ele>
        <time>2022-03-28T08:27:53Z</time>
      </trkpt>
      <trkpt lat="45.22647" lon="6.02591">
        <ele>1851.16</ele>
        <time>2022-03-28T08:28:12Z</time>
      </trkpt>
      <trkpt lat="45.22656" lon="6.02601">
        <ele>1853.08</ele>
        <time>2022-03-28T08:28:32Z</time>
      </trkpt>
      <trkpt lat="45.22668" lon="6.02604">
        <ele>1855</ele>
        <time>2022-03-28T08:28:50Z</time>
      </trkpt>
      <trkpt lat="45.2268" lon="6.02608">
        <ele>1858.85</ele>
        <time>2022-03-28T08:29:07Z</time>
      </trkpt>
      <trkpt lat="45.22689" lon="6.02613">
        <ele>1861.25</ele>
        <time>2022-03-28T08:29:25Z</time>
      </trkpt>
      <trkpt lat="45.22694" lon="6.02616">
        <ele>1864.61</ele>
        <time>2022-03-28T08:29:39Z</time>
      </trkpt>
      <trkpt lat="45.22707" lon="6.02623">
        <ele>1866.54</ele>
        <time>2022-03-28T08:30:03Z</time>
      </trkpt>
      <trkpt lat="45.22717" lon="6.02628">
        <ele>1868.46</ele>
        <time>2022-03-28T08:30:20Z</time>
      </trkpt>
      <trkpt lat="45.2273" lon="6.02633">
        <ele>1870.38</ele>
        <time>2022-03-28T08:30:38Z</time>
      </trkpt>
      <trkpt lat="45.22734" lon="6.02632">
        <ele>1870.38</ele>
        <time>2022-03-28T08:30:53Z</time>
      </trkpt>
      <trkpt lat="45.22732" lon="6.02625">
        <ele>1870.38</ele>
        <time>2022-03-28T08:31:13Z</time>
      </trkpt>
      <trkpt lat="45.22731" lon="6.02625">
        <ele>1870.86</ele>
        <time>2022-03-28T08:31:43Z</time>
      </trkpt>
      <trkpt lat="45.22733" lon="6.02625">
        <ele>1872.3</ele>
        <time>2022-03-28T08:31:51Z</time>
      </trkpt>
      <trkpt lat="45.22733" lon="6.02626">
        <ele>1871.82</ele>
        <time>2022-03-28T08:32:01Z</time>
      </trkpt>
      <trkpt lat="45.22735" lon="6.02627">
        <ele>1873.27</ele>
        <time>2022-03-28T08:32:10Z</time>
      </trkpt>
      <trkpt lat="45.2274" lon="6.02632">
        <ele>1873.75</ele>
        <time>2022-03-28T08:32:24Z</time>
      </trkpt>
      <trkpt lat="45.2275" lon="6.02646">
        <ele>1876.15</ele>
        <time>2022-03-28T08:32:41Z</time>
      </trkpt>
      <trkpt lat="45.2276" lon="6.02655">
        <ele>1879.03</ele>
        <time>2022-03-28T08:33:00Z</time>
      </trkpt>
      <trkpt lat="45.22763" lon="6.02665">
        <ele>1880.48</ele>
        <time>2022-03-28T08:33:17Z</time>
      </trkpt>
      <trkpt lat="45.22763" lon="6.02674">
        <ele>1883.84</ele>
        <time>2022-03-28T08:33:34Z</time>
      </trkpt>
      <trkpt lat="45.2276" lon="6.02686">
        <ele>1885.76</ele>
        <time>2022-03-28T08:33:50Z</time>
      </trkpt>
      <trkpt lat="45.22765" lon="6.02687">
        <ele>1887.21</ele>
        <time>2022-03-28T08:34:06Z</time>
      </trkpt>
      <trkpt lat="45.22776" lon="6.02683">
        <ele>1890.09</ele>
        <time>2022-03-28T08:34:27Z</time>
      </trkpt>
      <trkpt lat="45.22785" lon="6.02681">
        <ele>1892.49</ele>
        <time>2022-03-28T08:34:47Z</time>
      </trkpt>
      <trkpt lat="45.22795" lon="6.02679">
        <ele>1895.38</ele>
        <time>2022-03-28T08:35:05Z</time>
      </trkpt>
      <trkpt lat="45.22804" lon="6.02679">
        <ele>1898.26</ele>
        <time>2022-03-28T08:35:26Z</time>
      </trkpt>
      <trkpt lat="45.22812" lon="6.02679">
        <ele>1900.66</ele>
        <time>2022-03-28T08:35:45Z</time>
      </trkpt>
      <trkpt lat="45.22816" lon="6.0268">
        <ele>1903.07</ele>
        <time>2022-03-28T08:36:04Z</time>
      </trkpt>
      <trkpt lat="45.22832" lon="6.02671">
        <ele>1905.47</ele>
        <time>2022-03-28T08:36:24Z</time>
      </trkpt>
      <trkpt lat="45.22839" lon="6.02668">
        <ele>1908.35</ele>
        <time>2022-03-28T08:36:43Z</time>
      </trkpt>
      <trkpt lat="45.22846" lon="6.02663">
        <ele>1910.76</ele>
        <time>2022-03-28T08:37:01Z</time>
      </trkpt>
      <trkpt lat="45.22857" lon="6.02658">
        <ele>1913.16</ele>
        <time>2022-03-28T08:37:22Z</time>
      </trkpt>
      <trkpt lat="45.22866" lon="6.02652">
        <ele>1916.04</ele>
        <time>2022-03-28T08:37:41Z</time>
      </trkpt>
      <trkpt lat="45.2287" lon="6.02641">
        <ele>1919.41</ele>
        <time>2022-03-28T08:38:04Z</time>
      </trkpt>
      <trkpt lat="45.22873" lon="6.02636">
        <ele>1921.33</ele>
        <time>2022-03-28T08:38:22Z</time>
      </trkpt>
      <trkpt lat="45.22877" lon="6.02647">
        <ele>1924.7</ele>
        <time>2022-03-28T08:38:41Z</time>
      </trkpt>
      <trkpt lat="45.22885" lon="6.02654">
        <ele>1926.62</ele>
        <time>2022-03-28T08:39:00Z</time>
      </trkpt>
      <trkpt lat="45.22889" lon="6.02661">
        <ele>1929.5</ele>
        <time>2022-03-28T08:39:18Z</time>
      </trkpt>
      <trkpt lat="45.2289" lon="6.02671">
        <ele>1931.43</ele>
        <time>2022-03-28T08:39:35Z</time>
      </trkpt>
      <trkpt lat="45.22898" lon="6.0267">
        <ele>1934.31</ele>
        <time>2022-03-28T08:39:54Z</time>
      </trkpt>
      <trkpt lat="45.22906" lon="6.02666">
        <ele>1936.71</ele>
        <time>2022-03-28T08:40:13Z</time>
      </trkpt>
      <trkpt lat="45.22909" lon="6.02664">
        <ele>1941.04</ele>
        <time>2022-03-28T08:40:30Z</time>
      </trkpt>
      <trkpt lat="45.2291" lon="6.02664">
        <ele>1941.04</ele>
        <time>2022-03-28T08:40:31Z</time>
      </trkpt>
      <trkpt lat="45.22914" lon="6.02672">
        <ele>1942.96</ele>
        <time>2022-03-28T08:40:48Z</time>
      </trkpt>
      <trkpt lat="45.22916" lon="6.02684">
        <ele>1944.88</ele>
        <time>2022-03-28T08:41:06Z</time>
      </trkpt>
      <trkpt lat="45.22914" lon="6.02693">
        <ele>1946.33</ele>
        <time>2022-03-28T08:41:25Z</time>
      </trkpt>
      <trkpt lat="45.2292" lon="6.02697">
        <ele>1949.21</ele>
        <time>2022-03-28T08:41:42Z</time>
      </trkpt>
      <trkpt lat="45.22922" lon="6.02698">
        <ele>1950.17</ele>
        <time>2022-03-28T08:41:49Z</time>
      </trkpt>
      <trkpt lat="45.22932" lon="6.02688">
        <ele>1952.09</ele>
        <time>2022-03-28T08:42:08Z</time>
      </trkpt>
      <trkpt lat="45.2294" lon="6.02682">
        <ele>1954.98</ele>
        <time>2022-03-28T08:42:27Z</time>
      </trkpt>
      <trkpt lat="45.22949" lon="6.02675">
        <ele>1958.82</ele>
        <time>2022-03-28T08:42:47Z</time>
      </trkpt>
      <trkpt lat="45.22951" lon="6.02687">
        <ele>1961.71</ele>
        <time>2022-03-28T08:43:06Z</time>
      </trkpt>
      <trkpt lat="45.2295" lon="6.02701">
        <ele>1964.11</ele>
        <time>2022-03-28T08:43:25Z</time>
      </trkpt>
      <trkpt lat="45.22954" lon="6.02703">
        <ele>1965.07</ele>
        <time>2022-03-28T08:43:38Z</time>
      </trkpt>
      <trkpt lat="45.22959" lon="6.02701">
        <ele>1966.99</ele>
        <time>2022-03-28T08:43:56Z</time>
      </trkpt>
      <trkpt lat="45.22967" lon="6.02694">
        <ele>1969.4</ele>
        <time>2022-03-28T08:44:15Z</time>
      </trkpt>
      <trkpt lat="45.22971" lon="6.02688">
        <ele>1971.8</ele>
        <time>2022-03-28T08:44:35Z</time>
      </trkpt>
      <trkpt lat="45.22978" lon="6.02678">
        <ele>1974.69</ele>
        <time>2022-03-28T08:44:54Z</time>
      </trkpt>
      <trkpt lat="45.22981" lon="6.02675">
        <ele>1977.09</ele>
        <time>2022-03-28T08:45:11Z</time>
      </trkpt>
      <trkpt lat="45.22982" lon="6.02687">
        <ele>1979.97</ele>
        <time>2022-03-28T08:45:30Z</time>
      </trkpt>
      <trkpt lat="45.22984" lon="6.02699">
        <ele>1981.9</ele>
        <time>2022-03-28T08:45:48Z</time>
      </trkpt>
      <trkpt lat="45.22987" lon="6.02699">
        <ele>1982.86</ele>
        <time>2022-03-28T08:46:06Z</time>
      </trkpt>
      <trkpt lat="45.22995" lon="6.02692">
        <ele>1985.74</ele>
        <time>2022-03-28T08:46:30Z</time>
      </trkpt>
      <trkpt lat="45.23001" lon="6.02682">
        <ele>1988.14</ele>
        <time>2022-03-28T08:46:53Z</time>
      </trkpt>
      <trkpt lat="45.23003" lon="6.02671">
        <ele>1991.03</ele>
        <time>2022-03-28T08:47:11Z</time>
      </trkpt>
      <trkpt lat="45.23004" lon="6.02669">
        <ele>1992.47</ele>
        <time>2022-03-28T08:47:31Z</time>
      </trkpt>
      <trkpt lat="45.23008" lon="6.02678">
        <ele>1993.43</ele>
        <time>2022-03-28T08:47:47Z</time>
      </trkpt>
      <trkpt lat="45.23012" lon="6.02688">
        <ele>1995.83</ele>
        <time>2022-03-28T08:48:05Z</time>
      </trkpt>
      <trkpt lat="45.23014" lon="6.02699">
        <ele>1998.72</ele>
        <time>2022-03-28T08:48:24Z</time>
      </trkpt>
      <trkpt lat="45.23015" lon="6.0271">
        <ele>2000.64</ele>
        <time>2022-03-28T08:48:42Z</time>
      </trkpt>
      <trkpt lat="45.23014" lon="6.02715">
        <ele>2001.6</ele>
        <time>2022-03-28T08:48:59Z</time>
      </trkpt>
      <trkpt lat="45.23021" lon="6.02714">
        <ele>2004.49</ele>
        <time>2022-03-28T08:49:24Z</time>
      </trkpt>
      <trkpt lat="45.23034" lon="6.02705">
        <ele>2006.89</ele>
        <time>2022-03-28T08:49:48Z</time>
      </trkpt>
      <trkpt lat="45.23039" lon="6.02692">
        <ele>2009.77</ele>
        <time>2022-03-28T08:50:07Z</time>
      </trkpt>
      <trkpt lat="45.23039" lon="6.02685">
        <ele>2012.18</ele>
        <time>2022-03-28T08:50:25Z</time>
      </trkpt>
      <trkpt lat="45.2304" lon="6.02668">
        <ele>2014.58</ele>
        <time>2022-03-28T08:50:47Z</time>
      </trkpt>
      <trkpt lat="45.23042" lon="6.02669">
        <ele>2016.02</ele>
        <time>2022-03-28T08:51:01Z</time>
      </trkpt>
      <trkpt lat="45.2305" lon="6.02677">
        <ele>2019.39</ele>
        <time>2022-03-28T08:51:22Z</time>
      </trkpt>
      <trkpt lat="45.23055" lon="6.02684">
        <ele>2021.31</ele>
        <time>2022-03-28T08:51:40Z</time>
      </trkpt>
      <trkpt lat="45.23061" lon="6.02694">
        <ele>2023.71</ele>
        <time>2022-03-28T08:51:58Z</time>
      </trkpt>
      <trkpt lat="45.23066" lon="6.02704">
        <ele>2026.12</ele>
        <time>2022-03-28T08:52:16Z</time>
      </trkpt>
      <trkpt lat="45.23069" lon="6.02695">
        <ele>2028.04</ele>
        <time>2022-03-28T08:52:34Z</time>
      </trkpt>
      <trkpt lat="45.23073" lon="6.02684">
        <ele>2031.4</ele>
        <time>2022-03-28T08:52:54Z</time>
      </trkpt>
      <trkpt lat="45.23076" lon="6.0269">
        <ele>2032.84</ele>
        <time>2022-03-28T08:53:07Z</time>
      </trkpt>
      <trkpt lat="45.2308" lon="6.02697">
        <ele>2035.25</ele>
        <time>2022-03-28T08:53:20Z</time>
      </trkpt>
      <trkpt lat="45.23086" lon="6.02709">
        <ele>2038.13</ele>
        <time>2022-03-28T08:53:42Z</time>
      </trkpt>
      <trkpt lat="45.23085" lon="6.02715">
        <ele>2039.57</ele>
        <time>2022-03-28T08:54:00Z</time>
      </trkpt>
      <trkpt lat="45.23087" lon="6.02723">
        <ele>2041.5</ele>
        <time>2022-03-28T08:54:18Z</time>
      </trkpt>
      <trkpt lat="45.23086" lon="6.0273">
        <ele>2043.42</ele>
        <time>2022-03-28T08:54:38Z</time>
      </trkpt>
      <trkpt lat="45.2309" lon="6.0273">
        <ele>2044.86</ele>
        <time>2022-03-28T08:54:57Z</time>
      </trkpt>
      <trkpt lat="45.23096" lon="6.02721">
        <ele>2046.78</ele>
        <time>2022-03-28T08:55:17Z</time>
      </trkpt>
      <trkpt lat="45.23104" lon="6.02711">
        <ele>2049.19</ele>
        <time>2022-03-28T08:55:35Z</time>
      </trkpt>
      <trkpt lat="45.2311" lon="6.02701">
        <ele>2051.59</ele>
        <time>2022-03-28T08:55:55Z</time>
      </trkpt>
      <trkpt lat="45.23114" lon="6.027">
        <ele>2054.47</ele>
        <time>2022-03-28T08:56:13Z</time>
      </trkpt>
      <trkpt lat="45.23118" lon="6.02712">
        <ele>2056.88</ele>
        <time>2022-03-28T08:56:33Z</time>
      </trkpt>
      <trkpt lat="45.23119" lon="6.02721">
        <ele>2059.28</ele>
        <time>2022-03-28T08:56:51Z</time>
      </trkpt>
      <trkpt lat="45.23119" lon="6.02728">
        <ele>2060.24</ele>
        <time>2022-03-28T08:57:08Z</time>
      </trkpt>
      <trkpt lat="45.23117" lon="6.02737">
        <ele>2062.17</ele>
        <time>2022-03-28T08:57:23Z</time>
      </trkpt>
      <trkpt lat="45.23122" lon="6.02737">
        <ele>2063.13</ele>
        <time>2022-03-28T08:57:39Z</time>
      </trkpt>
      <trkpt lat="45.23126" lon="6.02734">
        <ele>2064.57</ele>
        <time>2022-03-28T08:57:54Z</time>
      </trkpt>
      <trkpt lat="45.23129" lon="6.0273">
        <ele>2068.41</ele>
        <time>2022-03-28T08:58:06Z</time>
      </trkpt>
      <trkpt lat="45.23131" lon="6.02728">
        <ele>2068.41</ele>
        <time>2022-03-28T08:58:11Z</time>
      </trkpt>
      <trkpt lat="45.23132" lon="6.02727">
        <ele>2066.97</ele>
        <time>2022-03-28T08:58:14Z</time>
      </trkpt>
      <trkpt lat="45.23138" lon="6.02723">
        <ele>2069.38</ele>
        <time>2022-03-28T08:58:34Z</time>
      </trkpt>
      <trkpt lat="45.23146" lon="6.02717">
        <ele>2072.74</ele>
        <time>2022-03-28T08:58:53Z</time>
      </trkpt>
      <trkpt lat="45.23154" lon="6.02723">
        <ele>2074.18</ele>
        <time>2022-03-28T08:59:13Z</time>
      </trkpt>
      <trkpt lat="45.23156" lon="6.02725">
        <ele>2076.1</ele>
        <time>2022-03-28T08:59:17Z</time>
      </trkpt>
      <trkpt lat="45.23163" lon="6.02728">
        <ele>2078.51</ele>
        <time>2022-03-28T08:59:37Z</time>
      </trkpt>
      <trkpt lat="45.23171" lon="6.02725">
        <ele>2080.43</ele>
        <time>2022-03-28T08:59:56Z</time>
      </trkpt>
      <trkpt lat="45.23175" lon="6.02724">
        <ele>2082.83</ele>
        <time>2022-03-28T09:00:12Z</time>
      </trkpt>
      <trkpt lat="45.23182" lon="6.02721">
        <ele>2085.24</ele>
        <time>2022-03-28T09:00:30Z</time>
      </trkpt>
      <trkpt lat="45.23189" lon="6.02713">
        <ele>2087.16</ele>
        <time>2022-03-28T09:00:50Z</time>
      </trkpt>
      <trkpt lat="45.23193" lon="6.02697">
        <ele>2090.52</ele>
        <time>2022-03-28T09:01:07Z</time>
      </trkpt>
      <trkpt lat="45.23198" lon="6.02699">
        <ele>2091.97</ele>
        <time>2022-03-28T09:01:20Z</time>
      </trkpt>
      <trkpt lat="45.23203" lon="6.02708">
        <ele>2094.37</ele>
        <time>2022-03-28T09:01:38Z</time>
      </trkpt>
      <trkpt lat="45.23206" lon="6.02722">
        <ele>2097.25</ele>
        <time>2022-03-28T09:02:00Z</time>
      </trkpt>
      <trkpt lat="45.23212" lon="6.02719">
        <ele>2100.14</ele>
        <time>2022-03-28T09:02:19Z</time>
      </trkpt>
      <trkpt lat="45.23216" lon="6.02711">
        <ele>2102.06</ele>
        <time>2022-03-28T09:02:37Z</time>
      </trkpt>
      <trkpt lat="45.23221" lon="6.02714">
        <ele>2103.98</ele>
        <time>2022-03-28T09:02:53Z</time>
      </trkpt>
      <trkpt lat="45.23225" lon="6.02725">
        <ele>2105.91</ele>
        <time>2022-03-28T09:03:11Z</time>
      </trkpt>
      <trkpt lat="45.23228" lon="6.02728">
        <ele>2109.27</ele>
        <time>2022-03-28T09:03:28Z</time>
      </trkpt>
      <trkpt lat="45.23233" lon="6.02719">
        <ele>2111.19</ele>
        <time>2022-03-28T09:03:47Z</time>
      </trkpt>
      <trkpt lat="45.23235" lon="6.02716">
        <ele>2113.6</ele>
        <time>2022-03-28T09:04:03Z</time>
      </trkpt>
      <trkpt lat="45.23243" lon="6.02724">
        <ele>2116.48</ele>
        <time>2022-03-28T09:04:22Z</time>
      </trkpt>
      <trkpt lat="45.23245" lon="6.02728">
        <ele>2117.92</ele>
        <time>2022-03-28T09:04:30Z</time>
      </trkpt>
      <trkpt lat="45.23248" lon="6.02739">
        <ele>2120.32</ele>
        <time>2022-03-28T09:04:49Z</time>
      </trkpt>
      <trkpt lat="45.2325" lon="6.02751">
        <ele>2123.21</ele>
        <time>2022-03-28T09:05:08Z</time>
      </trkpt>
      <trkpt lat="45.23247" lon="6.02761">
        <ele>2124.65</ele>
        <time>2022-03-28T09:05:25Z</time>
      </trkpt>
      <trkpt lat="45.23256" lon="6.02757">
        <ele>2127.53</ele>
        <time>2022-03-28T09:05:46Z</time>
      </trkpt>
      <trkpt lat="45.23263" lon="6.02754">
        <ele>2129.94</ele>
        <time>2022-03-28T09:06:05Z</time>
      </trkpt>
      <trkpt lat="45.23267" lon="6.02747">
        <ele>2131.86</ele>
        <time>2022-03-28T09:06:24Z</time>
      </trkpt>
      <trkpt lat="45.23273" lon="6.02742">
        <ele>2134.74</ele>
        <time>2022-03-28T09:06:41Z</time>
      </trkpt>
      <trkpt lat="45.23275" lon="6.02756">
        <ele>2136.67</ele>
        <time>2022-03-28T09:07:00Z</time>
      </trkpt>
      <trkpt lat="45.23277" lon="6.02766">
        <ele>2139.55</ele>
        <time>2022-03-28T09:07:15Z</time>
      </trkpt>
      <trkpt lat="45.23279" lon="6.02778">
        <ele>2141.47</ele>
        <time>2022-03-28T09:07:32Z</time>
      </trkpt>
      <trkpt lat="45.23283" lon="6.02785">
        <ele>2143.88</ele>
        <time>2022-03-28T09:07:50Z</time>
      </trkpt>
      <trkpt lat="45.23289" lon="6.02788">
        <ele>2146.76</ele>
        <time>2022-03-28T09:08:08Z</time>
      </trkpt>
      <trkpt lat="45.23289" lon="6.02789">
        <ele>2146.76</ele>
        <time>2022-03-28T09:08:09Z</time>
      </trkpt>
      <trkpt lat="45.23289" lon="6.02793">
        <ele>2145.32</ele>
        <time>2022-03-28T09:08:26Z</time>
      </trkpt>
      <trkpt lat="45.23289" lon="6.02793">
        <ele>2150.13</ele>
        <time>2022-03-28T09:08:28Z</time>
      </trkpt>
      <trkpt lat="45.23289" lon="6.02794">
        <ele>2145.32</ele>
        <time>2022-03-28T09:08:29Z</time>
      </trkpt>
      <trkpt lat="45.23288" lon="6.02789">
        <ele>2145.32</ele>
        <time>2022-03-28T09:08:59Z</time>
      </trkpt>
      <trkpt lat="45.2329" lon="6.02788">
        <ele>2145.8</ele>
        <time>2022-03-28T09:09:31Z</time>
      </trkpt>
      <trkpt lat="45.23289" lon="6.0279">
        <ele>2145.8</ele>
        <time>2022-03-28T09:10:13Z</time>
      </trkpt>
      <trkpt lat="45.23289" lon="6.02793">
        <ele>2146.28</ele>
        <time>2022-03-28T09:10:56Z</time>
      </trkpt>
      <trkpt lat="45.23288" lon="6.02794">
        <ele>2146.76</ele>
        <time>2022-03-28T09:11:34Z</time>
      </trkpt>
      <trkpt lat="45.23286" lon="6.02793">
        <ele>2146.76</ele>
        <time>2022-03-28T09:11:58Z</time>
      </trkpt>
      <trkpt lat="45.23285" lon="6.02791">
        <ele>2146.76</ele>
        <time>2022-03-28T09:12:14Z</time>
      </trkpt>
      <trkpt lat="45.23285" lon="6.02788">
        <ele>2148.2</ele>
        <time>2022-03-28T09:12:39Z</time>
      </trkpt>
      <trkpt lat="45.23291" lon="6.02796">
        <ele>2149.16</ele>
        <time>2022-03-28T09:12:59Z</time>
      </trkpt>
      <trkpt lat="45.23302" lon="6.02796">
        <ele>2149.16</ele>
        <time>2022-03-28T09:13:15Z</time>
      </trkpt>
      <trkpt lat="45.23312" lon="6.02793">
        <ele>2150.61</ele>
        <time>2022-03-28T09:13:26Z</time>
      </trkpt>
      <trkpt lat="45.23315" lon="6.02792">
        <ele>2149.16</ele>
        <time>2022-03-28T09:13:30Z</time>
      </trkpt>
      <trkpt lat="45.23323" lon="6.02794">
        <ele>2148.68</ele>
        <time>2022-03-28T09:13:38Z</time>
      </trkpt>
      <trkpt lat="45.23336" lon="6.02801">
        <ele>2149.16</ele>
        <time>2022-03-28T09:13:54Z</time>
      </trkpt>
      <trkpt lat="45.23348" lon="6.02811">
        <ele>2149.65</ele>
        <time>2022-03-28T09:14:11Z</time>
      </trkpt>
      <trkpt lat="45.23361" lon="6.02822">
        <ele>2150.13</ele>
        <time>2022-03-28T09:14:29Z</time>
      </trkpt>
      <trkpt lat="45.23375" lon="6.02834">
        <ele>2150.13</ele>
        <time>2022-03-28T09:14:47Z</time>
      </trkpt>
      <trkpt lat="45.23387" lon="6.02843">
        <ele>2149.16</ele>
        <time>2022-03-28T09:15:04Z</time>
      </trkpt>
      <trkpt lat="45.234" lon="6.02852">
        <ele>2149.16</ele>
        <time>2022-03-28T09:15:21Z</time>
      </trkpt>
      <trkpt lat="45.23414" lon="6.02863">
        <ele>2148.2</ele>
        <time>2022-03-28T09:15:39Z</time>
      </trkpt>
      <trkpt lat="45.23427" lon="6.02873">
        <ele>2149.16</ele>
        <time>2022-03-28T09:15:55Z</time>
      </trkpt>
      <trkpt lat="45.23441" lon="6.02883">
        <ele>2148.68</ele>
        <time>2022-03-28T09:16:11Z</time>
      </trkpt>
      <trkpt lat="45.23451" lon="6.02893">
        <ele>2150.61</ele>
        <time>2022-03-28T09:16:29Z</time>
      </trkpt>
      <trkpt lat="45.23462" lon="6.02907">
        <ele>2153.97</ele>
        <time>2022-03-28T09:16:51Z</time>
      </trkpt>
      <trkpt lat="45.23469" lon="6.02914">
        <ele>2157.34</ele>
        <time>2022-03-28T09:17:13Z</time>
      </trkpt>
      <trkpt lat="45.23476" lon="6.02917">
        <ele>2159.26</ele>
        <time>2022-03-28T09:17:32Z</time>
      </trkpt>
      <trkpt lat="45.23483" lon="6.0292">
        <ele>2161.18</ele>
        <time>2022-03-28T09:17:47Z</time>
      </trkpt>
      <trkpt lat="45.23496" lon="6.02926">
        <ele>2163.58</ele>
        <time>2022-03-28T09:18:08Z</time>
      </trkpt>
      <trkpt lat="45.23503" lon="6.02932">
        <ele>2164.06</ele>
        <time>2022-03-28T09:18:22Z</time>
      </trkpt>
      <trkpt lat="45.23509" lon="6.02934">
        <ele>2165.51</ele>
        <time>2022-03-28T09:18:35Z</time>
      </trkpt>
      <trkpt lat="45.2352" lon="6.02938">
        <ele>2167.43</ele>
        <time>2022-03-28T09:18:58Z</time>
      </trkpt>
      <trkpt lat="45.23532" lon="6.02943">
        <ele>2170.31</ele>
        <time>2022-03-28T09:19:20Z</time>
      </trkpt>
      <trkpt lat="45.23535" lon="6.02945">
        <ele>2170.79</ele>
        <time>2022-03-28T09:19:24Z</time>
      </trkpt>
      <trkpt lat="45.23547" lon="6.0295">
        <ele>2171.27</ele>
        <time>2022-03-28T09:19:42Z</time>
      </trkpt>
      <trkpt lat="45.23559" lon="6.02958">
        <ele>2174.64</ele>
        <time>2022-03-28T09:20:03Z</time>
      </trkpt>
      <trkpt lat="45.23573" lon="6.02965">
        <ele>2176.56</ele>
        <time>2022-03-28T09:20:24Z</time>
      </trkpt>
      <trkpt lat="45.23586" lon="6.02973">
        <ele>2176.08</ele>
        <time>2022-03-28T09:20:44Z</time>
      </trkpt>
      <trkpt lat="45.23596" lon="6.02976">
        <ele>2179.93</ele>
        <time>2022-03-28T09:21:00Z</time>
      </trkpt>
      <trkpt lat="45.23609" lon="6.02979">
        <ele>2179.93</ele>
        <time>2022-03-28T09:21:23Z</time>
      </trkpt>
      <trkpt lat="45.23615" lon="6.02981">
        <ele>2182.81</ele>
        <time>2022-03-28T09:21:35Z</time>
      </trkpt>
      <trkpt lat="45.23626" lon="6.02988">
        <ele>2185.21</ele>
        <time>2022-03-28T09:21:55Z</time>
      </trkpt>
      <trkpt lat="45.23636" lon="6.02991">
        <ele>2186.66</ele>
        <time>2022-03-28T09:22:13Z</time>
      </trkpt>
      <trkpt lat="45.23647" lon="6.02997">
        <ele>2188.1</ele>
        <time>2022-03-28T09:22:32Z</time>
      </trkpt>
      <trkpt lat="45.23658" lon="6.03004">
        <ele>2190.5</ele>
        <time>2022-03-28T09:22:51Z</time>
      </trkpt>
      <trkpt lat="45.2366" lon="6.03008">
        <ele>2189.54</ele>
        <time>2022-03-28T09:22:57Z</time>
      </trkpt>
      <trkpt lat="45.23669" lon="6.03012">
        <ele>2190.98</ele>
        <time>2022-03-28T09:23:10Z</time>
      </trkpt>
      <trkpt lat="45.23677" lon="6.0302">
        <ele>2192.42</ele>
        <time>2022-03-28T09:23:28Z</time>
      </trkpt>
      <trkpt lat="45.23679" lon="6.03032">
        <ele>2194.83</ele>
        <time>2022-03-28T09:23:46Z</time>
      </trkpt>
      <trkpt lat="45.23683" lon="6.03046">
        <ele>2196.27</ele>
        <time>2022-03-28T09:24:06Z</time>
      </trkpt>
      <trkpt lat="45.23688" lon="6.03055">
        <ele>2198.67</ele>
        <time>2022-03-28T09:24:22Z</time>
      </trkpt>
      <trkpt lat="45.23688" lon="6.03057">
        <ele>2198.67</ele>
        <time>2022-03-28T09:24:23Z</time>
      </trkpt>
      <trkpt lat="45.23687" lon="6.03072">
        <ele>2200.11</ele>
        <time>2022-03-28T09:24:42Z</time>
      </trkpt>
      <trkpt lat="45.23685" lon="6.03076">
        <ele>2201.56</ele>
        <time>2022-03-28T09:24:49Z</time>
      </trkpt>
      <trkpt lat="45.23683" lon="6.03084">
        <ele>2203.96</ele>
        <time>2022-03-28T09:25:07Z</time>
      </trkpt>
      <trkpt lat="45.2369" lon="6.03092">
        <ele>2205.88</ele>
        <time>2022-03-28T09:25:23Z</time>
      </trkpt>
      <trkpt lat="45.23694" lon="6.031">
        <ele>2207.32</ele>
        <time>2022-03-28T09:25:37Z</time>
      </trkpt>
      <trkpt lat="45.23694" lon="6.03113">
        <ele>2209.73</ele>
        <time>2022-03-28T09:25:55Z</time>
      </trkpt>
      <trkpt lat="45.23694" lon="6.0313">
        <ele>2209.25</ele>
        <time>2022-03-28T09:26:13Z</time>
      </trkpt>
      <trkpt lat="45.23697" lon="6.03144">
        <ele>2212.13</ele>
        <time>2022-03-28T09:26:31Z</time>
      </trkpt>
      <trkpt lat="45.23697" lon="6.0316">
        <ele>2211.65</ele>
        <time>2022-03-28T09:26:51Z</time>
      </trkpt>
      <trkpt lat="45.23697" lon="6.03163">
        <ele>2213.09</ele>
        <time>2022-03-28T09:26:54Z</time>
      </trkpt>
      <trkpt lat="45.23697" lon="6.03164">
        <ele>2211.65</ele>
        <time>2022-03-28T09:26:55Z</time>
      </trkpt>
      <trkpt lat="45.23697" lon="6.03164">
        <ele>2213.57</ele>
        <time>2022-03-28T09:26:56Z</time>
      </trkpt>
      <trkpt lat="45.23695" lon="6.03168">
        <ele>2212.13</ele>
        <time>2022-03-28T09:27:02Z</time>
      </trkpt>
      <trkpt lat="45.23695" lon="6.03169">
        <ele>2214.53</ele>
        <time>2022-03-28T09:27:03Z</time>
      </trkpt>
      <trkpt lat="45.23694" lon="6.03169">
        <ele>2213.09</ele>
        <time>2022-03-28T09:27:04Z</time>
      </trkpt>
      <trkpt lat="45.23694" lon="6.0317">
        <ele>2214.53</ele>
        <time>2022-03-28T09:27:05Z</time>
      </trkpt>
      <trkpt lat="45.23694" lon="6.03172">
        <ele>2212.61</ele>
        <time>2022-03-28T09:27:09Z</time>
      </trkpt>
      <trkpt lat="45.23693" lon="6.03172">
        <ele>2215.98</ele>
        <time>2022-03-28T09:27:10Z</time>
      </trkpt>
      <trkpt lat="45.23693" lon="6.03173">
        <ele>2213.57</ele>
        <time>2022-03-28T09:27:11Z</time>
      </trkpt>
      <trkpt lat="45.23693" lon="6.03174">
        <ele>2215.01</ele>
        <time>2022-03-28T09:27:13Z</time>
      </trkpt>
      <trkpt lat="45.23692" lon="6.03188">
        <ele>2216.94</ele>
        <time>2022-03-28T09:27:31Z</time>
      </trkpt>
      <trkpt lat="45.23698" lon="6.03208">
        <ele>2219.34</ele>
        <time>2022-03-28T09:27:51Z</time>
      </trkpt>
      <trkpt lat="45.23704" lon="6.03223">
        <ele>2221.74</ele>
        <time>2022-03-28T09:28:10Z</time>
      </trkpt>
      <trkpt lat="45.23714" lon="6.03225">
        <ele>2223.19</ele>
        <time>2022-03-28T09:28:30Z</time>
      </trkpt>
      <trkpt lat="45.23721" lon="6.0323">
        <ele>2225.59</ele>
        <time>2022-03-28T09:28:48Z</time>
      </trkpt>
      <trkpt lat="45.23726" lon="6.03233">
        <ele>2228.47</ele>
        <time>2022-03-28T09:29:08Z</time>
      </trkpt>
      <trkpt lat="45.23722" lon="6.03239">
        <ele>2228.95</ele>
        <time>2022-03-28T09:29:28Z</time>
      </trkpt>
      <trkpt lat="45.23721" lon="6.03246">
        <ele>2230.4</ele>
        <time>2022-03-28T09:29:39Z</time>
      </trkpt>
      <trkpt lat="45.2372" lon="6.03247">
        <ele>2231.84</ele>
        <time>2022-03-28T09:29:41Z</time>
      </trkpt>
      <trkpt lat="45.23715" lon="6.03252">
        <ele>2231.84</ele>
        <time>2022-03-28T09:29:53Z</time>
      </trkpt>
      <trkpt lat="45.23715" lon="6.03252">
        <ele>2233.76</ele>
        <time>2022-03-28T09:29:54Z</time>
      </trkpt>
      <trkpt lat="45.23715" lon="6.03253">
        <ele>2232.32</ele>
        <time>2022-03-28T09:29:55Z</time>
      </trkpt>
      <trkpt lat="45.23714" lon="6.03253">
        <ele>2234.24</ele>
        <time>2022-03-28T09:29:56Z</time>
      </trkpt>
      <trkpt lat="45.23714" lon="6.03254">
        <ele>2232.8</ele>
        <time>2022-03-28T09:29:58Z</time>
      </trkpt>
      <trkpt lat="45.23714" lon="6.03255">
        <ele>2234.72</ele>
        <time>2022-03-28T09:29:59Z</time>
      </trkpt>
      <trkpt lat="45.23713" lon="6.03256">
        <ele>2235.2</ele>
        <time>2022-03-28T09:30:16Z</time>
      </trkpt>
      <trkpt lat="45.23724" lon="6.03261">
        <ele>2237.13</ele>
        <time>2022-03-28T09:30:37Z</time>
      </trkpt>
      <trkpt lat="45.23734" lon="6.03265">
        <ele>2239.53</ele>
        <time>2022-03-28T09:31:00Z</time>
      </trkpt>
      <trkpt lat="45.23741" lon="6.03265">
        <ele>2242.89</ele>
        <time>2022-03-28T09:31:19Z</time>
      </trkpt>
      <trkpt lat="45.23741" lon="6.03267">
        <ele>2242.89</ele>
        <time>2022-03-28T09:31:20Z</time>
      </trkpt>
      <trkpt lat="45.23744" lon="6.03278">
        <ele>2244.82</ele>
        <time>2022-03-28T09:31:36Z</time>
      </trkpt>
      <trkpt lat="45.23746" lon="6.0329">
        <ele>2246.74</ele>
        <time>2022-03-28T09:31:55Z</time>
      </trkpt>
      <trkpt lat="45.23756" lon="6.03304">
        <ele>2249.14</ele>
        <time>2022-03-28T09:32:14Z</time>
      </trkpt>
      <trkpt lat="45.23757" lon="6.03315">
        <ele>2248.66</ele>
        <time>2022-03-28T09:32:20Z</time>
      </trkpt>
      <trkpt lat="45.23757" lon="6.03316">
        <ele>2250.58</ele>
        <time>2022-03-28T09:32:21Z</time>
      </trkpt>
      <trkpt lat="45.23757" lon="6.03318">
        <ele>2249.14</ele>
        <time>2022-03-28T09:32:22Z</time>
      </trkpt>
      <trkpt lat="45.23757" lon="6.03319">
        <ele>2250.58</ele>
        <time>2022-03-28T09:32:23Z</time>
      </trkpt>
      <trkpt lat="45.23767" lon="6.03329">
        <ele>2252.51</ele>
        <time>2022-03-28T09:32:42Z</time>
      </trkpt>
      <trkpt lat="45.23765" lon="6.03333">
        <ele>2252.51</ele>
        <time>2022-03-28T09:32:49Z</time>
      </trkpt>
      <trkpt lat="45.23763" lon="6.03333">
        <ele>2253.95</ele>
        <time>2022-03-28T09:32:51Z</time>
      </trkpt>
      <trkpt lat="45.23776" lon="6.03341">
        <ele>2256.35</ele>
        <time>2022-03-28T09:33:09Z</time>
      </trkpt>
      <trkpt lat="45.23783" lon="6.03345">
        <ele>2259.72</ele>
        <time>2022-03-28T09:33:27Z</time>
      </trkpt>
      <trkpt lat="45.23785" lon="6.03347">
        <ele>2259.72</ele>
        <time>2022-03-28T09:33:36Z</time>
      </trkpt>
      <trkpt lat="45.23791" lon="6.03348">
        <ele>2262.12</ele>
        <time>2022-03-28T09:33:52Z</time>
      </trkpt>
      <trkpt lat="45.23796" lon="6.03349">
        <ele>2263.56</ele>
        <time>2022-03-28T09:34:11Z</time>
      </trkpt>
      <trkpt lat="45.23803" lon="6.03354">
        <ele>2265.48</ele>
        <time>2022-03-28T09:34:30Z</time>
      </trkpt>
      <trkpt lat="45.23811" lon="6.03357">
        <ele>2267.89</ele>
        <time>2022-03-28T09:34:49Z</time>
      </trkpt>
      <trkpt lat="45.23819" lon="6.03354">
        <ele>2270.29</ele>
        <time>2022-03-28T09:35:06Z</time>
      </trkpt>
      <trkpt lat="45.23828" lon="6.03362">
        <ele>2272.69</ele>
        <time>2022-03-28T09:35:27Z</time>
      </trkpt>
      <trkpt lat="45.23834" lon="6.03369">
        <ele>2274.62</ele>
        <time>2022-03-28T09:35:46Z</time>
      </trkpt>
      <trkpt lat="45.23843" lon="6.03371">
        <ele>2277.02</ele>
        <time>2022-03-28T09:36:07Z</time>
      </trkpt>
      <trkpt lat="45.23855" lon="6.03368">
        <ele>2279.9</ele>
        <time>2022-03-28T09:36:27Z</time>
      </trkpt>
      <trkpt lat="45.23863" lon="6.03368">
        <ele>2282.31</ele>
        <time>2022-03-28T09:36:49Z</time>
      </trkpt>
      <trkpt lat="45.23869" lon="6.03362">
        <ele>2284.23</ele>
        <time>2022-03-28T09:37:06Z</time>
      </trkpt>
      <trkpt lat="45.23875" lon="6.03361">
        <ele>2286.15</ele>
        <time>2022-03-28T09:37:28Z</time>
      </trkpt>
      <trkpt lat="45.23884" lon="6.03356">
        <ele>2290</ele>
        <time>2022-03-28T09:37:50Z</time>
      </trkpt>
      <trkpt lat="45.23893" lon="6.0334">
        <ele>2292.4</ele>
        <time>2022-03-28T09:38:13Z</time>
      </trkpt>
      <trkpt lat="45.23898" lon="6.03329">
        <ele>2293.84</ele>
        <time>2022-03-28T09:38:33Z</time>
      </trkpt>
      <trkpt lat="45.23899" lon="6.03326">
        <ele>2295.77</ele>
        <time>2022-03-28T09:38:56Z</time>
      </trkpt>
      <trkpt lat="45.23904" lon="6.03318">
        <ele>2297.21</ele>
        <time>2022-03-28T09:39:16Z</time>
      </trkpt>
      <trkpt lat="45.23905" lon="6.03317">
        <ele>2298.65</ele>
        <time>2022-03-28T09:39:17Z</time>
      </trkpt>
      <trkpt lat="45.23908" lon="6.03308">
        <ele>2298.17</ele>
        <time>2022-03-28T09:39:36Z</time>
      </trkpt>
      <trkpt lat="45.23909" lon="6.03308">
        <ele>2299.61</ele>
        <time>2022-03-28T09:39:50Z</time>
      </trkpt>
      <trkpt lat="45.23909" lon="6.03322">
        <ele>2301.53</ele>
        <time>2022-03-28T09:40:07Z</time>
      </trkpt>
      <trkpt lat="45.2391" lon="6.03333">
        <ele>2301.53</ele>
        <time>2022-03-28T09:40:25Z</time>
      </trkpt>
      <trkpt lat="45.2391" lon="6.03335">
        <ele>2302.49</ele>
        <time>2022-03-28T09:40:28Z</time>
      </trkpt>
      <trkpt lat="45.23911" lon="6.03338">
        <ele>2302.01</ele>
        <time>2022-03-28T09:40:34Z</time>
      </trkpt>
      <trkpt lat="45.23911" lon="6.03339">
        <ele>2302.01</ele>
        <time>2022-03-28T09:40:37Z</time>
      </trkpt>
      <trkpt lat="45.23911" lon="6.0334">
        <ele>2303.94</ele>
        <time>2022-03-28T09:40:38Z</time>
      </trkpt>
      <trkpt lat="45.23911" lon="6.03341">
        <ele>2302.49</ele>
        <time>2022-03-28T09:40:39Z</time>
      </trkpt>
      <trkpt lat="45.23911" lon="6.03342">
        <ele>2303.94</ele>
        <time>2022-03-28T09:40:42Z</time>
      </trkpt>
      <trkpt lat="45.23911" lon="6.03351">
        <ele>2304.9</ele>
        <time>2022-03-28T09:40:57Z</time>
      </trkpt>
      <trkpt lat="45.2391" lon="6.03355">
        <ele>2305.86</ele>
        <time>2022-03-28T09:41:10Z</time>
      </trkpt>
      <trkpt lat="45.23912" lon="6.03368">
        <ele>2307.78</ele>
        <time>2022-03-28T09:41:29Z</time>
      </trkpt>
      <trkpt lat="45.23912" lon="6.03384">
        <ele>2309.7</ele>
        <time>2022-03-28T09:41:47Z</time>
      </trkpt>
      <trkpt lat="45.23911" lon="6.03381">
        <ele>2310.19</ele>
        <time>2022-03-28T09:42:06Z</time>
      </trkpt>
      <trkpt lat="45.23911" lon="6.03381">
        <ele>2308.74</ele>
        <time>2022-03-28T09:42:15Z</time>
      </trkpt>
      <trkpt lat="45.23913" lon="6.03382">
        <ele>2310.19</ele>
        <time>2022-03-28T09:42:17Z</time>
      </trkpt>
      <trkpt lat="45.23912" lon="6.0338">
        <ele>2308.74</ele>
        <time>2022-03-28T09:42:22Z</time>
      </trkpt>
      <trkpt lat="45.2391" lon="6.03377">
        <ele>2308.26</ele>
        <time>2022-03-28T09:42:49Z</time>
      </trkpt>
      <trkpt lat="45.23912" lon="6.03378">
        <ele>2310.67</ele>
        <time>2022-03-28T09:42:56Z</time>
      </trkpt>
      <trkpt lat="45.23911" lon="6.03378">
        <ele>2308.74</ele>
        <time>2022-03-28T09:42:59Z</time>
      </trkpt>
      <trkpt lat="45.23909" lon="6.03375">
        <ele>2309.22</ele>
        <time>2022-03-28T09:43:17Z</time>
      </trkpt>
      <trkpt lat="45.23908" lon="6.03384">
        <ele>2310.67</ele>
        <time>2022-03-28T09:43:37Z</time>
      </trkpt>
      <trkpt lat="45.23908" lon="6.03389">
        <ele>2312.59</ele>
        <time>2022-03-28T09:43:42Z</time>
      </trkpt>
      <trkpt lat="45.23906" lon="6.03399">
        <ele>2314.51</ele>
        <time>2022-03-28T09:43:58Z</time>
      </trkpt>
      <trkpt lat="45.23914" lon="6.03401">
        <ele>2315.47</ele>
        <time>2022-03-28T09:44:15Z</time>
      </trkpt>
      <trkpt lat="45.23917" lon="6.03403">
        <ele>2316.43</ele>
        <time>2022-03-28T09:44:18Z</time>
      </trkpt>
      <trkpt lat="45.23923" lon="6.03402">
        <ele>2318.36</ele>
        <time>2022-03-28T09:44:36Z</time>
      </trkpt>
      <trkpt lat="45.23926" lon="6.03404">
        <ele>2319.32</ele>
        <time>2022-03-28T09:44:42Z</time>
      </trkpt>
      <trkpt lat="45.23937" lon="6.03402">
        <ele>2321.24</ele>
        <time>2022-03-28T09:45:00Z</time>
      </trkpt>
      <trkpt lat="45.23942" lon="6.03396">
        <ele>2324.12</ele>
        <time>2022-03-28T09:45:19Z</time>
      </trkpt>
      <trkpt lat="45.23942" lon="6.03396">
        <ele>2324.12</ele>
        <time>2022-03-28T09:45:20Z</time>
      </trkpt>
      <trkpt lat="45.23943" lon="6.03399">
        <ele>2323.16</ele>
        <time>2022-03-28T09:45:24Z</time>
      </trkpt>
      <trkpt lat="45.23945" lon="6.03403">
        <ele>2325.09</ele>
        <time>2022-03-28T09:45:28Z</time>
      </trkpt>
      <trkpt lat="45.23946" lon="6.0341">
        <ele>2325.09</ele>
        <time>2022-03-28T09:45:44Z</time>
      </trkpt>
      <trkpt lat="45.23945" lon="6.03413">
        <ele>2328.45</ele>
        <time>2022-03-28T09:45:56Z</time>
      </trkpt>
      <trkpt lat="45.23944" lon="6.0342">
        <ele>2328.93</ele>
        <time>2022-03-28T09:46:13Z</time>
      </trkpt>
      <trkpt lat="45.23947" lon="6.03426">
        <ele>2328.93</ele>
        <time>2022-03-28T09:46:32Z</time>
      </trkpt>
      <trkpt lat="45.23947" lon="6.03426">
        <ele>2330.37</ele>
        <time>2022-03-28T09:46:34Z</time>
      </trkpt>
      <trkpt lat="45.23948" lon="6.03425">
        <ele>2331.33</ele>
        <time>2022-03-28T09:46:40Z</time>
      </trkpt>
      <trkpt lat="45.2396" lon="6.03424">
        <ele>2333.74</ele>
        <time>2022-03-28T09:46:58Z</time>
      </trkpt>
      <trkpt lat="45.23962" lon="6.03418">
        <ele>2335.18</ele>
        <time>2022-03-28T09:47:13Z</time>
      </trkpt>
      <trkpt lat="45.2396" lon="6.03419">
        <ele>2338.06</ele>
        <time>2022-03-28T09:47:31Z</time>
      </trkpt>
      <trkpt lat="45.2396" lon="6.0342">
        <ele>2338.06</ele>
        <time>2022-03-28T09:47:32Z</time>
      </trkpt>
      <trkpt lat="45.23958" lon="6.03423">
        <ele>2339.51</ele>
        <time>2022-03-28T09:47:43Z</time>
      </trkpt>
      <trkpt lat="45.23956" lon="6.0343">
        <ele>2339.02</ele>
        <time>2022-03-28T09:47:57Z</time>
      </trkpt>
      <trkpt lat="45.23956" lon="6.03431">
        <ele>2339.02</ele>
        <time>2022-03-28T09:47:58Z</time>
      </trkpt>
      <trkpt lat="45.23957" lon="6.03431">
        <ele>2340.95</ele>
        <time>2022-03-28T09:48:00Z</time>
      </trkpt>
      <trkpt lat="45.23953" lon="6.03435">
        <ele>2342.39</ele>
        <time>2022-03-28T09:48:15Z</time>
      </trkpt>
      <trkpt lat="45.23953" lon="6.03439">
        <ele>2343.35</ele>
        <time>2022-03-28T09:48:23Z</time>
      </trkpt>
      <trkpt lat="45.23948" lon="6.03446">
        <ele>2345.75</ele>
        <time>2022-03-28T09:48:39Z</time>
      </trkpt>
      <trkpt lat="45.23945" lon="6.0345">
        <ele>2346.23</ele>
        <time>2022-03-28T09:48:57Z</time>
      </trkpt>
      <trkpt lat="45.23949" lon="6.0345">
        <ele>2347.68</ele>
        <time>2022-03-28T09:49:12Z</time>
      </trkpt>
      <trkpt lat="45.23956" lon="6.03448">
        <ele>2349.6</ele>
        <time>2022-03-28T09:49:28Z</time>
      </trkpt>
      <trkpt lat="45.23962" lon="6.03449">
        <ele>2350.08</ele>
        <time>2022-03-28T09:49:43Z</time>
      </trkpt>
      <trkpt lat="45.23964" lon="6.03451">
        <ele>2351.52</ele>
        <time>2022-03-28T09:49:46Z</time>
      </trkpt>
      <trkpt lat="45.23972" lon="6.03449">
        <ele>2352.96</ele>
        <time>2022-03-28T09:50:04Z</time>
      </trkpt>
      <trkpt lat="45.23974" lon="6.03446">
        <ele>2353.93</ele>
        <time>2022-03-28T09:50:13Z</time>
      </trkpt>
      <trkpt lat="45.23973" lon="6.03442">
        <ele>2355.85</ele>
        <time>2022-03-28T09:50:30Z</time>
      </trkpt>
      <trkpt lat="45.23969" lon="6.03447">
        <ele>2356.33</ele>
        <time>2022-03-28T09:50:48Z</time>
      </trkpt>
      <trkpt lat="45.2397" lon="6.03454">
        <ele>2359.69</ele>
        <time>2022-03-28T09:50:58Z</time>
      </trkpt>
      <trkpt lat="45.2397" lon="6.03465">
        <ele>2361.14</ele>
        <time>2022-03-28T09:51:14Z</time>
      </trkpt>
      <trkpt lat="45.23966" lon="6.0347">
        <ele>2363.54</ele>
        <time>2022-03-28T09:51:29Z</time>
      </trkpt>
      <trkpt lat="45.23966" lon="6.03471">
        <ele>2363.54</ele>
        <time>2022-03-28T09:51:30Z</time>
      </trkpt>
      <trkpt lat="45.23964" lon="6.0347">
        <ele>2364.02</ele>
        <time>2022-03-28T09:51:35Z</time>
      </trkpt>
      <trkpt lat="45.23964" lon="6.0347">
        <ele>2364.5</ele>
        <time>2022-03-28T09:51:50Z</time>
      </trkpt>
      <trkpt lat="45.23967" lon="6.03473">
        <ele>2365.46</ele>
        <time>2022-03-28T09:52:05Z</time>
      </trkpt>
      <trkpt lat="45.23973" lon="6.03472">
        <ele>2366.42</ele>
        <time>2022-03-28T09:52:15Z</time>
      </trkpt>
      <trkpt lat="45.23975" lon="6.03472">
        <ele>2367.86</ele>
        <time>2022-03-28T09:52:20Z</time>
      </trkpt>
      <trkpt lat="45.23981" lon="6.03469">
        <ele>2369.31</ele>
        <time>2022-03-28T09:52:36Z</time>
      </trkpt>
      <trkpt lat="45.23986" lon="6.03464">
        <ele>2371.71</ele>
        <time>2022-03-28T09:52:52Z</time>
      </trkpt>
      <trkpt lat="45.23993" lon="6.0346">
        <ele>2373.15</ele>
        <time>2022-03-28T09:53:09Z</time>
      </trkpt>
      <trkpt lat="45.23997" lon="6.03456">
        <ele>2375.55</ele>
        <time>2022-03-28T09:53:24Z</time>
      </trkpt>
      <trkpt lat="45.23997" lon="6.03454">
        <ele>2376.52</ele>
        <time>2022-03-28T09:53:29Z</time>
      </trkpt>
      <trkpt lat="45.23996" lon="6.03454">
        <ele>2376.04</ele>
        <time>2022-03-28T09:53:37Z</time>
      </trkpt>
      <trkpt lat="45.23995" lon="6.0346">
        <ele>2377.96</ele>
        <time>2022-03-28T09:53:51Z</time>
      </trkpt>
      <trkpt lat="45.23993" lon="6.03465">
        <ele>2378.92</ele>
        <time>2022-03-28T09:54:05Z</time>
      </trkpt>
      <trkpt lat="45.23993" lon="6.03474">
        <ele>2380.36</ele>
        <time>2022-03-28T09:54:24Z</time>
      </trkpt>
      <trkpt lat="45.23994" lon="6.03479">
        <ele>2383.73</ele>
        <time>2022-03-28T09:54:38Z</time>
      </trkpt>
      <trkpt lat="45.23994" lon="6.03484">
        <ele>2383.73</ele>
        <time>2022-03-28T09:54:59Z</time>
      </trkpt>
      <trkpt lat="45.23999" lon="6.03486">
        <ele>2386.13</ele>
        <time>2022-03-28T09:55:17Z</time>
      </trkpt>
      <trkpt lat="45.24006" lon="6.03484">
        <ele>2387.57</ele>
        <time>2022-03-28T09:55:35Z</time>
      </trkpt>
      <trkpt lat="45.24014" lon="6.0348">
        <ele>2389.49</ele>
        <time>2022-03-28T09:55:52Z</time>
      </trkpt>
      <trkpt lat="45.24021" lon="6.03475">
        <ele>2391.42</ele>
        <time>2022-03-28T09:56:10Z</time>
      </trkpt>
      <trkpt lat="45.24023" lon="6.0347">
        <ele>2390.94</ele>
        <time>2022-03-28T09:56:19Z</time>
      </trkpt>
      <trkpt lat="45.24026" lon="6.03467">
        <ele>2394.3</ele>
        <time>2022-03-28T09:56:27Z</time>
      </trkpt>
      <trkpt lat="45.24027" lon="6.03467">
        <ele>2394.3</ele>
        <time>2022-03-28T09:56:28Z</time>
      </trkpt>
      <trkpt lat="45.24031" lon="6.0346">
        <ele>2395.74</ele>
        <time>2022-03-28T09:56:45Z</time>
      </trkpt>
      <trkpt lat="45.24035" lon="6.03449">
        <ele>2398.15</ele>
        <time>2022-03-28T09:57:03Z</time>
      </trkpt>
      <trkpt lat="45.24041" lon="6.03442">
        <ele>2400.07</ele>
        <time>2022-03-28T09:57:21Z</time>
      </trkpt>
      <trkpt lat="45.24047" lon="6.03436">
        <ele>2402.47</ele>
        <time>2022-03-28T09:57:39Z</time>
      </trkpt>
      <trkpt lat="45.24046" lon="6.03435">
        <ele>2401.03</ele>
        <time>2022-03-28T09:57:42Z</time>
      </trkpt>
      <trkpt lat="45.24043" lon="6.03432">
        <ele>2401.99</ele>
        <time>2022-03-28T09:57:53Z</time>
      </trkpt>
      <trkpt lat="45.24042" lon="6.03438">
        <ele>2402.95</ele>
        <time>2022-03-28T09:58:10Z</time>
      </trkpt>
      <trkpt lat="45.24044" lon="6.03444">
        <ele>2405.84</ele>
        <time>2022-03-28T09:58:18Z</time>
      </trkpt>
      <trkpt lat="45.24044" lon="6.03455">
        <ele>2406.32</ele>
        <time>2022-03-28T09:58:36Z</time>
      </trkpt>
      <trkpt lat="45.24045" lon="6.03462">
        <ele>2408.72</ele>
        <time>2022-03-28T09:58:46Z</time>
      </trkpt>
      <trkpt lat="45.24043" lon="6.03467">
        <ele>2409.68</ele>
        <time>2022-03-28T09:58:57Z</time>
      </trkpt>
      <trkpt lat="45.24043" lon="6.03472">
        <ele>2410.64</ele>
        <time>2022-03-28T09:59:05Z</time>
      </trkpt>
      <trkpt lat="45.24041" lon="6.03476">
        <ele>2411.6</ele>
        <time>2022-03-28T09:59:17Z</time>
      </trkpt>
      <trkpt lat="45.24039" lon="6.0348">
        <ele>2412.57</ele>
        <time>2022-03-28T09:59:25Z</time>
      </trkpt>
      <trkpt lat="45.24038" lon="6.03484">
        <ele>2413.05</ele>
        <time>2022-03-28T09:59:38Z</time>
      </trkpt>
      <trkpt lat="45.2404" lon="6.03485">
        <ele>2414.97</ele>
        <time>2022-03-28T09:59:51Z</time>
      </trkpt>
      <trkpt lat="45.24044" lon="6.03481">
        <ele>2415.45</ele>
        <time>2022-03-28T10:00:05Z</time>
      </trkpt>
      <trkpt lat="45.2405" lon="6.03475">
        <ele>2416.41</ele>
        <time>2022-03-28T10:00:21Z</time>
      </trkpt>
      <trkpt lat="45.2405" lon="6.03475">
        <ele>2417.85</ele>
        <time>2022-03-28T10:00:23Z</time>
      </trkpt>
      <trkpt lat="45.24055" lon="6.03465">
        <ele>2419.78</ele>
        <time>2022-03-28T10:00:43Z</time>
      </trkpt>
      <trkpt lat="45.24061" lon="6.03453">
        <ele>2423.14</ele>
        <time>2022-03-28T10:01:04Z</time>
      </trkpt>
      <trkpt lat="45.24061" lon="6.03452">
        <ele>2423.14</ele>
        <time>2022-03-28T10:01:05Z</time>
      </trkpt>
      <trkpt lat="45.24063" lon="6.03451">
        <ele>2424.58</ele>
        <time>2022-03-28T10:01:22Z</time>
      </trkpt>
      <trkpt lat="45.24064" lon="6.03459">
        <ele>2427.47</ele>
        <time>2022-03-28T10:01:40Z</time>
      </trkpt>
      <trkpt lat="45.24064" lon="6.0346">
        <ele>2427.47</ele>
        <time>2022-03-28T10:01:41Z</time>
      </trkpt>
      <trkpt lat="45.24061" lon="6.03463">
        <ele>2428.43</ele>
        <time>2022-03-28T10:01:49Z</time>
      </trkpt>
      <trkpt lat="45.24062" lon="6.03475">
        <ele>2430.83</ele>
        <time>2022-03-28T10:02:06Z</time>
      </trkpt>
      <trkpt lat="45.24062" lon="6.03476">
        <ele>2430.83</ele>
        <time>2022-03-28T10:02:07Z</time>
      </trkpt>
      <trkpt lat="45.24062" lon="6.03477">
        <ele>2430.83</ele>
        <time>2022-03-28T10:02:10Z</time>
      </trkpt>
      <trkpt lat="45.24059" lon="6.03482">
        <ele>2432.75</ele>
        <time>2022-03-28T10:02:23Z</time>
      </trkpt>
      <trkpt lat="45.24059" lon="6.03491">
        <ele>2433.23</ele>
        <time>2022-03-28T10:02:41Z</time>
      </trkpt>
      <trkpt lat="45.2406" lon="6.03496">
        <ele>2436.12</ele>
        <time>2022-03-28T10:03:00Z</time>
      </trkpt>
      <trkpt lat="45.24067" lon="6.03491">
        <ele>2439.48</ele>
        <time>2022-03-28T10:03:18Z</time>
      </trkpt>
      <trkpt lat="45.24072" lon="6.03489">
        <ele>2440.44</ele>
        <time>2022-03-28T10:03:29Z</time>
      </trkpt>
      <trkpt lat="45.24077" lon="6.03487">
        <ele>2440.44</ele>
        <time>2022-03-28T10:03:39Z</time>
      </trkpt>
      <trkpt lat="45.2408" lon="6.03487">
        <ele>2442.85</ele>
        <time>2022-03-28T10:03:44Z</time>
      </trkpt>
      <trkpt lat="45.24086" lon="6.03482">
        <ele>2443.33</ele>
        <time>2022-03-28T10:04:05Z</time>
      </trkpt>
      <trkpt lat="45.24088" lon="6.03474">
        <ele>2446.21</ele>
        <time>2022-03-28T10:04:15Z</time>
      </trkpt>
      <trkpt lat="45.24091" lon="6.03461">
        <ele>2447.17</ele>
        <time>2022-03-28T10:04:33Z</time>
      </trkpt>
      <trkpt lat="45.24094" lon="6.03449">
        <ele>2449.1</ele>
        <time>2022-03-28T10:04:50Z</time>
      </trkpt>
      <trkpt lat="45.24099" lon="6.03436">
        <ele>2451.98</ele>
        <time>2022-03-28T10:05:12Z</time>
      </trkpt>
      <trkpt lat="45.24104" lon="6.03422">
        <ele>2454.86</ele>
        <time>2022-03-28T10:05:30Z</time>
      </trkpt>
      <trkpt lat="45.2411" lon="6.03423">
        <ele>2457.27</ele>
        <time>2022-03-28T10:05:49Z</time>
      </trkpt>
      <trkpt lat="45.24114" lon="6.03423">
        <ele>2456.79</ele>
        <time>2022-03-28T10:06:05Z</time>
      </trkpt>
      <trkpt lat="45.24115" lon="6.03403">
        <ele>2456.79</ele>
        <time>2022-03-28T10:06:22Z</time>
      </trkpt>
      <trkpt lat="45.24116" lon="6.03386">
        <ele>2455.82</ele>
        <time>2022-03-28T10:06:38Z</time>
      </trkpt>
      <trkpt lat="45.24118" lon="6.03381">
        <ele>2457.75</ele>
        <time>2022-03-28T10:06:43Z</time>
      </trkpt>
      <trkpt lat="45.24121" lon="6.03364">
        <ele>2457.27</ele>
        <time>2022-03-28T10:07:01Z</time>
      </trkpt>
      <trkpt lat="45.24125" lon="6.03352">
        <ele>2457.27</ele>
        <time>2022-03-28T10:07:14Z</time>
      </trkpt>
      <trkpt lat="45.24131" lon="6.03337">
        <ele>2456.79</ele>
        <time>2022-03-28T10:07:32Z</time>
      </trkpt>
      <trkpt lat="45.24133" lon="6.03334">
        <ele>2455.82</ele>
        <time>2022-03-28T10:07:37Z</time>
      </trkpt>
      <trkpt lat="45.24142" lon="6.03324">
        <ele>2456.79</ele>
        <time>2022-03-28T10:07:51Z</time>
      </trkpt>
      <trkpt lat="45.24143" lon="6.03322">
        <ele>2455.82</ele>
        <time>2022-03-28T10:07:54Z</time>
      </trkpt>
      <trkpt lat="45.24149" lon="6.03316">
        <ele>2458.71</ele>
        <time>2022-03-28T10:08:04Z</time>
      </trkpt>
      <trkpt lat="45.24149" lon="6.03316">
        <ele>2455.34</ele>
        <time>2022-03-28T10:08:05Z</time>
      </trkpt>
      <trkpt lat="45.24155" lon="6.03316">
        <ele>2459.19</ele>
        <time>2022-03-28T10:08:15Z</time>
      </trkpt>
      <trkpt lat="45.24156" lon="6.03315">
        <ele>2459.67</ele>
        <time>2022-03-28T10:08:19Z</time>
      </trkpt>
      <trkpt lat="45.24157" lon="6.03315">
        <ele>2458.23</ele>
        <time>2022-03-28T10:08:38Z</time>
      </trkpt>
      <trkpt lat="45.24158" lon="6.03313">
        <ele>2459.67</ele>
        <time>2022-03-28T10:08:49Z</time>
      </trkpt>
      <trkpt lat="45.24156" lon="6.03309">
        <ele>2461.59</ele>
        <time>2022-03-28T10:09:06Z</time>
      </trkpt>
      <trkpt lat="45.24157" lon="6.03306">
        <ele>2464</ele>
        <time>2022-03-28T10:09:17Z</time>
      </trkpt>
      <trkpt lat="45.24157" lon="6.03305">
        <ele>2462.55</ele>
        <time>2022-03-28T10:09:20Z</time>
      </trkpt>
      <trkpt lat="45.24158" lon="6.03304">
        <ele>2465.92</ele>
        <time>2022-03-28T10:09:34Z</time>
      </trkpt>
      <trkpt lat="45.2416" lon="6.033">
        <ele>2465.92</ele>
        <time>2022-03-28T10:09:49Z</time>
      </trkpt>
      <trkpt lat="45.24158" lon="6.03296">
        <ele>2468.8</ele>
        <time>2022-03-28T10:09:56Z</time>
      </trkpt>
      <trkpt lat="45.24157" lon="6.03295">
        <ele>2465.44</ele>
        <time>2022-03-28T10:09:58Z</time>
      </trkpt>
      <trkpt lat="45.24157" lon="6.03295">
        <ele>2469.76</ele>
        <time>2022-03-28T10:09:59Z</time>
      </trkpt>
      <trkpt lat="45.24159" lon="6.03293">
        <ele>2467.84</ele>
        <time>2022-03-28T10:10:06Z</time>
      </trkpt>
      <trkpt lat="45.24159" lon="6.03292">
        <ele>2467.36</ele>
        <time>2022-03-28T10:10:21Z</time>
      </trkpt>
      <trkpt lat="45.24159" lon="6.03293">
        <ele>2462.55</ele>
        <time>2022-03-28T10:10:36Z</time>
      </trkpt>
      <trkpt lat="45.24159" lon="6.03293">
        <ele>2466.88</ele>
        <time>2022-03-28T10:10:37Z</time>
      </trkpt>
      <trkpt lat="45.24159" lon="6.03292">
        <ele>2467.36</ele>
        <time>2022-03-28T10:11:16Z</time>
      </trkpt>
      <trkpt lat="45.24159" lon="6.03292">
        <ele>2467.36</ele>
        <time>2022-03-28T10:11:52Z</time>
      </trkpt>
      <trkpt lat="45.24159" lon="6.03293">
        <ele>2467.84</ele>
        <time>2022-03-28T10:12:45Z</time>
      </trkpt>
      <trkpt lat="45.24159" lon="6.03292">
        <ele>2467.84</ele>
        <time>2022-03-28T10:13:39Z</time>
      </trkpt>
      <trkpt lat="45.24158" lon="6.03293">
        <ele>2468.32</ele>
        <time>2022-03-28T10:14:23Z</time>
      </trkpt>
      <trkpt lat="45.24159" lon="6.03293">
        <ele>2468.32</ele>
        <time>2022-03-28T10:14:53Z</time>
      </trkpt>
      <trkpt lat="45.24159" lon="6.03293">
        <ele>2468.32</ele>
        <time>2022-03-28T10:15:36Z</time>
      </trkpt>
      <trkpt lat="45.24159" lon="6.03293">
        <ele>2468.8</ele>
        <time>2022-03-28T10:16:17Z</time>
      </trkpt>
      <trkpt lat="45.24158" lon="6.03293">
        <ele>2468.8</ele>
        <time>2022-03-28T10:16:45Z</time>
      </trkpt>
      <trkpt lat="45.24159" lon="6.03293">
        <ele>2468.8</ele>
        <time>2022-03-28T10:17:25Z</time>
      </trkpt>
      <trkpt lat="45.24159" lon="6.03293">
        <ele>2468.8</ele>
        <time>2022-03-28T10:18:10Z</time>
      </trkpt>
      <trkpt lat="45.24158" lon="6.03293">
        <ele>2469.28</ele>
        <time>2022-03-28T10:18:42Z</time>
      </trkpt>
      <trkpt lat="45.24159" lon="6.03292">
        <ele>2470.73</ele>
        <time>2022-03-28T10:19:17Z</time>
      </trkpt>
      <trkpt lat="45.24158" lon="6.03294">
        <ele>2471.21</ele>
        <time>2022-03-28T10:19:33Z</time>
      </trkpt>
      <trkpt lat="45.24158" lon="6.033">
        <ele>2469.76</ele>
        <time>2022-03-28T10:19:46Z</time>
      </trkpt>
      <trkpt lat="45.24159" lon="6.03304">
        <ele>2467.84</ele>
        <time>2022-03-28T10:19:59Z</time>
      </trkpt>
      <trkpt lat="45.24159" lon="6.03308">
        <ele>2466.4</ele>
        <time>2022-03-28T10:20:12Z</time>
      </trkpt>
      <trkpt lat="45.24159" lon="6.0331">
        <ele>2465.44</ele>
        <time>2022-03-28T10:20:27Z</time>
      </trkpt>
      <trkpt lat="45.24156" lon="6.03309">
        <ele>2464</ele>
        <time>2022-03-28T10:20:40Z</time>
      </trkpt>
      <trkpt lat="45.24157" lon="6.03312">
        <ele>2463.04</ele>
        <time>2022-03-28T10:20:56Z</time>
      </trkpt>
      <trkpt lat="45.24158" lon="6.03313">
        <ele>2461.59</ele>
        <time>2022-03-28T10:21:02Z</time>
      </trkpt>
      <trkpt lat="45.24158" lon="6.03313">
        <ele>2462.55</ele>
        <time>2022-03-28T10:21:34Z</time>
      </trkpt>
      <trkpt lat="45.24159" lon="6.03314">
        <ele>2465.44</ele>
        <time>2022-03-28T10:21:55Z</time>
      </trkpt>
      <trkpt lat="45.24159" lon="6.03316">
        <ele>2463.04</ele>
        <time>2022-03-28T10:22:35Z</time>
      </trkpt>
      <trkpt lat="45.24159" lon="6.03315">
        <ele>2463.04</ele>
        <time>2022-03-28T10:23:21Z</time>
      </trkpt>
      <trkpt lat="45.24158" lon="6.03317">
        <ele>2463.04</ele>
        <time>2022-03-28T10:23:55Z</time>
      </trkpt>
      <trkpt lat="45.24159" lon="6.03315">
        <ele>2463.04</ele>
        <time>2022-03-28T10:24:32Z</time>
      </trkpt>
      <trkpt lat="45.24159" lon="6.03315">
        <ele>2463.04</ele>
        <time>2022-03-28T10:25:05Z</time>
      </trkpt>
      <trkpt lat="45.24159" lon="6.03315">
        <ele>2463.52</ele>
        <time>2022-03-28T10:25:34Z</time>
      </trkpt>
      <trkpt lat="45.24159" lon="6.03315">
        <ele>2463.52</ele>
        <time>2022-03-28T10:25:58Z</time>
      </trkpt>
      <trkpt lat="45.24159" lon="6.03314">
        <ele>2463.52</ele>
        <time>2022-03-28T10:26:31Z</time>
      </trkpt>
      <trkpt lat="45.24159" lon="6.03315">
        <ele>2463.04</ele>
        <time>2022-03-28T10:27:02Z</time>
      </trkpt>
      <trkpt lat="45.24159" lon="6.03314">
        <ele>2463.04</ele>
        <time>2022-03-28T10:27:31Z</time>
      </trkpt>
      <trkpt lat="45.24159" lon="6.03315">
        <ele>2463.04</ele>
        <time>2022-03-28T10:28:06Z</time>
      </trkpt>
      <trkpt lat="45.2416" lon="6.03314">
        <ele>2463.04</ele>
        <time>2022-03-28T10:28:42Z</time>
      </trkpt>
      <trkpt lat="45.2416" lon="6.03314">
        <ele>2463.04</ele>
        <time>2022-03-28T10:29:10Z</time>
      </trkpt>
      <trkpt lat="45.24159" lon="6.03315">
        <ele>2463.04</ele>
        <time>2022-03-28T10:29:37Z</time>
      </trkpt>
      <trkpt lat="45.24159" lon="6.03314">
        <ele>2463.04</ele>
        <time>2022-03-28T10:30:14Z</time>
      </trkpt>
      <trkpt lat="45.24158" lon="6.03314">
        <ele>2463.04</ele>
        <time>2022-03-28T10:30:45Z</time>
      </trkpt>
      <trkpt lat="45.24158" lon="6.03314">
        <ele>2464.96</ele>
        <time>2022-03-28T10:31:10Z</time>
      </trkpt>
      <trkpt lat="45.24159" lon="6.03314">
        <ele>2464.96</ele>
        <time>2022-03-28T10:31:41Z</time>
      </trkpt>
      <trkpt lat="45.24159" lon="6.03314">
        <ele>2464.96</ele>
        <time>2022-03-28T10:32:03Z</time>
      </trkpt>
      <trkpt lat="45.2416" lon="6.03314">
        <ele>2464.96</ele>
        <time>2022-03-28T10:32:29Z</time>
      </trkpt>
      <trkpt lat="45.24159" lon="6.03315">
        <ele>2464.48</ele>
        <time>2022-03-28T10:32:33Z</time>
      </trkpt>
      <trkpt lat="45.24159" lon="6.03315">
        <ele>2461.59</ele>
        <time>2022-03-28T10:32:35Z</time>
      </trkpt>
      <trkpt lat="45.24159" lon="6.03315">
        <ele>2464.48</ele>
        <time>2022-03-28T10:32:36Z</time>
      </trkpt>
      <trkpt lat="45.24158" lon="6.03315">
        <ele>2463.52</ele>
        <time>2022-03-28T10:33:09Z</time>
      </trkpt>
      <trkpt lat="45.24159" lon="6.03314">
        <ele>2463.52</ele>
        <time>2022-03-28T10:33:43Z</time>
      </trkpt>
      <trkpt lat="45.2416" lon="6.03315">
        <ele>2463.52</ele>
        <time>2022-03-28T10:34:15Z</time>
      </trkpt>
      <trkpt lat="45.24159" lon="6.03314">
        <ele>2463.52</ele>
        <time>2022-03-28T10:34:53Z</time>
      </trkpt>
      <trkpt lat="45.2416" lon="6.03313">
        <ele>2463.52</ele>
        <time>2022-03-28T10:35:20Z</time>
      </trkpt>
      <trkpt lat="45.24158" lon="6.03314">
        <ele>2464</ele>
        <time>2022-03-28T10:35:53Z</time>
      </trkpt>
      <trkpt lat="45.24158" lon="6.03315">
        <ele>2464</ele>
        <time>2022-03-28T10:36:29Z</time>
      </trkpt>
      <trkpt lat="45.24156" lon="6.03316">
        <ele>2464</ele>
        <time>2022-03-28T10:37:10Z</time>
      </trkpt>
      <trkpt lat="45.24159" lon="6.03316">
        <ele>2464.96</ele>
        <time>2022-03-28T10:37:51Z</time>
      </trkpt>
      <trkpt lat="45.2416" lon="6.03316">
        <ele>2465.44</ele>
        <time>2022-03-28T10:38:09Z</time>
      </trkpt>
      <trkpt lat="45.24158" lon="6.03315">
        <ele>2466.4</ele>
        <time>2022-03-28T10:38:32Z</time>
      </trkpt>
      <trkpt lat="45.24158" lon="6.03315">
        <ele>2465.44</ele>
        <time>2022-03-28T10:38:46Z</time>
      </trkpt>
      <trkpt lat="45.24157" lon="6.03316">
        <ele>2466.4</ele>
        <time>2022-03-28T10:39:07Z</time>
      </trkpt>
      <trkpt lat="45.24158" lon="6.03315">
        <ele>2464.96</ele>
        <time>2022-03-28T10:39:19Z</time>
      </trkpt>
      <trkpt lat="45.24158" lon="6.03315">
        <ele>2466.4</ele>
        <time>2022-03-28T10:39:26Z</time>
      </trkpt>
      <trkpt lat="45.24157" lon="6.03315">
        <ele>2464.96</ele>
        <time>2022-03-28T10:39:28Z</time>
      </trkpt>
      <trkpt lat="45.24153" lon="6.03315">
        <ele>2466.4</ele>
        <time>2022-03-28T10:39:30Z</time>
      </trkpt>
      <trkpt lat="45.2415" lon="6.03315">
        <ele>2464</ele>
        <time>2022-03-28T10:39:31Z</time>
      </trkpt>
      <trkpt lat="45.24147" lon="6.03314">
        <ele>2464</ele>
        <time>2022-03-28T10:39:32Z</time>
      </trkpt>
      <trkpt lat="45.2414" lon="6.03309">
        <ele>2464</ele>
        <time>2022-03-28T10:39:40Z</time>
      </trkpt>
      <trkpt lat="45.24137" lon="6.0331">
        <ele>2462.07</ele>
        <time>2022-03-28T10:39:56Z</time>
      </trkpt>
      <trkpt lat="45.24136" lon="6.03312">
        <ele>2463.04</ele>
        <time>2022-03-28T10:40:12Z</time>
      </trkpt>
      <trkpt lat="45.24136" lon="6.03309">
        <ele>2464.48</ele>
        <time>2022-03-28T10:40:19Z</time>
      </trkpt>
      <trkpt lat="45.24136" lon="6.0331">
        <ele>2463.04</ele>
        <time>2022-03-28T10:40:21Z</time>
      </trkpt>
      <trkpt lat="45.24134" lon="6.03309">
        <ele>2463.04</ele>
        <time>2022-03-28T10:40:56Z</time>
      </trkpt>
      <trkpt lat="45.24138" lon="6.03309">
        <ele>2463.52</ele>
        <time>2022-03-28T10:41:16Z</time>
      </trkpt>
      <trkpt lat="45.24139" lon="6.03305">
        <ele>2463.52</ele>
        <time>2022-03-28T10:41:18Z</time>
      </trkpt>
      <trkpt lat="45.24139" lon="6.03302">
        <ele>2462.07</ele>
        <time>2022-03-28T10:41:19Z</time>
      </trkpt>
      <trkpt lat="45.24137" lon="6.03301">
        <ele>2461.59</ele>
        <time>2022-03-28T10:41:20Z</time>
      </trkpt>
      <trkpt lat="45.24134" lon="6.03301">
        <ele>2459.67</ele>
        <time>2022-03-28T10:41:21Z</time>
      </trkpt>
      <trkpt lat="45.24131" lon="6.033">
        <ele>2458.23</ele>
        <time>2022-03-28T10:41:22Z</time>
      </trkpt>
      <trkpt lat="45.2413" lon="6.03297">
        <ele>2459.67</ele>
        <time>2022-03-28T10:41:23Z</time>
      </trkpt>
      <trkpt lat="45.24129" lon="6.03294">
        <ele>2457.27</ele>
        <time>2022-03-28T10:41:24Z</time>
      </trkpt>
      <trkpt lat="45.24129" lon="6.03293">
        <ele>2456.79</ele>
        <time>2022-03-28T10:41:26Z</time>
      </trkpt>
      <trkpt lat="45.2413" lon="6.03292">
        <ele>2456.79</ele>
        <time>2022-03-28T10:41:37Z</time>
      </trkpt>
      <trkpt lat="45.24128" lon="6.0329">
        <ele>2456.79</ele>
        <time>2022-03-28T10:41:38Z</time>
      </trkpt>
      <trkpt lat="45.24125" lon="6.0329">
        <ele>2454.86</ele>
        <time>2022-03-28T10:41:39Z</time>
      </trkpt>
      <trkpt lat="45.24123" lon="6.03287">
        <ele>2458.23</ele>
        <time>2022-03-28T10:41:40Z</time>
      </trkpt>
      <trkpt lat="45.24121" lon="6.03283">
        <ele>2454.38</ele>
        <time>2022-03-28T10:41:41Z</time>
      </trkpt>
      <trkpt lat="45.24119" lon="6.03281">
        <ele>2454.38</ele>
        <time>2022-03-28T10:41:42Z</time>
      </trkpt>
      <trkpt lat="45.24115" lon="6.03282">
        <ele>2451.98</ele>
        <time>2022-03-28T10:41:43Z</time>
      </trkpt>
      <trkpt lat="45.24109" lon="6.03271">
        <ele>2451.02</ele>
        <time>2022-03-28T10:41:50Z</time>
      </trkpt>
      <trkpt lat="45.2411" lon="6.03268">
        <ele>2447.17</ele>
        <time>2022-03-28T10:41:51Z</time>
      </trkpt>
      <trkpt lat="45.24111" lon="6.03264">
        <ele>2447.17</ele>
        <time>2022-03-28T10:41:52Z</time>
      </trkpt>
      <trkpt lat="45.24112" lon="6.03259">
        <ele>2446.69</ele>
        <time>2022-03-28T10:41:53Z</time>
      </trkpt>
      <trkpt lat="45.24111" lon="6.03255">
        <ele>2444.77</ele>
        <time>2022-03-28T10:41:54Z</time>
      </trkpt>
      <trkpt lat="45.241" lon="6.03245">
        <ele>2440.92</ele>
        <time>2022-03-28T10:41:59Z</time>
      </trkpt>
      <trkpt lat="45.24094" lon="6.03244">
        <ele>2439.48</ele>
        <time>2022-03-28T10:42:04Z</time>
      </trkpt>
      <trkpt lat="45.24095" lon="6.03238">
        <ele>2439.48</ele>
        <time>2022-03-28T10:42:06Z</time>
      </trkpt>
      <trkpt lat="45.24084" lon="6.03236">
        <ele>2438.04</ele>
        <time>2022-03-28T10:42:10Z</time>
      </trkpt>
      <trkpt lat="45.24082" lon="6.03231">
        <ele>2434.68</ele>
        <time>2022-03-28T10:42:12Z</time>
      </trkpt>
      <trkpt lat="45.24082" lon="6.03226">
        <ele>2433.71</ele>
        <time>2022-03-28T10:42:13Z</time>
      </trkpt>
      <trkpt lat="45.2408" lon="6.03207">
        <ele>2430.35</ele>
        <time>2022-03-28T10:42:17Z</time>
      </trkpt>
      <trkpt lat="45.24074" lon="6.03209">
        <ele>2427.47</ele>
        <time>2022-03-28T10:42:20Z</time>
      </trkpt>
      <trkpt lat="45.24072" lon="6.03214">
        <ele>2427.47</ele>
        <time>2022-03-28T10:42:21Z</time>
      </trkpt>
      <trkpt lat="45.24063" lon="6.03202">
        <ele>2424.58</ele>
        <time>2022-03-28T10:42:27Z</time>
      </trkpt>
      <trkpt lat="45.24042" lon="6.03165">
        <ele>2422.66</ele>
        <time>2022-03-28T10:42:40Z</time>
      </trkpt>
      <trkpt lat="45.24024" lon="6.03146">
        <ele>2419.3</ele>
        <time>2022-03-28T10:42:51Z</time>
      </trkpt>
      <trkpt lat="45.24002" lon="6.03125">
        <ele>2417.85</ele>
        <time>2022-03-28T10:43:08Z</time>
      </trkpt>
      <trkpt lat="45.23998" lon="6.03124">
        <ele>2416.41</ele>
        <time>2022-03-28T10:43:25Z</time>
      </trkpt>
      <trkpt lat="45.23995" lon="6.03121">
        <ele>2414.97</ele>
        <time>2022-03-28T10:43:28Z</time>
      </trkpt>
      <trkpt lat="45.23987" lon="6.0311">
        <ele>2411.12</ele>
        <time>2022-03-28T10:43:33Z</time>
      </trkpt>
      <trkpt lat="45.23986" lon="6.03106">
        <ele>2411.12</ele>
        <time>2022-03-28T10:43:34Z</time>
      </trkpt>
      <trkpt lat="45.23982" lon="6.03092">
        <ele>2409.2</ele>
        <time>2022-03-28T10:43:38Z</time>
      </trkpt>
      <trkpt lat="45.2397" lon="6.0306">
        <ele>2406.32</ele>
        <time>2022-03-28T10:43:50Z</time>
      </trkpt>
      <trkpt lat="45.23969" lon="6.03057">
        <ele>2406.32</ele>
        <time>2022-03-28T10:43:51Z</time>
      </trkpt>
      <trkpt lat="45.23959" lon="6.03031">
        <ele>2404.39</ele>
        <time>2022-03-28T10:44:04Z</time>
      </trkpt>
      <trkpt lat="45.23954" lon="6.03024">
        <ele>2402.95</ele>
        <time>2022-03-28T10:44:18Z</time>
      </trkpt>
      <trkpt lat="45.23954" lon="6.03024">
        <ele>2402.95</ele>
        <time>2022-03-28T10:44:20Z</time>
      </trkpt>
      <trkpt lat="45.2395" lon="6.03028">
        <ele>2401.03</ele>
        <time>2022-03-28T10:44:23Z</time>
      </trkpt>
      <trkpt lat="45.2395" lon="6.03031">
        <ele>2401.03</ele>
        <time>2022-03-28T10:44:24Z</time>
      </trkpt>
      <trkpt lat="45.23946" lon="6.03034">
        <ele>2398.15</ele>
        <time>2022-03-28T10:44:28Z</time>
      </trkpt>
      <trkpt lat="45.23943" lon="6.0303">
        <ele>2397.18</ele>
        <time>2022-03-28T10:44:32Z</time>
      </trkpt>
      <trkpt lat="45.2394" lon="6.03039">
        <ele>2393.82</ele>
        <time>2022-03-28T10:44:36Z</time>
      </trkpt>
      <trkpt lat="45.23932" lon="6.03045">
        <ele>2389.97</ele>
        <time>2022-03-28T10:44:40Z</time>
      </trkpt>
      <trkpt lat="45.23933" lon="6.03062">
        <ele>2383.25</ele>
        <time>2022-03-28T10:44:45Z</time>
      </trkpt>
      <trkpt lat="45.23935" lon="6.03074">
        <ele>2381.32</ele>
        <time>2022-03-28T10:44:52Z</time>
      </trkpt>
      <trkpt lat="45.23934" lon="6.03073">
        <ele>2381.32</ele>
        <time>2022-03-28T10:44:55Z</time>
      </trkpt>
      <trkpt lat="45.23926" lon="6.03071">
        <ele>2377</ele>
        <time>2022-03-28T10:44:59Z</time>
      </trkpt>
      <trkpt lat="45.23925" lon="6.03074">
        <ele>2377.48</ele>
        <time>2022-03-28T10:45:00Z</time>
      </trkpt>
      <trkpt lat="45.23927" lon="6.03081">
        <ele>2374.11</ele>
        <time>2022-03-28T10:45:02Z</time>
      </trkpt>
      <trkpt lat="45.23918" lon="6.03079">
        <ele>2369.79</ele>
        <time>2022-03-28T10:45:06Z</time>
      </trkpt>
      <trkpt lat="45.23917" lon="6.03087">
        <ele>2366.42</ele>
        <time>2022-03-28T10:45:09Z</time>
      </trkpt>
      <trkpt lat="45.23917" lon="6.03092">
        <ele>2365.46</ele>
        <time>2022-03-28T10:45:11Z</time>
      </trkpt>
      <trkpt lat="45.23912" lon="6.03095">
        <ele>2361.14</ele>
        <time>2022-03-28T10:45:13Z</time>
      </trkpt>
      <trkpt lat="45.2391" lon="6.03098">
        <ele>2361.14</ele>
        <time>2022-03-28T10:45:14Z</time>
      </trkpt>
      <trkpt lat="45.23909" lon="6.03103">
        <ele>2357.77</ele>
        <time>2022-03-28T10:45:16Z</time>
      </trkpt>
      <trkpt lat="45.23903" lon="6.03103">
        <ele>2355.85</ele>
        <time>2022-03-28T10:45:18Z</time>
      </trkpt>
      <trkpt lat="45.23903" lon="6.0311">
        <ele>2352</ele>
        <time>2022-03-28T10:45:20Z</time>
      </trkpt>
      <trkpt lat="45.23897" lon="6.03108">
        <ele>2348.64</ele>
        <time>2022-03-28T10:45:24Z</time>
      </trkpt>
      <trkpt lat="45.23886" lon="6.03089">
        <ele>2348.16</ele>
        <time>2022-03-28T10:45:36Z</time>
      </trkpt>
      <trkpt lat="45.23886" lon="6.0309">
        <ele>2348.16</ele>
        <time>2022-03-28T10:45:47Z</time>
      </trkpt>
      <trkpt lat="45.23884" lon="6.031">
        <ele>2345.27</ele>
        <time>2022-03-28T10:45:51Z</time>
      </trkpt>
      <trkpt lat="45.23881" lon="6.03101">
        <ele>2342.39</ele>
        <time>2022-03-28T10:45:55Z</time>
      </trkpt>
      <trkpt lat="45.23878" lon="6.03098">
        <ele>2339.99</ele>
        <time>2022-03-28T10:45:57Z</time>
      </trkpt>
      <trkpt lat="45.23876" lon="6.03108">
        <ele>2337.1</ele>
        <time>2022-03-28T10:46:00Z</time>
      </trkpt>
      <trkpt lat="45.23872" lon="6.03109">
        <ele>2333.74</ele>
        <time>2022-03-28T10:46:04Z</time>
      </trkpt>
      <trkpt lat="45.23867" lon="6.03114">
        <ele>2330.37</ele>
        <time>2022-03-28T10:46:07Z</time>
      </trkpt>
      <trkpt lat="45.23862" lon="6.03111">
        <ele>2325.57</ele>
        <time>2022-03-28T10:46:10Z</time>
      </trkpt>
      <trkpt lat="45.23861" lon="6.03112">
        <ele>2325.57</ele>
        <time>2022-03-28T10:46:11Z</time>
      </trkpt>
      <trkpt lat="45.23855" lon="6.03108">
        <ele>2320.28</ele>
        <time>2022-03-28T10:46:15Z</time>
      </trkpt>
      <trkpt lat="45.23854" lon="6.0311">
        <ele>2320.28</ele>
        <time>2022-03-28T10:46:16Z</time>
      </trkpt>
      <trkpt lat="45.2385" lon="6.03116">
        <ele>2319.8</ele>
        <time>2022-03-28T10:46:28Z</time>
      </trkpt>
      <trkpt lat="45.23851" lon="6.03116">
        <ele>2321.24</ele>
        <time>2022-03-28T10:46:32Z</time>
      </trkpt>
      <trkpt lat="45.23849" lon="6.03107">
        <ele>2317.88</ele>
        <time>2022-03-28T10:46:36Z</time>
      </trkpt>
      <trkpt lat="45.23848" lon="6.03101">
        <ele>2316.91</ele>
        <time>2022-03-28T10:46:38Z</time>
      </trkpt>
      <trkpt lat="45.23844" lon="6.03103">
        <ele>2312.59</ele>
        <time>2022-03-28T10:46:41Z</time>
      </trkpt>
      <trkpt lat="45.2384" lon="6.03099">
        <ele>2308.74</ele>
        <time>2022-03-28T10:46:45Z</time>
      </trkpt>
      <trkpt lat="45.23839" lon="6.03102">
        <ele>2308.26</ele>
        <time>2022-03-28T10:46:46Z</time>
      </trkpt>
      <trkpt lat="45.23838" lon="6.03104">
        <ele>2309.22</ele>
        <time>2022-03-28T10:46:47Z</time>
      </trkpt>
      <trkpt lat="45.23837" lon="6.03101">
        <ele>2305.38</ele>
        <time>2022-03-28T10:46:49Z</time>
      </trkpt>
      <trkpt lat="45.23837" lon="6.03099">
        <ele>2304.42</ele>
        <time>2022-03-28T10:46:50Z</time>
      </trkpt>
      <trkpt lat="45.23835" lon="6.03097">
        <ele>2302.98</ele>
        <time>2022-03-28T10:46:51Z</time>
      </trkpt>
      <trkpt lat="45.23832" lon="6.03106">
        <ele>2301.05</ele>
        <time>2022-03-28T10:46:54Z</time>
      </trkpt>
      <trkpt lat="45.23824" lon="6.03107">
        <ele>2295.28</ele>
        <time>2022-03-28T10:46:58Z</time>
      </trkpt>
      <trkpt lat="45.23823" lon="6.03109">
        <ele>2295.77</ele>
        <time>2022-03-28T10:46:59Z</time>
      </trkpt>
      <trkpt lat="45.2382" lon="6.03107">
        <ele>2292.4</ele>
        <time>2022-03-28T10:47:01Z</time>
      </trkpt>
      <trkpt lat="45.23816" lon="6.03102">
        <ele>2290.96</ele>
        <time>2022-03-28T10:47:03Z</time>
      </trkpt>
      <trkpt lat="45.23809" lon="6.03103">
        <ele>2286.15</ele>
        <time>2022-03-28T10:47:06Z</time>
      </trkpt>
      <trkpt lat="45.23807" lon="6.03099">
        <ele>2283.75</ele>
        <time>2022-03-28T10:47:07Z</time>
      </trkpt>
      <trkpt lat="45.23807" lon="6.03084">
        <ele>2282.79</ele>
        <time>2022-03-28T10:47:12Z</time>
      </trkpt>
      <trkpt lat="45.238" lon="6.03082">
        <ele>2279.9</ele>
        <time>2022-03-28T10:47:16Z</time>
      </trkpt>
      <trkpt lat="45.23796" lon="6.03077">
        <ele>2276.54</ele>
        <time>2022-03-28T10:47:19Z</time>
      </trkpt>
      <trkpt lat="45.23797" lon="6.03075">
        <ele>2275.1</ele>
        <time>2022-03-28T10:47:26Z</time>
      </trkpt>
      <trkpt lat="45.23791" lon="6.03074">
        <ele>2272.69</ele>
        <time>2022-03-28T10:47:30Z</time>
      </trkpt>
      <trkpt lat="45.23789" lon="6.03058">
        <ele>2269.81</ele>
        <time>2022-03-28T10:47:33Z</time>
      </trkpt>
      <trkpt lat="45.23788" lon="6.03038">
        <ele>2268.37</ele>
        <time>2022-03-28T10:47:37Z</time>
      </trkpt>
      <trkpt lat="45.23786" lon="6.03022">
        <ele>2265.96</ele>
        <time>2022-03-28T10:47:40Z</time>
      </trkpt>
      <trkpt lat="45.23783" lon="6.03013">
        <ele>2264.52</ele>
        <time>2022-03-28T10:47:42Z</time>
      </trkpt>
      <trkpt lat="45.23769" lon="6.0298">
        <ele>2264.04</ele>
        <time>2022-03-28T10:47:52Z</time>
      </trkpt>
      <trkpt lat="45.2377" lon="6.02984">
        <ele>2262.12</ele>
        <time>2022-03-28T10:48:11Z</time>
      </trkpt>
      <trkpt lat="45.23771" lon="6.02983">
        <ele>2264.04</ele>
        <time>2022-03-28T10:48:13Z</time>
      </trkpt>
      <trkpt lat="45.2377" lon="6.02983">
        <ele>2264.52</ele>
        <time>2022-03-28T10:48:36Z</time>
      </trkpt>
      <trkpt lat="45.2377" lon="6.02983">
        <ele>2263.08</ele>
        <time>2022-03-28T10:48:38Z</time>
      </trkpt>
      <trkpt lat="45.2377" lon="6.02984">
        <ele>2264.52</ele>
        <time>2022-03-28T10:48:42Z</time>
      </trkpt>
      <trkpt lat="45.23772" lon="6.02984">
        <ele>2264.04</ele>
        <time>2022-03-28T10:49:04Z</time>
      </trkpt>
      <trkpt lat="45.23771" lon="6.02982">
        <ele>2264.04</ele>
        <time>2022-03-28T10:49:16Z</time>
      </trkpt>
      <trkpt lat="45.23768" lon="6.02981">
        <ele>2264.04</ele>
        <time>2022-03-28T10:49:17Z</time>
      </trkpt>
      <trkpt lat="45.23767" lon="6.02982">
        <ele>2261.64</ele>
        <time>2022-03-28T10:49:18Z</time>
      </trkpt>
      <trkpt lat="45.23765" lon="6.02985">
        <ele>2261.64</ele>
        <time>2022-03-28T10:49:19Z</time>
      </trkpt>
      <trkpt lat="45.23764" lon="6.02986">
        <ele>2260.2</ele>
        <time>2022-03-28T10:49:20Z</time>
      </trkpt>
      <trkpt lat="45.2376" lon="6.02984">
        <ele>2258.27</ele>
        <time>2022-03-28T10:49:21Z</time>
      </trkpt>
      <trkpt lat="45.23757" lon="6.02984">
        <ele>2256.83</ele>
        <time>2022-03-28T10:49:22Z</time>
      </trkpt>
      <trkpt lat="45.23756" lon="6.02987">
        <ele>2255.39</ele>
        <time>2022-03-28T10:49:23Z</time>
      </trkpt>
      <trkpt lat="45.23755" lon="6.02991">
        <ele>2256.83</ele>
        <time>2022-03-28T10:49:24Z</time>
      </trkpt>
      <trkpt lat="45.23752" lon="6.02992">
        <ele>2253.95</ele>
        <time>2022-03-28T10:49:25Z</time>
      </trkpt>
      <trkpt lat="45.2375" lon="6.02989">
        <ele>2252.03</ele>
        <time>2022-03-28T10:49:26Z</time>
      </trkpt>
      <trkpt lat="45.23747" lon="6.02984">
        <ele>2250.58</ele>
        <time>2022-03-28T10:49:27Z</time>
      </trkpt>
      <trkpt lat="45.23744" lon="6.02979">
        <ele>2250.1</ele>
        <time>2022-03-28T10:49:28Z</time>
      </trkpt>
      <trkpt lat="45.23742" lon="6.02974">
        <ele>2249.62</ele>
        <time>2022-03-28T10:49:29Z</time>
      </trkpt>
      <trkpt lat="45.23737" lon="6.02966">
        <ele>2248.66</ele>
        <time>2022-03-28T10:49:31Z</time>
      </trkpt>
      <trkpt lat="45.23713" lon="6.02945">
        <ele>2246.74</ele>
        <time>2022-03-28T10:49:40Z</time>
      </trkpt>
      <trkpt lat="45.23707" lon="6.02947">
        <ele>2243.85</ele>
        <time>2022-03-28T10:49:42Z</time>
      </trkpt>
      <trkpt lat="45.23706" lon="6.02958">
        <ele>2240.49</ele>
        <time>2022-03-28T10:49:45Z</time>
      </trkpt>
      <trkpt lat="45.23701" lon="6.02956">
        <ele>2239.53</ele>
        <time>2022-03-28T10:49:46Z</time>
      </trkpt>
      <trkpt lat="45.23674" lon="6.02944">
        <ele>2237.13</ele>
        <time>2022-03-28T10:49:56Z</time>
      </trkpt>
      <trkpt lat="45.23669" lon="6.02943">
        <ele>2234.72</ele>
        <time>2022-03-28T10:50:00Z</time>
      </trkpt>
      <trkpt lat="45.23661" lon="6.02935">
        <ele>2233.28</ele>
        <time>2022-03-28T10:50:02Z</time>
      </trkpt>
      <trkpt lat="45.23656" lon="6.02924">
        <ele>2230.4</ele>
        <time>2022-03-28T10:50:04Z</time>
      </trkpt>
      <trkpt lat="45.23647" lon="6.0289">
        <ele>2227.03</ele>
        <time>2022-03-28T10:50:16Z</time>
      </trkpt>
      <trkpt lat="45.23648" lon="6.02893">
        <ele>2227.51</ele>
        <time>2022-03-28T10:50:26Z</time>
      </trkpt>
      <trkpt lat="45.23648" lon="6.02893">
        <ele>2227.99</ele>
        <time>2022-03-28T10:50:27Z</time>
      </trkpt>
      <trkpt lat="45.23647" lon="6.02899">
        <ele>2224.15</ele>
        <time>2022-03-28T10:50:30Z</time>
      </trkpt>
      <trkpt lat="45.23641" lon="6.02895">
        <ele>2221.26</ele>
        <time>2022-03-28T10:50:33Z</time>
      </trkpt>
      <trkpt lat="45.2364" lon="6.0289">
        <ele>2220.3</ele>
        <time>2022-03-28T10:50:34Z</time>
      </trkpt>
      <trkpt lat="45.23633" lon="6.02856">
        <ele>2215.98</ele>
        <time>2022-03-28T10:50:41Z</time>
      </trkpt>
      <trkpt lat="45.23627" lon="6.02857">
        <ele>2214.05</ele>
        <time>2022-03-28T10:50:44Z</time>
      </trkpt>
      <trkpt lat="45.23624" lon="6.02857">
        <ele>2210.21</ele>
        <time>2022-03-28T10:50:45Z</time>
      </trkpt>
      <trkpt lat="45.23614" lon="6.02847">
        <ele>2208.77</ele>
        <time>2022-03-28T10:50:48Z</time>
      </trkpt>
      <trkpt lat="45.23604" lon="6.02833">
        <ele>2206.84</ele>
        <time>2022-03-28T10:50:51Z</time>
      </trkpt>
      <trkpt lat="45.236" lon="6.02842">
        <ele>2203</ele>
        <time>2022-03-28T10:50:54Z</time>
      </trkpt>
      <trkpt lat="45.23599" lon="6.02846">
        <ele>2202.52</ele>
        <time>2022-03-28T10:50:55Z</time>
      </trkpt>
      <trkpt lat="45.23579" lon="6.02832">
        <ele>2197.71</ele>
        <time>2022-03-28T10:51:00Z</time>
      </trkpt>
      <trkpt lat="45.23574" lon="6.02828">
        <ele>2197.71</ele>
        <time>2022-03-28T10:51:01Z</time>
      </trkpt>
      <trkpt lat="45.23558" lon="6.02821">
        <ele>2196.27</ele>
        <time>2022-03-28T10:51:04Z</time>
      </trkpt>
      <trkpt lat="45.23535" lon="6.02814">
        <ele>2191.94</ele>
        <time>2022-03-28T10:51:09Z</time>
      </trkpt>
      <trkpt lat="45.2353" lon="6.02811">
        <ele>2191.94</ele>
        <time>2022-03-28T10:51:10Z</time>
      </trkpt>
      <trkpt lat="45.23515" lon="6.02803">
        <ele>2190.02</ele>
        <time>2022-03-28T10:51:13Z</time>
      </trkpt>
      <trkpt lat="45.23492" lon="6.02784">
        <ele>2187.14</ele>
        <time>2022-03-28T10:51:20Z</time>
      </trkpt>
      <trkpt lat="45.23488" lon="6.02778">
        <ele>2186.18</ele>
        <time>2022-03-28T10:51:22Z</time>
      </trkpt>
      <trkpt lat="45.23483" lon="6.02766">
        <ele>2184.73</ele>
        <time>2022-03-28T10:51:25Z</time>
      </trkpt>
      <trkpt lat="45.23478" lon="6.02755">
        <ele>2182.33</ele>
        <time>2022-03-28T10:51:27Z</time>
      </trkpt>
      <trkpt lat="45.23461" lon="6.0276">
        <ele>2178.48</ele>
        <time>2022-03-28T10:51:31Z</time>
      </trkpt>
      <trkpt lat="45.2346" lon="6.02776">
        <ele>2176.56</ele>
        <time>2022-03-28T10:51:33Z</time>
      </trkpt>
      <trkpt lat="45.23458" lon="6.02782">
        <ele>2177.52</ele>
        <time>2022-03-28T10:51:35Z</time>
      </trkpt>
      <trkpt lat="45.23444" lon="6.0278">
        <ele>2173.68</ele>
        <time>2022-03-28T10:51:38Z</time>
      </trkpt>
      <trkpt lat="45.23429" lon="6.02777">
        <ele>2170.31</ele>
        <time>2022-03-28T10:51:40Z</time>
      </trkpt>
      <trkpt lat="45.23404" lon="6.02775">
        <ele>2168.39</ele>
        <time>2022-03-28T10:51:43Z</time>
      </trkpt>
      <trkpt lat="45.23378" lon="6.02779">
        <ele>2169.83</ele>
        <time>2022-03-28T10:51:47Z</time>
      </trkpt>
      <trkpt lat="45.23362" lon="6.02784">
        <ele>2169.83</ele>
        <time>2022-03-28T10:51:52Z</time>
      </trkpt>
      <trkpt lat="45.23339" lon="6.02774">
        <ele>2165.51</ele>
        <time>2022-03-28T10:52:03Z</time>
      </trkpt>
      <trkpt lat="45.23335" lon="6.02772">
        <ele>2165.03</ele>
        <time>2022-03-28T10:52:04Z</time>
      </trkpt>
      <trkpt lat="45.23331" lon="6.02769">
        <ele>2164.06</ele>
        <time>2022-03-28T10:52:05Z</time>
      </trkpt>
      <trkpt lat="45.23299" lon="6.02734">
        <ele>2160.22</ele>
        <time>2022-03-28T10:52:18Z</time>
      </trkpt>
      <trkpt lat="45.23287" lon="6.02732">
        <ele>2158.78</ele>
        <time>2022-03-28T10:52:25Z</time>
      </trkpt>
      <trkpt lat="45.23295" lon="6.02738">
        <ele>2159.74</ele>
        <time>2022-03-28T10:52:50Z</time>
      </trkpt>
      <trkpt lat="45.23293" lon="6.02738">
        <ele>2159.74</ele>
        <time>2022-03-28T10:53:06Z</time>
      </trkpt>
      <trkpt lat="45.23287" lon="6.02756">
        <ele>2155.89</ele>
        <time>2022-03-28T10:53:12Z</time>
      </trkpt>
      <trkpt lat="45.2327" lon="6.02771">
        <ele>2153.01</ele>
        <time>2022-03-28T10:53:19Z</time>
      </trkpt>
      <trkpt lat="45.23267" lon="6.02773">
        <ele>2152.53</ele>
        <time>2022-03-28T10:53:20Z</time>
      </trkpt>
      <trkpt lat="45.23262" lon="6.02778">
        <ele>2151.09</ele>
        <time>2022-03-28T10:53:22Z</time>
      </trkpt>
      <trkpt lat="45.23256" lon="6.02783">
        <ele>2149.16</ele>
        <time>2022-03-28T10:53:24Z</time>
      </trkpt>
      <trkpt lat="45.23243" lon="6.028">
        <ele>2148.2</ele>
        <time>2022-03-28T10:53:29Z</time>
      </trkpt>
      <trkpt lat="45.23239" lon="6.02793">
        <ele>2146.28</ele>
        <time>2022-03-28T10:53:31Z</time>
      </trkpt>
      <trkpt lat="45.23229" lon="6.02786">
        <ele>2143.4</ele>
        <time>2022-03-28T10:53:35Z</time>
      </trkpt>
      <trkpt lat="45.23225" lon="6.02779">
        <ele>2138.59</ele>
        <time>2022-03-28T10:53:38Z</time>
      </trkpt>
      <trkpt lat="45.23225" lon="6.02775">
        <ele>2139.07</ele>
        <time>2022-03-28T10:53:39Z</time>
      </trkpt>
      <trkpt lat="45.23217" lon="6.02773">
        <ele>2135.23</ele>
        <time>2022-03-28T10:53:41Z</time>
      </trkpt>
      <trkpt lat="45.23211" lon="6.02777">
        <ele>2133.3</ele>
        <time>2022-03-28T10:53:43Z</time>
      </trkpt>
      <trkpt lat="45.23208" lon="6.02778">
        <ele>2131.38</ele>
        <time>2022-03-28T10:53:44Z</time>
      </trkpt>
      <trkpt lat="45.23206" lon="6.02779">
        <ele>2128.5</ele>
        <time>2022-03-28T10:53:45Z</time>
      </trkpt>
      <trkpt lat="45.23205" lon="6.0278">
        <ele>2127.53</ele>
        <time>2022-03-28T10:53:46Z</time>
      </trkpt>
      <trkpt lat="45.2321" lon="6.02774">
        <ele>2126.57</ele>
        <time>2022-03-28T10:53:48Z</time>
      </trkpt>
      <trkpt lat="45.2321" lon="6.0277">
        <ele>2125.61</ele>
        <time>2022-03-28T10:53:49Z</time>
      </trkpt>
      <trkpt lat="45.23209" lon="6.02767">
        <ele>2123.69</ele>
        <time>2022-03-28T10:53:50Z</time>
      </trkpt>
      <trkpt lat="45.23207" lon="6.02762">
        <ele>2123.21</ele>
        <time>2022-03-28T10:53:57Z</time>
      </trkpt>
      <trkpt lat="45.23207" lon="6.02762">
        <ele>2121.77</ele>
        <time>2022-03-28T10:54:01Z</time>
      </trkpt>
      <trkpt lat="45.23205" lon="6.02762">
        <ele>2120.81</ele>
        <time>2022-03-28T10:54:10Z</time>
      </trkpt>
      <trkpt lat="45.232" lon="6.02766">
        <ele>2121.29</ele>
        <time>2022-03-28T10:54:14Z</time>
      </trkpt>
      <trkpt lat="45.23198" lon="6.02756">
        <ele>2117.92</ele>
        <time>2022-03-28T10:54:17Z</time>
      </trkpt>
      <trkpt lat="45.23199" lon="6.02744">
        <ele>2116.48</ele>
        <time>2022-03-28T10:54:19Z</time>
      </trkpt>
      <trkpt lat="45.23189" lon="6.02738">
        <ele>2111.67</ele>
        <time>2022-03-28T10:54:22Z</time>
      </trkpt>
      <trkpt lat="45.23186" lon="6.02732">
        <ele>2108.31</ele>
        <time>2022-03-28T10:54:23Z</time>
      </trkpt>
      <trkpt lat="45.23179" lon="6.02728">
        <ele>2103.98</ele>
        <time>2022-03-28T10:54:25Z</time>
      </trkpt>
      <trkpt lat="45.23175" lon="6.02729">
        <ele>2103.98</ele>
        <time>2022-03-28T10:54:26Z</time>
      </trkpt>
      <trkpt lat="45.2317" lon="6.02726">
        <ele>2100.62</ele>
        <time>2022-03-28T10:54:28Z</time>
      </trkpt>
      <trkpt lat="45.23156" lon="6.02731">
        <ele>2096.29</ele>
        <time>2022-03-28T10:54:32Z</time>
      </trkpt>
      <trkpt lat="45.23151" lon="6.02736">
        <ele>2094.85</ele>
        <time>2022-03-28T10:54:34Z</time>
      </trkpt>
      <trkpt lat="45.23149" lon="6.02738">
        <ele>2096.29</ele>
        <time>2022-03-28T10:54:35Z</time>
      </trkpt>
      <trkpt lat="45.23147" lon="6.02743">
        <ele>2090.52</ele>
        <time>2022-03-28T10:54:47Z</time>
      </trkpt>
      <trkpt lat="45.23147" lon="6.02743">
        <ele>2102.06</ele>
        <time>2022-03-28T10:54:48Z</time>
      </trkpt>
      <trkpt lat="45.23147" lon="6.02744">
        <ele>2096.29</ele>
        <time>2022-03-28T10:54:49Z</time>
      </trkpt>
      <trkpt lat="45.23147" lon="6.02745">
        <ele>2092.93</ele>
        <time>2022-03-28T10:54:50Z</time>
      </trkpt>
      <trkpt lat="45.23148" lon="6.02746">
        <ele>2098.7</ele>
        <time>2022-03-28T10:54:51Z</time>
      </trkpt>
      <trkpt lat="45.23149" lon="6.02749">
        <ele>2096.29</ele>
        <time>2022-03-28T10:54:56Z</time>
      </trkpt>
      <trkpt lat="45.23149" lon="6.02749">
        <ele>2096.77</ele>
        <time>2022-03-28T10:55:16Z</time>
      </trkpt>
      <trkpt lat="45.23148" lon="6.02747">
        <ele>2096.29</ele>
        <time>2022-03-28T10:55:44Z</time>
      </trkpt>
      <trkpt lat="45.23149" lon="6.02747">
        <ele>2096.29</ele>
        <time>2022-03-28T10:55:48Z</time>
      </trkpt>
      <trkpt lat="45.23147" lon="6.02747">
        <ele>2094.85</ele>
        <time>2022-03-28T10:55:50Z</time>
      </trkpt>
      <trkpt lat="45.23144" lon="6.02744">
        <ele>2093.89</ele>
        <time>2022-03-28T10:55:52Z</time>
      </trkpt>
      <trkpt lat="45.2314" lon="6.02736">
        <ele>2090.52</ele>
        <time>2022-03-28T10:55:55Z</time>
      </trkpt>
      <trkpt lat="45.23133" lon="6.02736">
        <ele>2087.16</ele>
        <time>2022-03-28T10:55:59Z</time>
      </trkpt>
      <trkpt lat="45.23132" lon="6.02725">
        <ele>2082.83</ele>
        <time>2022-03-28T10:56:02Z</time>
      </trkpt>
      <trkpt lat="45.23125" lon="6.02723">
        <ele>2079.47</ele>
        <time>2022-03-28T10:56:05Z</time>
      </trkpt>
      <trkpt lat="45.2312" lon="6.02715">
        <ele>2076.1</ele>
        <time>2022-03-28T10:56:08Z</time>
      </trkpt>
      <trkpt lat="45.23114" lon="6.02721">
        <ele>2071.3</ele>
        <time>2022-03-28T10:56:10Z</time>
      </trkpt>
      <trkpt lat="45.2311" lon="6.02727">
        <ele>2072.26</ele>
        <time>2022-03-28T10:56:12Z</time>
      </trkpt>
      <trkpt lat="45.23108" lon="6.02723">
        <ele>2069.38</ele>
        <time>2022-03-28T10:56:14Z</time>
      </trkpt>
      <trkpt lat="45.23107" lon="6.02719">
        <ele>2068.41</ele>
        <time>2022-03-28T10:56:15Z</time>
      </trkpt>
      <trkpt lat="45.23104" lon="6.02718">
        <ele>2066.01</ele>
        <time>2022-03-28T10:56:16Z</time>
      </trkpt>
      <trkpt lat="45.23101" lon="6.02719">
        <ele>2066.01</ele>
        <time>2022-03-28T10:56:17Z</time>
      </trkpt>
      <trkpt lat="45.23099" lon="6.0272">
        <ele>2064.57</ele>
        <time>2022-03-28T10:56:18Z</time>
      </trkpt>
      <trkpt lat="45.23097" lon="6.02719">
        <ele>2062.65</ele>
        <time>2022-03-28T10:56:19Z</time>
      </trkpt>
      <trkpt lat="45.23096" lon="6.02711">
        <ele>2060.24</ele>
        <time>2022-03-28T10:56:20Z</time>
      </trkpt>
      <trkpt lat="45.23095" lon="6.02705">
        <ele>2059.76</ele>
        <time>2022-03-28T10:56:21Z</time>
      </trkpt>
      <trkpt lat="45.23093" lon="6.02701">
        <ele>2057.36</ele>
        <time>2022-03-28T10:56:22Z</time>
      </trkpt>
      <trkpt lat="45.23089" lon="6.02704">
        <ele>2055.92</ele>
        <time>2022-03-28T10:56:23Z</time>
      </trkpt>
      <trkpt lat="45.23087" lon="6.02708">
        <ele>2055.44</ele>
        <time>2022-03-28T10:56:24Z</time>
      </trkpt>
      <trkpt lat="45.23084" lon="6.0271">
        <ele>2055.44</ele>
        <time>2022-03-28T10:56:25Z</time>
      </trkpt>
      <trkpt lat="45.23083" lon="6.02709">
        <ele>2053.99</ele>
        <time>2022-03-28T10:56:26Z</time>
      </trkpt>
      <trkpt lat="45.23082" lon="6.02705">
        <ele>2051.59</ele>
        <time>2022-03-28T10:56:27Z</time>
      </trkpt>
      <trkpt lat="45.2308" lon="6.02701">
        <ele>2051.11</ele>
        <time>2022-03-28T10:56:28Z</time>
      </trkpt>
      <trkpt lat="45.23077" lon="6.02699">
        <ele>2049.19</ele>
        <time>2022-03-28T10:56:29Z</time>
      </trkpt>
      <trkpt lat="45.23074" lon="6.02705">
        <ele>2047.26</ele>
        <time>2022-03-28T10:56:30Z</time>
      </trkpt>
      <trkpt lat="45.23071" lon="6.02709">
        <ele>2047.26</ele>
        <time>2022-03-28T10:56:31Z</time>
      </trkpt>
      <trkpt lat="45.23068" lon="6.02709">
        <ele>2047.26</ele>
        <time>2022-03-28T10:56:32Z</time>
      </trkpt>
      <trkpt lat="45.23066" lon="6.02706">
        <ele>2042.94</ele>
        <time>2022-03-28T10:56:33Z</time>
      </trkpt>
      <trkpt lat="45.23063" lon="6.02704">
        <ele>2041.98</ele>
        <time>2022-03-28T10:56:34Z</time>
      </trkpt>
      <trkpt lat="45.23059" lon="6.02705">
        <ele>2040.54</ele>
        <time>2022-03-28T10:56:35Z</time>
      </trkpt>
      <trkpt lat="45.23056" lon="6.02706">
        <ele>2040.54</ele>
        <time>2022-03-28T10:56:36Z</time>
      </trkpt>
      <trkpt lat="45.23048" lon="6.02696">
        <ele>2034.29</ele>
        <time>2022-03-28T10:56:40Z</time>
      </trkpt>
      <trkpt lat="45.23032" lon="6.02722">
        <ele>2032.36</ele>
        <time>2022-03-28T10:56:50Z</time>
      </trkpt>
      <trkpt lat="45.23036" lon="6.02724">
        <ele>2032.84</ele>
        <time>2022-03-28T10:56:55Z</time>
      </trkpt>
      <trkpt lat="45.23036" lon="6.02724">
        <ele>2031.88</ele>
        <time>2022-03-28T10:56:56Z</time>
      </trkpt>
      <trkpt lat="45.23032" lon="6.02728">
        <ele>2032.84</ele>
        <time>2022-03-28T10:57:22Z</time>
      </trkpt>
      <trkpt lat="45.23031" lon="6.02728">
        <ele>2032.84</ele>
        <time>2022-03-28T10:57:23Z</time>
      </trkpt>
      <trkpt lat="45.2303" lon="6.02728">
        <ele>2032.84</ele>
        <time>2022-03-28T10:57:39Z</time>
      </trkpt>
      <trkpt lat="45.2303" lon="6.02727">
        <ele>2032.84</ele>
        <time>2022-03-28T10:57:42Z</time>
      </trkpt>
      <trkpt lat="45.23022" lon="6.02718">
        <ele>2029</ele>
        <time>2022-03-28T10:57:48Z</time>
      </trkpt>
      <trkpt lat="45.23015" lon="6.02719">
        <ele>2024.67</ele>
        <time>2022-03-28T10:57:50Z</time>
      </trkpt>
      <trkpt lat="45.23013" lon="6.0272">
        <ele>2025.15</ele>
        <time>2022-03-28T10:57:51Z</time>
      </trkpt>
      <trkpt lat="45.23012" lon="6.02718">
        <ele>2021.79</ele>
        <time>2022-03-28T10:57:52Z</time>
      </trkpt>
      <trkpt lat="45.23011" lon="6.02714">
        <ele>2020.83</ele>
        <time>2022-03-28T10:57:53Z</time>
      </trkpt>
      <trkpt lat="45.23008" lon="6.02713">
        <ele>2018.91</ele>
        <time>2022-03-28T10:57:54Z</time>
      </trkpt>
      <trkpt lat="45.23004" lon="6.02714">
        <ele>2017.94</ele>
        <time>2022-03-28T10:57:55Z</time>
      </trkpt>
      <trkpt lat="45.23001" lon="6.02714">
        <ele>2017.46</ele>
        <time>2022-03-28T10:57:56Z</time>
      </trkpt>
      <trkpt lat="45.22998" lon="6.02714">
        <ele>2015.06</ele>
        <time>2022-03-28T10:57:57Z</time>
      </trkpt>
      <trkpt lat="45.22997" lon="6.02712">
        <ele>2013.62</ele>
        <time>2022-03-28T10:57:58Z</time>
      </trkpt>
      <trkpt lat="45.22997" lon="6.02708">
        <ele>2012.18</ele>
        <time>2022-03-28T10:57:59Z</time>
      </trkpt>
      <trkpt lat="45.22996" lon="6.02705">
        <ele>2012.18</ele>
        <time>2022-03-28T10:58:00Z</time>
      </trkpt>
      <trkpt lat="45.22989" lon="6.02702">
        <ele>2008.81</ele>
        <time>2022-03-28T10:58:02Z</time>
      </trkpt>
      <trkpt lat="45.22986" lon="6.02706">
        <ele>2007.85</ele>
        <time>2022-03-28T10:58:03Z</time>
      </trkpt>
      <trkpt lat="45.22984" lon="6.02707">
        <ele>2007.85</ele>
        <time>2022-03-28T10:58:04Z</time>
      </trkpt>
      <trkpt lat="45.22983" lon="6.02704">
        <ele>2005.93</ele>
        <time>2022-03-28T10:58:05Z</time>
      </trkpt>
      <trkpt lat="45.22982" lon="6.02701">
        <ele>2005.45</ele>
        <time>2022-03-28T10:58:06Z</time>
      </trkpt>
      <trkpt lat="45.2298" lon="6.027">
        <ele>2003.04</ele>
        <time>2022-03-28T10:58:07Z</time>
      </trkpt>
      <trkpt lat="45.22976" lon="6.02701">
        <ele>2002.56</ele>
        <time>2022-03-28T10:58:09Z</time>
      </trkpt>
      <trkpt lat="45.22974" lon="6.02698">
        <ele>2000.16</ele>
        <time>2022-03-28T10:58:10Z</time>
      </trkpt>
      <trkpt lat="45.22973" lon="6.02696">
        <ele>1999.2</ele>
        <time>2022-03-28T10:58:11Z</time>
      </trkpt>
      <trkpt lat="45.22971" lon="6.02696">
        <ele>1997.76</ele>
        <time>2022-03-28T10:58:12Z</time>
      </trkpt>
      <trkpt lat="45.2297" lon="6.02695">
        <ele>1996.8</ele>
        <time>2022-03-28T10:58:13Z</time>
      </trkpt>
      <trkpt lat="45.22969" lon="6.02692">
        <ele>1995.35</ele>
        <time>2022-03-28T10:58:14Z</time>
      </trkpt>
      <trkpt lat="45.22967" lon="6.0269">
        <ele>1994.39</ele>
        <time>2022-03-28T10:58:15Z</time>
      </trkpt>
      <trkpt lat="45.22966" lon="6.02689">
        <ele>1994.87</ele>
        <time>2022-03-28T10:58:16Z</time>
      </trkpt>
      <trkpt lat="45.22963" lon="6.02688">
        <ele>1992.95</ele>
        <time>2022-03-28T10:58:17Z</time>
      </trkpt>
      <trkpt lat="45.22961" lon="6.02686">
        <ele>1991.99</ele>
        <time>2022-03-28T10:58:18Z</time>
      </trkpt>
      <trkpt lat="45.22964" lon="6.02669">
        <ele>1991.03</ele>
        <time>2022-03-28T10:58:20Z</time>
      </trkpt>
      <trkpt lat="45.22958" lon="6.02641">
        <ele>1988.62</ele>
        <time>2022-03-28T10:58:27Z</time>
      </trkpt>
      <trkpt lat="45.22956" lon="6.02646">
        <ele>1986.22</ele>
        <time>2022-03-28T10:58:29Z</time>
      </trkpt>
      <trkpt lat="45.22957" lon="6.02653">
        <ele>1984.78</ele>
        <time>2022-03-28T10:58:30Z</time>
      </trkpt>
      <trkpt lat="45.22957" lon="6.02666">
        <ele>1984.78</ele>
        <time>2022-03-28T10:58:33Z</time>
      </trkpt>
      <trkpt lat="45.22954" lon="6.02657">
        <ele>1980.45</ele>
        <time>2022-03-28T10:58:36Z</time>
      </trkpt>
      <trkpt lat="45.22952" lon="6.02653">
        <ele>1979.49</ele>
        <time>2022-03-28T10:58:37Z</time>
      </trkpt>
      <trkpt lat="45.2295" lon="6.02652">
        <ele>1978.05</ele>
        <time>2022-03-28T10:58:38Z</time>
      </trkpt>
      <trkpt lat="45.22944" lon="6.02672">
        <ele>1976.13</ele>
        <time>2022-03-28T10:58:42Z</time>
      </trkpt>
      <trkpt lat="45.22926" lon="6.02705">
        <ele>1975.17</ele>
        <time>2022-03-28T10:58:52Z</time>
      </trkpt>
      <trkpt lat="45.22925" lon="6.02703">
        <ele>1972.76</ele>
        <time>2022-03-28T10:58:53Z</time>
      </trkpt>
      <trkpt lat="45.22925" lon="6.027">
        <ele>1971.32</ele>
        <time>2022-03-28T10:58:54Z</time>
      </trkpt>
      <trkpt lat="45.22925" lon="6.02699">
        <ele>1971.32</ele>
        <time>2022-03-28T10:58:55Z</time>
      </trkpt>
      <trkpt lat="45.22923" lon="6.02699">
        <ele>1969.88</ele>
        <time>2022-03-28T10:58:56Z</time>
      </trkpt>
      <trkpt lat="45.22919" lon="6.02699">
        <ele>1968.44</ele>
        <time>2022-03-28T10:58:58Z</time>
      </trkpt>
      <trkpt lat="45.22916" lon="6.02695">
        <ele>1963.63</ele>
        <time>2022-03-28T10:58:59Z</time>
      </trkpt>
      <trkpt lat="45.22905" lon="6.02686">
        <ele>1962.19</ele>
        <time>2022-03-28T10:59:02Z</time>
      </trkpt>
      <trkpt lat="45.22903" lon="6.02667">
        <ele>1959.78</ele>
        <time>2022-03-28T10:59:06Z</time>
      </trkpt>
      <trkpt lat="45.22902" lon="6.02654">
        <ele>1957.86</ele>
        <time>2022-03-28T10:59:08Z</time>
      </trkpt>
      <trkpt lat="45.22902" lon="6.02649">
        <ele>1957.38</ele>
        <time>2022-03-28T10:59:09Z</time>
      </trkpt>
      <trkpt lat="45.22902" lon="6.02633">
        <ele>1955.94</ele>
        <time>2022-03-28T10:59:11Z</time>
      </trkpt>
      <trkpt lat="45.22897" lon="6.02625">
        <ele>1957.38</ele>
        <time>2022-03-28T10:59:13Z</time>
      </trkpt>
      <trkpt lat="45.22881" lon="6.02609">
        <ele>1955.94</ele>
        <time>2022-03-28T10:59:22Z</time>
      </trkpt>
      <trkpt lat="45.22879" lon="6.02614">
        <ele>1953.06</ele>
        <time>2022-03-28T10:59:24Z</time>
      </trkpt>
      <trkpt lat="45.22883" lon="6.02625">
        <ele>1951.61</ele>
        <time>2022-03-28T10:59:27Z</time>
      </trkpt>
      <trkpt lat="45.22879" lon="6.02631">
        <ele>1950.65</ele>
        <time>2022-03-28T10:59:29Z</time>
      </trkpt>
      <trkpt lat="45.22869" lon="6.02624">
        <ele>1943.44</ele>
        <time>2022-03-28T10:59:33Z</time>
      </trkpt>
      <trkpt lat="45.22867" lon="6.02627">
        <ele>1943.44</ele>
        <time>2022-03-28T10:59:34Z</time>
      </trkpt>
      <trkpt lat="45.22867" lon="6.02629">
        <ele>1942.96</ele>
        <time>2022-03-28T10:59:35Z</time>
      </trkpt>
      <trkpt lat="45.22859" lon="6.02617">
        <ele>1939.6</ele>
        <time>2022-03-28T10:59:39Z</time>
      </trkpt>
      <trkpt lat="45.22856" lon="6.02615">
        <ele>1937.67</ele>
        <time>2022-03-28T10:59:41Z</time>
      </trkpt>
      <trkpt lat="45.22844" lon="6.02622">
        <ele>1935.75</ele>
        <time>2022-03-28T10:59:44Z</time>
      </trkpt>
      <trkpt lat="45.22841" lon="6.02623">
        <ele>1934.31</ele>
        <time>2022-03-28T10:59:45Z</time>
      </trkpt>
      <trkpt lat="45.22839" lon="6.02622">
        <ele>1933.35</ele>
        <time>2022-03-28T10:59:46Z</time>
      </trkpt>
      <trkpt lat="45.2284" lon="6.02619">
        <ele>1932.39</ele>
        <time>2022-03-28T10:59:47Z</time>
      </trkpt>
      <trkpt lat="45.2284" lon="6.02617">
        <ele>1932.39</ele>
        <time>2022-03-28T10:59:48Z</time>
      </trkpt>
      <trkpt lat="45.22839" lon="6.02616">
        <ele>1931.43</ele>
        <time>2022-03-28T10:59:49Z</time>
      </trkpt>
      <trkpt lat="45.22838" lon="6.02625">
        <ele>1929.98</ele>
        <time>2022-03-28T10:59:51Z</time>
      </trkpt>
      <trkpt lat="45.22837" lon="6.02628">
        <ele>1929.5</ele>
        <time>2022-03-28T10:59:52Z</time>
      </trkpt>
      <trkpt lat="45.22836" lon="6.02628">
        <ele>1927.58</ele>
        <time>2022-03-28T10:59:53Z</time>
      </trkpt>
      <trkpt lat="45.22835" lon="6.02626">
        <ele>1927.1</ele>
        <time>2022-03-28T10:59:54Z</time>
      </trkpt>
      <trkpt lat="45.22834" lon="6.02621">
        <ele>1927.58</ele>
        <time>2022-03-28T10:59:55Z</time>
      </trkpt>
      <trkpt lat="45.22833" lon="6.02618">
        <ele>1927.1</ele>
        <time>2022-03-28T10:59:56Z</time>
      </trkpt>
      <trkpt lat="45.22829" lon="6.02601">
        <ele>1926.14</ele>
        <time>2022-03-28T10:59:59Z</time>
      </trkpt>
      <trkpt lat="45.22826" lon="6.02603">
        <ele>1923.74</ele>
        <time>2022-03-28T11:00:00Z</time>
      </trkpt>
      <trkpt lat="45.22824" lon="6.02605">
        <ele>1923.74</ele>
        <time>2022-03-28T11:00:01Z</time>
      </trkpt>
      <trkpt lat="45.22822" lon="6.02618">
        <ele>1922.29</ele>
        <time>2022-03-28T11:00:03Z</time>
      </trkpt>
      <trkpt lat="45.2282" lon="6.02621">
        <ele>1921.33</ele>
        <time>2022-03-28T11:00:04Z</time>
      </trkpt>
      <trkpt lat="45.22822" lon="6.02615">
        <ele>1918.45</ele>
        <time>2022-03-28T11:00:06Z</time>
      </trkpt>
      <trkpt lat="45.22822" lon="6.02609">
        <ele>1917.49</ele>
        <time>2022-03-28T11:00:07Z</time>
      </trkpt>
      <trkpt lat="45.22819" lon="6.02601">
        <ele>1917.49</ele>
        <time>2022-03-28T11:00:08Z</time>
      </trkpt>
      <trkpt lat="45.22816" lon="6.02595">
        <ele>1917.49</ele>
        <time>2022-03-28T11:00:09Z</time>
      </trkpt>
      <trkpt lat="45.22812" lon="6.0259">
        <ele>1918.93</ele>
        <time>2022-03-28T11:00:10Z</time>
      </trkpt>
      <trkpt lat="45.22807" lon="6.02584">
        <ele>1917.49</ele>
        <time>2022-03-28T11:00:11Z</time>
      </trkpt>
      <trkpt lat="45.22802" lon="6.02577">
        <ele>1915.08</ele>
        <time>2022-03-28T11:00:12Z</time>
      </trkpt>
      <trkpt lat="45.22794" lon="6.02561">
        <ele>1912.68</ele>
        <time>2022-03-28T11:00:14Z</time>
      </trkpt>
      <trkpt lat="45.22789" lon="6.02554">
        <ele>1912.68</ele>
        <time>2022-03-28T11:00:15Z</time>
      </trkpt>
      <trkpt lat="45.22771" lon="6.02531">
        <ele>1914.6</ele>
        <time>2022-03-28T11:00:21Z</time>
      </trkpt>
      <trkpt lat="45.22764" lon="6.02529">
        <ele>1913.16</ele>
        <time>2022-03-28T11:00:24Z</time>
      </trkpt>
      <trkpt lat="45.22761" lon="6.02531">
        <ele>1911.24</ele>
        <time>2022-03-28T11:00:25Z</time>
      </trkpt>
      <trkpt lat="45.22759" lon="6.02537">
        <ele>1912.2</ele>
        <time>2022-03-28T11:00:26Z</time>
      </trkpt>
      <trkpt lat="45.22753" lon="6.02542">
        <ele>1907.87</ele>
        <time>2022-03-28T11:00:28Z</time>
      </trkpt>
      <trkpt lat="45.22735" lon="6.02541">
        <ele>1904.03</ele>
        <time>2022-03-28T11:00:32Z</time>
      </trkpt>
      <trkpt lat="45.22731" lon="6.02538">
        <ele>1904.51</ele>
        <time>2022-03-28T11:00:33Z</time>
      </trkpt>
      <trkpt lat="45.22727" lon="6.02535">
        <ele>1904.03</ele>
        <time>2022-03-28T11:00:34Z</time>
      </trkpt>
      <trkpt lat="45.22724" lon="6.0253">
        <ele>1905.95</ele>
        <time>2022-03-28T11:00:39Z</time>
      </trkpt>
      <trkpt lat="45.22725" lon="6.02535">
        <ele>1906.91</ele>
        <time>2022-03-28T11:01:02Z</time>
      </trkpt>
      <trkpt lat="45.22723" lon="6.02533">
        <ele>1905.95</ele>
        <time>2022-03-28T11:01:15Z</time>
      </trkpt>
      <trkpt lat="45.22723" lon="6.02532">
        <ele>1905.95</ele>
        <time>2022-03-28T11:01:16Z</time>
      </trkpt>
      <trkpt lat="45.22722" lon="6.0253">
        <ele>1905.95</ele>
        <time>2022-03-28T11:01:17Z</time>
      </trkpt>
      <trkpt lat="45.22721" lon="6.02527">
        <ele>1905.95</ele>
        <time>2022-03-28T11:01:18Z</time>
      </trkpt>
      <trkpt lat="45.22721" lon="6.02524">
        <ele>1905.95</ele>
        <time>2022-03-28T11:01:19Z</time>
      </trkpt>
      <trkpt lat="45.2272" lon="6.02515">
        <ele>1904.99</ele>
        <time>2022-03-28T11:01:21Z</time>
      </trkpt>
      <trkpt lat="45.22719" lon="6.02508">
        <ele>1904.51</ele>
        <time>2022-03-28T11:01:22Z</time>
      </trkpt>
      <trkpt lat="45.22717" lon="6.02504">
        <ele>1904.51</ele>
        <time>2022-03-28T11:01:23Z</time>
      </trkpt>
      <trkpt lat="45.22713" lon="6.02502">
        <ele>1904.03</ele>
        <time>2022-03-28T11:01:24Z</time>
      </trkpt>
      <trkpt lat="45.22708" lon="6.02504">
        <ele>1901.14</ele>
        <time>2022-03-28T11:01:25Z</time>
      </trkpt>
      <trkpt lat="45.22704" lon="6.02505">
        <ele>1903.07</ele>
        <time>2022-03-28T11:01:26Z</time>
      </trkpt>
      <trkpt lat="45.22701" lon="6.02503">
        <ele>1901.63</ele>
        <time>2022-03-28T11:01:27Z</time>
      </trkpt>
      <trkpt lat="45.22698" lon="6.02497">
        <ele>1898.74</ele>
        <time>2022-03-28T11:01:29Z</time>
      </trkpt>
      <trkpt lat="45.22695" lon="6.02491">
        <ele>1899.22</ele>
        <time>2022-03-28T11:01:31Z</time>
      </trkpt>
      <trkpt lat="45.22693" lon="6.02492">
        <ele>1898.26</ele>
        <time>2022-03-28T11:01:32Z</time>
      </trkpt>
      <trkpt lat="45.2269" lon="6.02494">
        <ele>1898.26</ele>
        <time>2022-03-28T11:01:33Z</time>
      </trkpt>
      <trkpt lat="45.22685" lon="6.02491">
        <ele>1896.34</ele>
        <time>2022-03-28T11:01:35Z</time>
      </trkpt>
      <trkpt lat="45.22681" lon="6.02501">
        <ele>1895.86</ele>
        <time>2022-03-28T11:01:38Z</time>
      </trkpt>
      <trkpt lat="45.2268" lon="6.02504">
        <ele>1895.38</ele>
        <time>2022-03-28T11:01:39Z</time>
      </trkpt>
      <trkpt lat="45.22678" lon="6.02503">
        <ele>1892.97</ele>
        <time>2022-03-28T11:01:40Z</time>
      </trkpt>
      <trkpt lat="45.22677" lon="6.025">
        <ele>1892.01</ele>
        <time>2022-03-28T11:01:41Z</time>
      </trkpt>
      <trkpt lat="45.22676" lon="6.02497">
        <ele>1892.01</ele>
        <time>2022-03-28T11:01:42Z</time>
      </trkpt>
      <trkpt lat="45.22671" lon="6.02497">
        <ele>1889.13</ele>
        <time>2022-03-28T11:01:45Z</time>
      </trkpt>
      <trkpt lat="45.22668" lon="6.02499">
        <ele>1890.57</ele>
        <time>2022-03-28T11:01:46Z</time>
      </trkpt>
      <trkpt lat="45.22666" lon="6.02497">
        <ele>1888.65</ele>
        <time>2022-03-28T11:01:47Z</time>
      </trkpt>
      <trkpt lat="45.22663" lon="6.02494">
        <ele>1886.72</ele>
        <time>2022-03-28T11:01:48Z</time>
      </trkpt>
      <trkpt lat="45.22659" lon="6.02492">
        <ele>1885.76</ele>
        <time>2022-03-28T11:01:49Z</time>
      </trkpt>
      <trkpt lat="45.22656" lon="6.02493">
        <ele>1883.84</ele>
        <time>2022-03-28T11:01:50Z</time>
      </trkpt>
      <trkpt lat="45.22652" lon="6.02493">
        <ele>1885.28</ele>
        <time>2022-03-28T11:01:51Z</time>
      </trkpt>
      <trkpt lat="45.22648" lon="6.02491">
        <ele>1882.88</ele>
        <time>2022-03-28T11:01:52Z</time>
      </trkpt>
      <trkpt lat="45.22645" lon="6.02491">
        <ele>1880.96</ele>
        <time>2022-03-28T11:01:53Z</time>
      </trkpt>
      <trkpt lat="45.22642" lon="6.02492">
        <ele>1880.96</ele>
        <time>2022-03-28T11:01:54Z</time>
      </trkpt>
      <trkpt lat="45.22638" lon="6.02491">
        <ele>1879.03</ele>
        <time>2022-03-28T11:01:55Z</time>
      </trkpt>
      <trkpt lat="45.22635" lon="6.02489">
        <ele>1877.11</ele>
        <time>2022-03-28T11:01:56Z</time>
      </trkpt>
      <trkpt lat="45.22632" lon="6.0249">
        <ele>1877.11</ele>
        <time>2022-03-28T11:01:57Z</time>
      </trkpt>
      <trkpt lat="45.22629" lon="6.02496">
        <ele>1877.11</ele>
        <time>2022-03-28T11:01:59Z</time>
      </trkpt>
      <trkpt lat="45.22627" lon="6.02494">
        <ele>1875.19</ele>
        <time>2022-03-28T11:02:00Z</time>
      </trkpt>
      <trkpt lat="45.22625" lon="6.02493">
        <ele>1875.19</ele>
        <time>2022-03-28T11:02:01Z</time>
      </trkpt>
      <trkpt lat="45.22622" lon="6.02492">
        <ele>1875.19</ele>
        <time>2022-03-28T11:02:02Z</time>
      </trkpt>
      <trkpt lat="45.22618" lon="6.0249">
        <ele>1871.34</ele>
        <time>2022-03-28T11:02:03Z</time>
      </trkpt>
      <trkpt lat="45.22615" lon="6.02489">
        <ele>1868.94</ele>
        <time>2022-03-28T11:02:04Z</time>
      </trkpt>
      <trkpt lat="45.22606" lon="6.02479">
        <ele>1870.38</ele>
        <time>2022-03-28T11:02:06Z</time>
      </trkpt>
      <trkpt lat="45.22601" lon="6.02469">
        <ele>1867.5</ele>
        <time>2022-03-28T11:02:07Z</time>
      </trkpt>
      <trkpt lat="45.22587" lon="6.0245">
        <ele>1866.06</ele>
        <time>2022-03-28T11:02:11Z</time>
      </trkpt>
      <trkpt lat="45.22568" lon="6.02432">
        <ele>1864.13</ele>
        <time>2022-03-28T11:02:16Z</time>
      </trkpt>
      <trkpt lat="45.22555" lon="6.02417">
        <ele>1864.61</ele>
        <time>2022-03-28T11:02:26Z</time>
      </trkpt>
      <trkpt lat="45.22555" lon="6.02417">
        <ele>1864.61</ele>
        <time>2022-03-28T11:02:27Z</time>
      </trkpt>
      <trkpt lat="45.22562" lon="6.02421">
        <ele>1865.09</ele>
        <time>2022-03-28T11:02:49Z</time>
      </trkpt>
      <trkpt lat="45.2256" lon="6.02421">
        <ele>1864.13</ele>
        <time>2022-03-28T11:02:51Z</time>
      </trkpt>
      <trkpt lat="45.22549" lon="6.02429">
        <ele>1859.33</ele>
        <time>2022-03-28T11:02:56Z</time>
      </trkpt>
      <trkpt lat="45.22548" lon="6.02432">
        <ele>1859.33</ele>
        <time>2022-03-28T11:02:57Z</time>
      </trkpt>
      <trkpt lat="45.22541" lon="6.02432">
        <ele>1854.52</ele>
        <time>2022-03-28T11:02:59Z</time>
      </trkpt>
      <trkpt lat="45.2253" lon="6.02421">
        <ele>1854.04</ele>
        <time>2022-03-28T11:03:02Z</time>
      </trkpt>
      <trkpt lat="45.22517" lon="6.02433">
        <ele>1849.23</ele>
        <time>2022-03-28T11:03:08Z</time>
      </trkpt>
      <trkpt lat="45.22514" lon="6.0243">
        <ele>1848.75</ele>
        <time>2022-03-28T11:03:09Z</time>
      </trkpt>
      <trkpt lat="45.22512" lon="6.02428">
        <ele>1847.79</ele>
        <time>2022-03-28T11:03:10Z</time>
      </trkpt>
      <trkpt lat="45.2251" lon="6.02425">
        <ele>1848.27</ele>
        <time>2022-03-28T11:03:11Z</time>
      </trkpt>
      <trkpt lat="45.22508" lon="6.02423">
        <ele>1849.23</ele>
        <time>2022-03-28T11:03:12Z</time>
      </trkpt>
      <trkpt lat="45.22507" lon="6.0242">
        <ele>1849.23</ele>
        <time>2022-03-28T11:03:13Z</time>
      </trkpt>
      <trkpt lat="45.22505" lon="6.02418">
        <ele>1847.79</ele>
        <time>2022-03-28T11:03:14Z</time>
      </trkpt>
      <trkpt lat="45.22502" lon="6.02418">
        <ele>1850.68</ele>
        <time>2022-03-28T11:03:15Z</time>
      </trkpt>
      <trkpt lat="45.22499" lon="6.02417">
        <ele>1850.68</ele>
        <time>2022-03-28T11:03:16Z</time>
      </trkpt>
      <trkpt lat="45.22497" lon="6.02414">
        <ele>1847.79</ele>
        <time>2022-03-28T11:03:17Z</time>
      </trkpt>
      <trkpt lat="45.22495" lon="6.02409">
        <ele>1847.31</ele>
        <time>2022-03-28T11:03:19Z</time>
      </trkpt>
      <trkpt lat="45.22497" lon="6.02414">
        <ele>1846.35</ele>
        <time>2022-03-28T11:03:31Z</time>
      </trkpt>
      <trkpt lat="45.22497" lon="6.02416">
        <ele>1846.35</ele>
        <time>2022-03-28T11:03:32Z</time>
      </trkpt>
      <trkpt lat="45.22498" lon="6.02424">
        <ele>1847.79</ele>
        <time>2022-03-28T11:03:37Z</time>
      </trkpt>
      <trkpt lat="45.22499" lon="6.02426">
        <ele>1848.27</ele>
        <time>2022-03-28T11:03:40Z</time>
      </trkpt>
      <trkpt lat="45.22497" lon="6.02439">
        <ele>1847.79</ele>
        <time>2022-03-28T11:03:47Z</time>
      </trkpt>
      <trkpt lat="45.2249" lon="6.02456">
        <ele>1843.47</ele>
        <time>2022-03-28T11:03:50Z</time>
      </trkpt>
      <trkpt lat="45.22487" lon="6.02461">
        <ele>1843.47</ele>
        <time>2022-03-28T11:03:51Z</time>
      </trkpt>
      <trkpt lat="45.22485" lon="6.02465">
        <ele>1844.91</ele>
        <time>2022-03-28T11:03:52Z</time>
      </trkpt>
      <trkpt lat="45.22483" lon="6.02469">
        <ele>1843.95</ele>
        <time>2022-03-28T11:03:54Z</time>
      </trkpt>
      <trkpt lat="45.22476" lon="6.02479">
        <ele>1842.98</ele>
        <time>2022-03-28T11:03:59Z</time>
      </trkpt>
      <trkpt lat="45.22469" lon="6.02491">
        <ele>1840.58</ele>
        <time>2022-03-28T11:04:02Z</time>
      </trkpt>
      <trkpt lat="45.22465" lon="6.02487">
        <ele>1839.14</ele>
        <time>2022-03-28T11:04:04Z</time>
      </trkpt>
      <trkpt lat="45.22465" lon="6.02474">
        <ele>1837.7</ele>
        <time>2022-03-28T11:04:12Z</time>
      </trkpt>
      <trkpt lat="45.22463" lon="6.02469">
        <ele>1836.26</ele>
        <time>2022-03-28T11:04:14Z</time>
      </trkpt>
      <trkpt lat="45.22459" lon="6.02472">
        <ele>1834.81</ele>
        <time>2022-03-28T11:04:16Z</time>
      </trkpt>
      <trkpt lat="45.22455" lon="6.02477">
        <ele>1834.33</ele>
        <time>2022-03-28T11:04:21Z</time>
      </trkpt>
      <trkpt lat="45.22446" lon="6.02495">
        <ele>1832.89</ele>
        <time>2022-03-28T11:04:28Z</time>
      </trkpt>
      <trkpt lat="45.22442" lon="6.02501">
        <ele>1834.81</ele>
        <time>2022-03-28T11:04:30Z</time>
      </trkpt>
      <trkpt lat="45.22437" lon="6.0251">
        <ele>1831.93</ele>
        <time>2022-03-28T11:04:40Z</time>
      </trkpt>
      <trkpt lat="45.22435" lon="6.02514">
        <ele>1831.93</ele>
        <time>2022-03-28T11:04:41Z</time>
      </trkpt>
      <trkpt lat="45.22431" lon="6.0251">
        <ele>1830.49</ele>
        <time>2022-03-28T11:04:45Z</time>
      </trkpt>
      <trkpt lat="45.22433" lon="6.025">
        <ele>1829.53</ele>
        <time>2022-03-28T11:04:50Z</time>
      </trkpt>
      <trkpt lat="45.22428" lon="6.02495">
        <ele>1826.16</ele>
        <time>2022-03-28T11:04:54Z</time>
      </trkpt>
      <trkpt lat="45.22414" lon="6.02506">
        <ele>1822.8</ele>
        <time>2022-03-28T11:04:59Z</time>
      </trkpt>
      <trkpt lat="45.22411" lon="6.02509">
        <ele>1822.8</ele>
        <time>2022-03-28T11:05:00Z</time>
      </trkpt>
      <trkpt lat="45.22388" lon="6.02525">
        <ele>1820.87</ele>
        <time>2022-03-28T11:05:09Z</time>
      </trkpt>
      <trkpt lat="45.22378" lon="6.02531">
        <ele>1821.35</ele>
        <time>2022-03-28T11:05:14Z</time>
      </trkpt>
      <trkpt lat="45.22372" lon="6.02529">
        <ele>1818.47</ele>
        <time>2022-03-28T11:05:17Z</time>
      </trkpt>
      <trkpt lat="45.22367" lon="6.02527">
        <ele>1818.47</ele>
        <time>2022-03-28T11:05:18Z</time>
      </trkpt>
      <trkpt lat="45.22357" lon="6.02527">
        <ele>1817.03</ele>
        <time>2022-03-28T11:05:21Z</time>
      </trkpt>
      <trkpt lat="45.2235" lon="6.02522">
        <ele>1814.63</ele>
        <time>2022-03-28T11:05:23Z</time>
      </trkpt>
      <trkpt lat="45.22345" lon="6.02512">
        <ele>1811.74</ele>
        <time>2022-03-28T11:05:25Z</time>
      </trkpt>
      <trkpt lat="45.22337" lon="6.02498">
        <ele>1806.45</ele>
        <time>2022-03-28T11:05:28Z</time>
      </trkpt>
      <trkpt lat="45.22336" lon="6.02493">
        <ele>1805.49</ele>
        <time>2022-03-28T11:05:30Z</time>
      </trkpt>
      <trkpt lat="45.22336" lon="6.02484">
        <ele>1801.17</ele>
        <time>2022-03-28T11:05:32Z</time>
      </trkpt>
      <trkpt lat="45.22336" lon="6.02478">
        <ele>1799.73</ele>
        <time>2022-03-28T11:05:33Z</time>
      </trkpt>
      <trkpt lat="45.22334" lon="6.02469">
        <ele>1797.8</ele>
        <time>2022-03-28T11:05:35Z</time>
      </trkpt>
      <trkpt lat="45.22338" lon="6.02455">
        <ele>1792.52</ele>
        <time>2022-03-28T11:05:38Z</time>
      </trkpt>
      <trkpt lat="45.22342" lon="6.02431">
        <ele>1788.67</ele>
        <time>2022-03-28T11:05:42Z</time>
      </trkpt>
      <trkpt lat="45.22345" lon="6.02424">
        <ele>1788.67</ele>
        <time>2022-03-28T11:05:43Z</time>
      </trkpt>
      <trkpt lat="45.22344" lon="6.02419">
        <ele>1788.67</ele>
        <time>2022-03-28T11:05:44Z</time>
      </trkpt>
      <trkpt lat="45.22342" lon="6.02404">
        <ele>1786.27</ele>
        <time>2022-03-28T11:05:47Z</time>
      </trkpt>
      <trkpt lat="45.22332" lon="6.02375">
        <ele>1781.46</ele>
        <time>2022-03-28T11:05:53Z</time>
      </trkpt>
      <trkpt lat="45.22333" lon="6.02348">
        <ele>1779.06</ele>
        <time>2022-03-28T11:05:56Z</time>
      </trkpt>
      <trkpt lat="45.22332" lon="6.02326">
        <ele>1777.61</ele>
        <time>2022-03-28T11:05:58Z</time>
      </trkpt>
      <trkpt lat="45.22331" lon="6.02307">
        <ele>1780.02</ele>
        <time>2022-03-28T11:06:03Z</time>
      </trkpt>
      <trkpt lat="45.22334" lon="6.02295">
        <ele>1777.61</ele>
        <time>2022-03-28T11:06:08Z</time>
      </trkpt>
      <trkpt lat="45.22335" lon="6.02288">
        <ele>1777.13</ele>
        <time>2022-03-28T11:06:10Z</time>
      </trkpt>
      <trkpt lat="45.22336" lon="6.0227">
        <ele>1774.73</ele>
        <time>2022-03-28T11:06:17Z</time>
      </trkpt>
      <trkpt lat="45.22328" lon="6.0226">
        <ele>1773.29</ele>
        <time>2022-03-28T11:06:21Z</time>
      </trkpt>
      <trkpt lat="45.22325" lon="6.02258">
        <ele>1773.29</ele>
        <time>2022-03-28T11:06:22Z</time>
      </trkpt>
      <trkpt lat="45.22315" lon="6.02256">
        <ele>1773.77</ele>
        <time>2022-03-28T11:06:27Z</time>
      </trkpt>
      <trkpt lat="45.22318" lon="6.02255">
        <ele>1772.33</ele>
        <time>2022-03-28T11:06:40Z</time>
      </trkpt>
      <trkpt lat="45.22314" lon="6.02254">
        <ele>1773.29</ele>
        <time>2022-03-28T11:06:47Z</time>
      </trkpt>
      <trkpt lat="45.22319" lon="6.02246">
        <ele>1769.44</ele>
        <time>2022-03-28T11:06:52Z</time>
      </trkpt>
      <trkpt lat="45.22324" lon="6.02234">
        <ele>1765.12</ele>
        <time>2022-03-28T11:06:57Z</time>
      </trkpt>
      <trkpt lat="45.22322" lon="6.02227">
        <ele>1761.75</ele>
        <time>2022-03-28T11:06:59Z</time>
      </trkpt>
      <trkpt lat="45.22326" lon="6.02214">
        <ele>1758.39</ele>
        <time>2022-03-28T11:07:03Z</time>
      </trkpt>
      <trkpt lat="45.22322" lon="6.02207">
        <ele>1756.95</ele>
        <time>2022-03-28T11:07:05Z</time>
      </trkpt>
      <trkpt lat="45.22308" lon="6.02199">
        <ele>1755.02</ele>
        <time>2022-03-28T11:07:11Z</time>
      </trkpt>
      <trkpt lat="45.2231" lon="6.02192">
        <ele>1753.58</ele>
        <time>2022-03-28T11:07:15Z</time>
      </trkpt>
      <trkpt lat="45.22314" lon="6.02192">
        <ele>1754.54</ele>
        <time>2022-03-28T11:07:16Z</time>
      </trkpt>
      <trkpt lat="45.22318" lon="6.02186">
        <ele>1750.7</ele>
        <time>2022-03-28T11:07:18Z</time>
      </trkpt>
      <trkpt lat="45.22315" lon="6.02174">
        <ele>1748.29</ele>
        <time>2022-03-28T11:07:20Z</time>
      </trkpt>
      <trkpt lat="45.22311" lon="6.02171">
        <ele>1747.33</ele>
        <time>2022-03-28T11:07:21Z</time>
      </trkpt>
      <trkpt lat="45.22309" lon="6.02169">
        <ele>1746.85</ele>
        <time>2022-03-28T11:07:22Z</time>
      </trkpt>
      <trkpt lat="45.22303" lon="6.0217">
        <ele>1745.89</ele>
        <time>2022-03-28T11:07:23Z</time>
      </trkpt>
      <trkpt lat="45.2227" lon="6.02174">
        <ele>1741.57</ele>
        <time>2022-03-28T11:07:29Z</time>
      </trkpt>
      <trkpt lat="45.22264" lon="6.02175">
        <ele>1741.57</ele>
        <time>2022-03-28T11:07:30Z</time>
      </trkpt>
      <trkpt lat="45.22258" lon="6.02175">
        <ele>1741.57</ele>
        <time>2022-03-28T11:07:31Z</time>
      </trkpt>
      <trkpt lat="45.22252" lon="6.02174">
        <ele>1740.12</ele>
        <time>2022-03-28T11:07:32Z</time>
      </trkpt>
      <trkpt lat="45.22248" lon="6.02171">
        <ele>1742.05</ele>
        <time>2022-03-28T11:07:33Z</time>
      </trkpt>
      <trkpt lat="45.22245" lon="6.02165">
        <ele>1740.12</ele>
        <time>2022-03-28T11:07:34Z</time>
      </trkpt>
      <trkpt lat="45.22244" lon="6.02158">
        <ele>1739.16</ele>
        <time>2022-03-28T11:07:35Z</time>
      </trkpt>
      <trkpt lat="45.22244" lon="6.0215">
        <ele>1737.72</ele>
        <time>2022-03-28T11:07:36Z</time>
      </trkpt>
      <trkpt lat="45.22244" lon="6.02144">
        <ele>1736.76</ele>
        <time>2022-03-28T11:07:37Z</time>
      </trkpt>
      <trkpt lat="45.22246" lon="6.02136">
        <ele>1736.76</ele>
        <time>2022-03-28T11:07:38Z</time>
      </trkpt>
      <trkpt lat="45.22247" lon="6.0213">
        <ele>1735.32</ele>
        <time>2022-03-28T11:07:39Z</time>
      </trkpt>
      <trkpt lat="45.22248" lon="6.02124">
        <ele>1735.32</ele>
        <time>2022-03-28T11:07:40Z</time>
      </trkpt>
      <trkpt lat="45.22249" lon="6.02119">
        <ele>1736.76</ele>
        <time>2022-03-28T11:07:41Z</time>
      </trkpt>
      <trkpt lat="45.2225" lon="6.02117">
        <ele>1736.28</ele>
        <time>2022-03-28T11:07:42Z</time>
      </trkpt>
      <trkpt lat="45.22252" lon="6.02116">
        <ele>1735.32</ele>
        <time>2022-03-28T11:07:49Z</time>
      </trkpt>
      <trkpt lat="45.22252" lon="6.02116">
        <ele>1731.47</ele>
        <time>2022-03-28T11:08:18Z</time>
      </trkpt>
      <trkpt lat="45.22252" lon="6.02116">
        <ele>1735.32</ele>
        <time>2022-03-28T11:08:20Z</time>
      </trkpt>
      <trkpt lat="45.22252" lon="6.02116">
        <ele>1735.32</ele>
        <time>2022-03-28T11:08:21Z</time>
      </trkpt>
      <trkpt lat="45.22255" lon="6.02117">
        <ele>1734.36</ele>
        <time>2022-03-28T11:08:41Z</time>
      </trkpt>
      <trkpt lat="45.22255" lon="6.02117">
        <ele>1734.36</ele>
        <time>2022-03-28T11:09:05Z</time>
      </trkpt>
      <trkpt lat="45.22254" lon="6.02116">
        <ele>1734.36</ele>
        <time>2022-03-28T11:09:21Z</time>
      </trkpt>
      <trkpt lat="45.22254" lon="6.02118">
        <ele>1734.36</ele>
        <time>2022-03-28T11:09:52Z</time>
      </trkpt>
      <trkpt lat="45.22251" lon="6.02115">
        <ele>1735.32</ele>
        <time>2022-03-28T11:10:15Z</time>
      </trkpt>
      <trkpt lat="45.22252" lon="6.02114">
        <ele>1734.84</ele>
        <time>2022-03-28T11:10:20Z</time>
      </trkpt>
      <trkpt lat="45.22253" lon="6.02111">
        <ele>1733.88</ele>
        <time>2022-03-28T11:10:22Z</time>
      </trkpt>
      <trkpt lat="45.22255" lon="6.02104">
        <ele>1733.88</ele>
        <time>2022-03-28T11:10:24Z</time>
      </trkpt>
      <trkpt lat="45.22255" lon="6.02099">
        <ele>1732.91</ele>
        <time>2022-03-28T11:10:25Z</time>
      </trkpt>
      <trkpt lat="45.22256" lon="6.02093">
        <ele>1734.36</ele>
        <time>2022-03-28T11:10:26Z</time>
      </trkpt>
      <trkpt lat="45.22257" lon="6.02088">
        <ele>1731.95</ele>
        <time>2022-03-28T11:10:27Z</time>
      </trkpt>
      <trkpt lat="45.22256" lon="6.02083">
        <ele>1731.95</ele>
        <time>2022-03-28T11:10:28Z</time>
      </trkpt>
      <trkpt lat="45.22253" lon="6.02079">
        <ele>1730.99</ele>
        <time>2022-03-28T11:10:29Z</time>
      </trkpt>
      <trkpt lat="45.2225" lon="6.02078">
        <ele>1729.55</ele>
        <time>2022-03-28T11:10:30Z</time>
      </trkpt>
      <trkpt lat="45.22249" lon="6.02078">
        <ele>1729.55</ele>
        <time>2022-03-28T11:10:31Z</time>
      </trkpt>
      <trkpt lat="45.22247" lon="6.02078">
        <ele>1729.07</ele>
        <time>2022-03-28T11:10:32Z</time>
      </trkpt>
      <trkpt lat="45.22246" lon="6.02078">
        <ele>1729.07</ele>
        <time>2022-03-28T11:10:33Z</time>
      </trkpt>
      <trkpt lat="45.22244" lon="6.02076">
        <ele>1729.07</ele>
        <time>2022-03-28T11:10:34Z</time>
      </trkpt>
      <trkpt lat="45.22244" lon="6.02074">
        <ele>1729.07</ele>
        <time>2022-03-28T11:10:35Z</time>
      </trkpt>
      <trkpt lat="45.22243" lon="6.02071">
        <ele>1729.07</ele>
        <time>2022-03-28T11:10:36Z</time>
      </trkpt>
      <trkpt lat="45.22243" lon="6.02068">
        <ele>1728.59</ele>
        <time>2022-03-28T11:10:37Z</time>
      </trkpt>
      <trkpt lat="45.22243" lon="6.02066">
        <ele>1728.11</ele>
        <time>2022-03-28T11:10:38Z</time>
      </trkpt>
      <trkpt lat="45.22244" lon="6.02062">
        <ele>1728.11</ele>
        <time>2022-03-28T11:10:39Z</time>
      </trkpt>
      <trkpt lat="45.22245" lon="6.02059">
        <ele>1726.67</ele>
        <time>2022-03-28T11:10:40Z</time>
      </trkpt>
      <trkpt lat="45.22246" lon="6.02056">
        <ele>1725.7</ele>
        <time>2022-03-28T11:10:41Z</time>
      </trkpt>
      <trkpt lat="45.22248" lon="6.0205">
        <ele>1725.7</ele>
        <time>2022-03-28T11:10:42Z</time>
      </trkpt>
      <trkpt lat="45.22248" lon="6.02044">
        <ele>1723.78</ele>
        <time>2022-03-28T11:10:43Z</time>
      </trkpt>
      <trkpt lat="45.22247" lon="6.0204">
        <ele>1722.82</ele>
        <time>2022-03-28T11:10:44Z</time>
      </trkpt>
      <trkpt lat="45.22246" lon="6.02035">
        <ele>1723.3</ele>
        <time>2022-03-28T11:10:45Z</time>
      </trkpt>
      <trkpt lat="45.22247" lon="6.02031">
        <ele>1721.38</ele>
        <time>2022-03-28T11:10:46Z</time>
      </trkpt>
      <trkpt lat="45.22248" lon="6.02026">
        <ele>1720.42</ele>
        <time>2022-03-28T11:10:47Z</time>
      </trkpt>
      <trkpt lat="45.22249" lon="6.02022">
        <ele>1719.46</ele>
        <time>2022-03-28T11:10:48Z</time>
      </trkpt>
      <trkpt lat="45.22248" lon="6.02018">
        <ele>1719.46</ele>
        <time>2022-03-28T11:10:49Z</time>
      </trkpt>
      <trkpt lat="45.22248" lon="6.02014">
        <ele>1719.46</ele>
        <time>2022-03-28T11:10:50Z</time>
      </trkpt>
      <trkpt lat="45.22249" lon="6.02011">
        <ele>1718.49</ele>
        <time>2022-03-28T11:10:51Z</time>
      </trkpt>
      <trkpt lat="45.2225" lon="6.02009">
        <ele>1716.57</ele>
        <time>2022-03-28T11:10:52Z</time>
      </trkpt>
      <trkpt lat="45.2225" lon="6.02007">
        <ele>1716.57</ele>
        <time>2022-03-28T11:10:53Z</time>
      </trkpt>
      <trkpt lat="45.2225" lon="6.02004">
        <ele>1716.57</ele>
        <time>2022-03-28T11:10:55Z</time>
      </trkpt>
      <trkpt lat="45.2225" lon="6.02">
        <ele>1716.09</ele>
        <time>2022-03-28T11:10:56Z</time>
      </trkpt>
      <trkpt lat="45.22248" lon="6.01985">
        <ele>1714.65</ele>
        <time>2022-03-28T11:10:58Z</time>
      </trkpt>
      <trkpt lat="45.22247" lon="6.01975">
        <ele>1713.69</ele>
        <time>2022-03-28T11:10:59Z</time>
      </trkpt>
      <trkpt lat="45.22246" lon="6.01965">
        <ele>1712.73</ele>
        <time>2022-03-28T11:11:00Z</time>
      </trkpt>
      <trkpt lat="45.22245" lon="6.01955">
        <ele>1712.73</ele>
        <time>2022-03-28T11:11:01Z</time>
      </trkpt>
      <trkpt lat="45.22245" lon="6.01947">
        <ele>1711.28</ele>
        <time>2022-03-28T11:11:02Z</time>
      </trkpt>
      <trkpt lat="45.22245" lon="6.01939">
        <ele>1711.28</ele>
        <time>2022-03-28T11:11:03Z</time>
      </trkpt>
      <trkpt lat="45.22249" lon="6.01918">
        <ele>1709.84</ele>
        <time>2022-03-28T11:11:07Z</time>
      </trkpt>
      <trkpt lat="45.2225" lon="6.01917">
        <ele>1708.88</ele>
        <time>2022-03-28T11:11:09Z</time>
      </trkpt>
      <trkpt lat="45.2225" lon="6.01916">
        <ele>1710.32</ele>
        <time>2022-03-28T11:11:10Z</time>
      </trkpt>
      <trkpt lat="45.22251" lon="6.01915">
        <ele>1710.32</ele>
        <time>2022-03-28T11:11:11Z</time>
      </trkpt>
      <trkpt lat="45.22252" lon="6.01909">
        <ele>1708.88</ele>
        <time>2022-03-28T11:11:13Z</time>
      </trkpt>
      <trkpt lat="45.22258" lon="6.01868">
        <ele>1706.48</ele>
        <time>2022-03-28T11:11:22Z</time>
      </trkpt>
      <trkpt lat="45.22259" lon="6.01849">
        <ele>1706</ele>
        <time>2022-03-28T11:11:31Z</time>
      </trkpt>
      <trkpt lat="45.22264" lon="6.01835">
        <ele>1705.52</ele>
        <time>2022-03-28T11:11:45Z</time>
      </trkpt>
      <trkpt lat="45.22264" lon="6.01834">
        <ele>1704.55</ele>
        <time>2022-03-28T11:11:49Z</time>
      </trkpt>
      <trkpt lat="45.22264" lon="6.01832">
        <ele>1704.55</ele>
        <time>2022-03-28T11:11:50Z</time>
      </trkpt>
      <trkpt lat="45.22263" lon="6.01831">
        <ele>1704.55</ele>
        <time>2022-03-28T11:11:51Z</time>
      </trkpt>
      <trkpt lat="45.2226" lon="6.01831">
        <ele>1703.11</ele>
        <time>2022-03-28T11:11:52Z</time>
      </trkpt>
      <trkpt lat="45.22256" lon="6.01832">
        <ele>1703.11</ele>
        <time>2022-03-28T11:11:54Z</time>
      </trkpt>
      <trkpt lat="45.22251" lon="6.01831">
        <ele>1702.15</ele>
        <time>2022-03-28T11:11:55Z</time>
      </trkpt>
      <trkpt lat="45.22246" lon="6.01833">
        <ele>1700.23</ele>
        <time>2022-03-28T11:11:57Z</time>
      </trkpt>
      <trkpt lat="45.22244" lon="6.01833">
        <ele>1700.23</ele>
        <time>2022-03-28T11:11:58Z</time>
      </trkpt>
      <trkpt lat="45.22242" lon="6.01831">
        <ele>1701.67</ele>
        <time>2022-03-28T11:11:59Z</time>
      </trkpt>
      <trkpt lat="45.2224" lon="6.01828">
        <ele>1700.23</ele>
        <time>2022-03-28T11:12:00Z</time>
      </trkpt>
      <trkpt lat="45.22238" lon="6.01822">
        <ele>1698.79</ele>
        <time>2022-03-28T11:12:01Z</time>
      </trkpt>
      <trkpt lat="45.22236" lon="6.01815">
        <ele>1700.23</ele>
        <time>2022-03-28T11:12:02Z</time>
      </trkpt>
      <trkpt lat="45.22233" lon="6.01807">
        <ele>1698.31</ele>
        <time>2022-03-28T11:12:03Z</time>
      </trkpt>
      <trkpt lat="45.2223" lon="6.01801">
        <ele>1698.31</ele>
        <time>2022-03-28T11:12:04Z</time>
      </trkpt>
      <trkpt lat="45.22226" lon="6.01796">
        <ele>1696.86</ele>
        <time>2022-03-28T11:12:05Z</time>
      </trkpt>
      <trkpt lat="45.22223" lon="6.01793">
        <ele>1695.42</ele>
        <time>2022-03-28T11:12:06Z</time>
      </trkpt>
      <trkpt lat="45.22221" lon="6.0179">
        <ele>1695.42</ele>
        <time>2022-03-28T11:12:07Z</time>
      </trkpt>
      <trkpt lat="45.22217" lon="6.01781">
        <ele>1694.94</ele>
        <time>2022-03-28T11:12:12Z</time>
      </trkpt>
      <trkpt lat="45.22217" lon="6.01778">
        <ele>1694.46</ele>
        <time>2022-03-28T11:12:13Z</time>
      </trkpt>
      <trkpt lat="45.22217" lon="6.01775">
        <ele>1694.46</ele>
        <time>2022-03-28T11:12:14Z</time>
      </trkpt>
      <trkpt lat="45.2222" lon="6.01764">
        <ele>1694.46</ele>
        <time>2022-03-28T11:12:16Z</time>
      </trkpt>
      <trkpt lat="45.22222" lon="6.01758">
        <ele>1693.5</ele>
        <time>2022-03-28T11:12:17Z</time>
      </trkpt>
      <trkpt lat="45.22225" lon="6.01753">
        <ele>1692.54</ele>
        <time>2022-03-28T11:12:18Z</time>
      </trkpt>
      <trkpt lat="45.2223" lon="6.01751">
        <ele>1690.62</ele>
        <time>2022-03-28T11:12:19Z</time>
      </trkpt>
      <trkpt lat="45.22235" lon="6.01751">
        <ele>1689.65</ele>
        <time>2022-03-28T11:12:20Z</time>
      </trkpt>
      <trkpt lat="45.22241" lon="6.01751">
        <ele>1688.69</ele>
        <time>2022-03-28T11:12:21Z</time>
      </trkpt>
      <trkpt lat="45.22248" lon="6.0175">
        <ele>1688.21</ele>
        <time>2022-03-28T11:12:22Z</time>
      </trkpt>
      <trkpt lat="45.22256" lon="6.01746">
        <ele>1686.29</ele>
        <time>2022-03-28T11:12:23Z</time>
      </trkpt>
      <trkpt lat="45.22262" lon="6.0174">
        <ele>1686.29</ele>
        <time>2022-03-28T11:12:24Z</time>
      </trkpt>
      <trkpt lat="45.22272" lon="6.01727">
        <ele>1686.29</ele>
        <time>2022-03-28T11:12:26Z</time>
      </trkpt>
      <trkpt lat="45.22275" lon="6.01722">
        <ele>1686.29</ele>
        <time>2022-03-28T11:12:27Z</time>
      </trkpt>
      <trkpt lat="45.22276" lon="6.01717">
        <ele>1686.29</ele>
        <time>2022-03-28T11:12:28Z</time>
      </trkpt>
      <trkpt lat="45.22278" lon="6.01694">
        <ele>1685.81</ele>
        <time>2022-03-28T11:12:38Z</time>
      </trkpt>
      <trkpt lat="45.22276" lon="6.01681">
        <ele>1686.77</ele>
        <time>2022-03-28T11:12:49Z</time>
      </trkpt>
      <trkpt lat="45.22274" lon="6.01667">
        <ele>1686.77</ele>
        <time>2022-03-28T11:13:02Z</time>
      </trkpt>
      <trkpt lat="45.22272" lon="6.01652">
        <ele>1688.21</ele>
        <time>2022-03-28T11:13:17Z</time>
      </trkpt>
      <trkpt lat="45.22273" lon="6.01636">
        <ele>1688.69</ele>
        <time>2022-03-28T11:13:32Z</time>
      </trkpt>
      <trkpt lat="45.22271" lon="6.01625">
        <ele>1689.17</ele>
        <time>2022-03-28T11:13:46Z</time>
      </trkpt>
      <trkpt lat="45.22269" lon="6.01611">
        <ele>1689.65</ele>
        <time>2022-03-28T11:14:01Z</time>
      </trkpt>
      <trkpt lat="45.22268" lon="6.01606">
        <ele>1689.65</ele>
        <time>2022-03-28T11:14:06Z</time>
      </trkpt>
      <trkpt lat="45.22268" lon="6.01604">
        <ele>1689.65</ele>
        <time>2022-03-28T11:14:07Z</time>
      </trkpt>
      <trkpt lat="45.22268" lon="6.01602">
        <ele>1689.65</ele>
        <time>2022-03-28T11:14:08Z</time>
      </trkpt>
      <trkpt lat="45.22268" lon="6.01579">
        <ele>1689.65</ele>
        <time>2022-03-28T11:14:20Z</time>
      </trkpt>
      <trkpt lat="45.22268" lon="6.01577">
        <ele>1688.21</ele>
        <time>2022-03-28T11:14:21Z</time>
      </trkpt>
      <trkpt lat="45.22264" lon="6.01562">
        <ele>1688.21</ele>
        <time>2022-03-28T11:14:29Z</time>
      </trkpt>
      <trkpt lat="45.22262" lon="6.01553">
        <ele>1687.73</ele>
        <time>2022-03-28T11:14:35Z</time>
      </trkpt>
      <trkpt lat="45.22259" lon="6.01541">
        <ele>1687.73</ele>
        <time>2022-03-28T11:14:44Z</time>
      </trkpt>
      <trkpt lat="45.22253" lon="6.01527">
        <ele>1688.69</ele>
        <time>2022-03-28T11:14:57Z</time>
      </trkpt>
      <trkpt lat="45.22249" lon="6.01514">
        <ele>1688.69</ele>
        <time>2022-03-28T11:15:10Z</time>
      </trkpt>
      <trkpt lat="45.22249" lon="6.01512">
        <ele>1688.69</ele>
        <time>2022-03-28T11:15:11Z</time>
      </trkpt>
      <trkpt lat="45.22245" lon="6.01496">
        <ele>1687.25</ele>
        <time>2022-03-28T11:15:25Z</time>
      </trkpt>
      <trkpt lat="45.2224" lon="6.01461">
        <ele>1685.33</ele>
        <time>2022-03-28T11:15:38Z</time>
      </trkpt>
      <trkpt lat="45.22232" lon="6.01439">
        <ele>1683.89</ele>
        <time>2022-03-28T11:15:43Z</time>
      </trkpt>
      <trkpt lat="45.22228" lon="6.01427">
        <ele>1686.29</ele>
        <time>2022-03-28T11:15:47Z</time>
      </trkpt>
      <trkpt lat="45.22229" lon="6.01424">
        <ele>1683.41</ele>
        <time>2022-03-28T11:15:48Z</time>
      </trkpt>
      <trkpt lat="45.22228" lon="6.0142">
        <ele>1683.41</ele>
        <time>2022-03-28T11:15:49Z</time>
      </trkpt>
      <trkpt lat="45.22229" lon="6.01417">
        <ele>1683.41</ele>
        <time>2022-03-28T11:15:50Z</time>
      </trkpt>
      <trkpt lat="45.2223" lon="6.01415">
        <ele>1682.44</ele>
        <time>2022-03-28T11:15:51Z</time>
      </trkpt>
      <trkpt lat="45.22231" lon="6.01412">
        <ele>1682.44</ele>
        <time>2022-03-28T11:15:52Z</time>
      </trkpt>
      <trkpt lat="45.22231" lon="6.01409">
        <ele>1680.52</ele>
        <time>2022-03-28T11:15:53Z</time>
      </trkpt>
      <trkpt lat="45.22232" lon="6.01408">
        <ele>1681</ele>
        <time>2022-03-28T11:15:54Z</time>
      </trkpt>
      <trkpt lat="45.22233" lon="6.01406">
        <ele>1679.08</ele>
        <time>2022-03-28T11:15:56Z</time>
      </trkpt>
      <trkpt lat="45.22234" lon="6.01403">
        <ele>1679.08</ele>
        <time>2022-03-28T11:15:57Z</time>
      </trkpt>
      <trkpt lat="45.22235" lon="6.014">
        <ele>1677.64</ele>
        <time>2022-03-28T11:15:58Z</time>
      </trkpt>
      <trkpt lat="45.22238" lon="6.01391">
        <ele>1676.68</ele>
        <time>2022-03-28T11:16:01Z</time>
      </trkpt>
      <trkpt lat="45.22246" lon="6.0138">
        <ele>1675.72</ele>
        <time>2022-03-28T11:16:05Z</time>
      </trkpt>
      <trkpt lat="45.2225" lon="6.01377">
        <ele>1675.72</ele>
        <time>2022-03-28T11:16:07Z</time>
      </trkpt>
      <trkpt lat="45.22251" lon="6.01377">
        <ele>1675.72</ele>
        <time>2022-03-28T11:16:08Z</time>
      </trkpt>
      <trkpt lat="45.22254" lon="6.01377">
        <ele>1674.27</ele>
        <time>2022-03-28T11:16:09Z</time>
      </trkpt>
      <trkpt lat="45.22257" lon="6.01375">
        <ele>1674.27</ele>
        <time>2022-03-28T11:16:10Z</time>
      </trkpt>
      <trkpt lat="45.22269" lon="6.01368">
        <ele>1670.43</ele>
        <time>2022-03-28T11:16:14Z</time>
      </trkpt>
      <trkpt lat="45.22272" lon="6.01367">
        <ele>1669.95</ele>
        <time>2022-03-28T11:16:15Z</time>
      </trkpt>
      <trkpt lat="45.22276" lon="6.01365">
        <ele>1669.95</ele>
        <time>2022-03-28T11:16:16Z</time>
      </trkpt>
      <trkpt lat="45.22284" lon="6.0136">
        <ele>1669.95</ele>
        <time>2022-03-28T11:16:19Z</time>
      </trkpt>
      <trkpt lat="45.22284" lon="6.01358">
        <ele>1669.95</ele>
        <time>2022-03-28T11:16:20Z</time>
      </trkpt>
      <trkpt lat="45.22284" lon="6.01356">
        <ele>1668.99</ele>
        <time>2022-03-28T11:16:21Z</time>
      </trkpt>
      <trkpt lat="45.22283" lon="6.01352">
        <ele>1668.51</ele>
        <time>2022-03-28T11:16:23Z</time>
      </trkpt>
      <trkpt lat="45.22285" lon="6.0134">
        <ele>1667.54</ele>
        <time>2022-03-28T11:16:31Z</time>
      </trkpt>
      <trkpt lat="45.22289" lon="6.01318">
        <ele>1662.74</ele>
        <time>2022-03-28T11:16:37Z</time>
      </trkpt>
      <trkpt lat="45.2229" lon="6.01312">
        <ele>1665.62</ele>
        <time>2022-03-28T11:16:38Z</time>
      </trkpt>
      <trkpt lat="45.22293" lon="6.01305">
        <ele>1662.26</ele>
        <time>2022-03-28T11:16:39Z</time>
      </trkpt>
      <trkpt lat="45.22296" lon="6.01301">
        <ele>1662.26</ele>
        <time>2022-03-28T11:16:40Z</time>
      </trkpt>
      <trkpt lat="45.22298" lon="6.01298">
        <ele>1661.78</ele>
        <time>2022-03-28T11:16:47Z</time>
      </trkpt>
      <trkpt lat="45.22295" lon="6.013">
        <ele>1663.7</ele>
        <time>2022-03-28T11:16:50Z</time>
      </trkpt>
      <trkpt lat="45.22291" lon="6.01301">
        <ele>1659.37</ele>
        <time>2022-03-28T11:16:52Z</time>
      </trkpt>
      <trkpt lat="45.22287" lon="6.013">
        <ele>1658.89</ele>
        <time>2022-03-28T11:16:54Z</time>
      </trkpt>
      <trkpt lat="45.22281" lon="6.01299">
        <ele>1658.89</ele>
        <time>2022-03-28T11:16:56Z</time>
      </trkpt>
      <trkpt lat="45.22274" lon="6.01298">
        <ele>1657.45</ele>
        <time>2022-03-28T11:16:59Z</time>
      </trkpt>
      <trkpt lat="45.22268" lon="6.01299">
        <ele>1656.49</ele>
        <time>2022-03-28T11:17:01Z</time>
      </trkpt>
      <trkpt lat="45.22251" lon="6.013">
        <ele>1655.53</ele>
        <time>2022-03-28T11:17:05Z</time>
      </trkpt>
      <trkpt lat="45.22246" lon="6.01294">
        <ele>1651.68</ele>
        <time>2022-03-28T11:17:09Z</time>
      </trkpt>
      <trkpt lat="45.22245" lon="6.01291">
        <ele>1650.72</ele>
        <time>2022-03-28T11:17:10Z</time>
      </trkpt>
      <trkpt lat="45.22244" lon="6.01289">
        <ele>1650.24</ele>
        <time>2022-03-28T11:17:11Z</time>
      </trkpt>
      <trkpt lat="45.22243" lon="6.01288">
        <ele>1649.76</ele>
        <time>2022-03-28T11:17:12Z</time>
      </trkpt>
      <trkpt lat="45.22239" lon="6.01284">
        <ele>1647.84</ele>
        <time>2022-03-28T11:17:15Z</time>
      </trkpt>
      <trkpt lat="45.22239" lon="6.0128">
        <ele>1647.84</ele>
        <time>2022-03-28T11:17:16Z</time>
      </trkpt>
      <trkpt lat="45.22239" lon="6.01277">
        <ele>1647.84</ele>
        <time>2022-03-28T11:17:17Z</time>
      </trkpt>
      <trkpt lat="45.2224" lon="6.01274">
        <ele>1647.84</ele>
        <time>2022-03-28T11:17:18Z</time>
      </trkpt>
      <trkpt lat="45.22241" lon="6.01272">
        <ele>1646.88</ele>
        <time>2022-03-28T11:17:19Z</time>
      </trkpt>
      <trkpt lat="45.22242" lon="6.01271">
        <ele>1646.88</ele>
        <time>2022-03-28T11:17:20Z</time>
      </trkpt>
      <trkpt lat="45.22244" lon="6.0126">
        <ele>1642.55</ele>
        <time>2022-03-28T11:17:25Z</time>
      </trkpt>
      <trkpt lat="45.22246" lon="6.01253">
        <ele>1640.15</ele>
        <time>2022-03-28T11:17:28Z</time>
      </trkpt>
      <trkpt lat="45.22248" lon="6.01251">
        <ele>1640.15</ele>
        <time>2022-03-28T11:17:29Z</time>
      </trkpt>
      <trkpt lat="45.22248" lon="6.01248">
        <ele>1638.7</ele>
        <time>2022-03-28T11:17:30Z</time>
      </trkpt>
      <trkpt lat="45.22248" lon="6.01244">
        <ele>1638.7</ele>
        <time>2022-03-28T11:17:31Z</time>
      </trkpt>
      <trkpt lat="45.22249" lon="6.01239">
        <ele>1637.26</ele>
        <time>2022-03-28T11:17:32Z</time>
      </trkpt>
      <trkpt lat="45.22251" lon="6.01235">
        <ele>1636.78</ele>
        <time>2022-03-28T11:17:33Z</time>
      </trkpt>
      <trkpt lat="45.22253" lon="6.01233">
        <ele>1636.3</ele>
        <time>2022-03-28T11:17:34Z</time>
      </trkpt>
      <trkpt lat="45.22254" lon="6.01231">
        <ele>1636.3</ele>
        <time>2022-03-28T11:17:35Z</time>
      </trkpt>
      <trkpt lat="45.22255" lon="6.01229">
        <ele>1635.34</ele>
        <time>2022-03-28T11:17:36Z</time>
      </trkpt>
      <trkpt lat="45.22255" lon="6.01226">
        <ele>1634.86</ele>
        <time>2022-03-28T11:17:37Z</time>
      </trkpt>
      <trkpt lat="45.2225" lon="6.01221">
        <ele>1635.34</ele>
        <time>2022-03-28T11:17:40Z</time>
      </trkpt>
      <trkpt lat="45.22247" lon="6.01216">
        <ele>1635.34</ele>
        <time>2022-03-28T11:17:42Z</time>
      </trkpt>
      <trkpt lat="45.22247" lon="6.01211">
        <ele>1631.49</ele>
        <time>2022-03-28T11:17:45Z</time>
      </trkpt>
      <trkpt lat="45.22248" lon="6.01208">
        <ele>1629.57</ele>
        <time>2022-03-28T11:17:47Z</time>
      </trkpt>
      <trkpt lat="45.22247" lon="6.01205">
        <ele>1629.57</ele>
        <time>2022-03-28T11:17:48Z</time>
      </trkpt>
      <trkpt lat="45.22248" lon="6.012">
        <ele>1628.13</ele>
        <time>2022-03-28T11:17:51Z</time>
      </trkpt>
      <trkpt lat="45.22252" lon="6.01195">
        <ele>1626.69</ele>
        <time>2022-03-28T11:17:52Z</time>
      </trkpt>
      <trkpt lat="45.22255" lon="6.0119">
        <ele>1626.21</ele>
        <time>2022-03-28T11:17:53Z</time>
      </trkpt>
      <trkpt lat="45.22267" lon="6.01161">
        <ele>1625.25</ele>
        <time>2022-03-28T11:17:58Z</time>
      </trkpt>
      <trkpt lat="45.22262" lon="6.01157">
        <ele>1624.28</ele>
        <time>2022-03-28T11:18:08Z</time>
      </trkpt>
      <trkpt lat="45.22257" lon="6.01155">
        <ele>1623.8</ele>
        <time>2022-03-28T11:18:11Z</time>
      </trkpt>
      <trkpt lat="45.22251" lon="6.01159">
        <ele>1622.84</ele>
        <time>2022-03-28T11:18:13Z</time>
      </trkpt>
      <trkpt lat="45.22249" lon="6.01159">
        <ele>1624.28</ele>
        <time>2022-03-28T11:18:14Z</time>
      </trkpt>
      <trkpt lat="45.22247" lon="6.01157">
        <ele>1622.84</ele>
        <time>2022-03-28T11:18:15Z</time>
      </trkpt>
      <trkpt lat="45.22248" lon="6.01154">
        <ele>1621.88</ele>
        <time>2022-03-28T11:18:16Z</time>
      </trkpt>
      <trkpt lat="45.22247" lon="6.01151">
        <ele>1619.96</ele>
        <time>2022-03-28T11:18:17Z</time>
      </trkpt>
      <trkpt lat="45.22245" lon="6.01148">
        <ele>1619.96</ele>
        <time>2022-03-28T11:18:18Z</time>
      </trkpt>
      <trkpt lat="45.22244" lon="6.01145">
        <ele>1622.36</ele>
        <time>2022-03-28T11:18:19Z</time>
      </trkpt>
      <trkpt lat="45.22243" lon="6.01141">
        <ele>1619.48</ele>
        <time>2022-03-28T11:18:20Z</time>
      </trkpt>
      <trkpt lat="45.22241" lon="6.01112">
        <ele>1616.11</ele>
        <time>2022-03-28T11:18:26Z</time>
      </trkpt>
      <trkpt lat="45.22244" lon="6.01097">
        <ele>1614.67</ele>
        <time>2022-03-28T11:18:29Z</time>
      </trkpt>
      <trkpt lat="45.22245" lon="6.01092">
        <ele>1613.71</ele>
        <time>2022-03-28T11:18:30Z</time>
      </trkpt>
      <trkpt lat="45.22246" lon="6.01088">
        <ele>1613.71</ele>
        <time>2022-03-28T11:18:31Z</time>
      </trkpt>
      <trkpt lat="45.22245" lon="6.01085">
        <ele>1613.71</ele>
        <time>2022-03-28T11:18:32Z</time>
      </trkpt>
      <trkpt lat="45.22244" lon="6.01082">
        <ele>1613.71</ele>
        <time>2022-03-28T11:18:33Z</time>
      </trkpt>
      <trkpt lat="45.22244" lon="6.01077">
        <ele>1612.75</ele>
        <time>2022-03-28T11:18:34Z</time>
      </trkpt>
      <trkpt lat="45.22244" lon="6.01074">
        <ele>1611.31</ele>
        <time>2022-03-28T11:18:35Z</time>
      </trkpt>
      <trkpt lat="45.22245" lon="6.01071">
        <ele>1610.83</ele>
        <time>2022-03-28T11:18:36Z</time>
      </trkpt>
      <trkpt lat="45.22245" lon="6.01069">
        <ele>1609.38</ele>
        <time>2022-03-28T11:18:37Z</time>
      </trkpt>
      <trkpt lat="45.22244" lon="6.01065">
        <ele>1609.38</ele>
        <time>2022-03-28T11:18:38Z</time>
      </trkpt>
      <trkpt lat="45.22242" lon="6.01061">
        <ele>1608.42</ele>
        <time>2022-03-28T11:18:39Z</time>
      </trkpt>
      <trkpt lat="45.22243" lon="6.01057">
        <ele>1608.42</ele>
        <time>2022-03-28T11:18:40Z</time>
      </trkpt>
      <trkpt lat="45.22245" lon="6.01054">
        <ele>1607.94</ele>
        <time>2022-03-28T11:18:41Z</time>
      </trkpt>
      <trkpt lat="45.22246" lon="6.0105">
        <ele>1605.06</ele>
        <time>2022-03-28T11:18:42Z</time>
      </trkpt>
      <trkpt lat="45.22247" lon="6.01046">
        <ele>1605.06</ele>
        <time>2022-03-28T11:18:43Z</time>
      </trkpt>
      <trkpt lat="45.22248" lon="6.01041">
        <ele>1606.5</ele>
        <time>2022-03-28T11:18:44Z</time>
      </trkpt>
      <trkpt lat="45.22249" lon="6.01038">
        <ele>1604.1</ele>
        <time>2022-03-28T11:18:45Z</time>
      </trkpt>
      <trkpt lat="45.22248" lon="6.01016">
        <ele>1601.21</ele>
        <time>2022-03-28T11:18:50Z</time>
      </trkpt>
      <trkpt lat="45.22246" lon="6.01012">
        <ele>1601.21</ele>
        <time>2022-03-28T11:18:51Z</time>
      </trkpt>
      <trkpt lat="45.22244" lon="6.01009">
        <ele>1599.29</ele>
        <time>2022-03-28T11:18:52Z</time>
      </trkpt>
      <trkpt lat="45.22242" lon="6.01006">
        <ele>1601.21</ele>
        <time>2022-03-28T11:18:53Z</time>
      </trkpt>
      <trkpt lat="45.2224" lon="6.01003">
        <ele>1600.25</ele>
        <time>2022-03-28T11:18:54Z</time>
      </trkpt>
      <trkpt lat="45.22239" lon="6.01">
        <ele>1600.25</ele>
        <time>2022-03-28T11:18:55Z</time>
      </trkpt>
      <trkpt lat="45.22237" lon="6.00997">
        <ele>1599.29</ele>
        <time>2022-03-28T11:18:56Z</time>
      </trkpt>
      <trkpt lat="45.22236" lon="6.00995">
        <ele>1598.33</ele>
        <time>2022-03-28T11:18:57Z</time>
      </trkpt>
      <trkpt lat="45.22235" lon="6.00992">
        <ele>1598.33</ele>
        <time>2022-03-28T11:18:58Z</time>
      </trkpt>
      <trkpt lat="45.22233" lon="6.0099">
        <ele>1598.33</ele>
        <time>2022-03-28T11:18:59Z</time>
      </trkpt>
      <trkpt lat="45.22233" lon="6.00986">
        <ele>1596.41</ele>
        <time>2022-03-28T11:19:01Z</time>
      </trkpt>
      <trkpt lat="45.22233" lon="6.00974">
        <ele>1593.04</ele>
        <time>2022-03-28T11:19:06Z</time>
      </trkpt>
      <trkpt lat="45.22232" lon="6.00963">
        <ele>1591.6</ele>
        <time>2022-03-28T11:19:16Z</time>
      </trkpt>
      <trkpt lat="45.22232" lon="6.00952">
        <ele>1589.2</ele>
        <time>2022-03-28T11:19:23Z</time>
      </trkpt>
      <trkpt lat="45.22232" lon="6.0095">
        <ele>1587.75</ele>
        <time>2022-03-28T11:19:24Z</time>
      </trkpt>
      <trkpt lat="45.22231" lon="6.00938">
        <ele>1585.83</ele>
        <time>2022-03-28T11:19:28Z</time>
      </trkpt>
      <trkpt lat="45.2223" lon="6.00928">
        <ele>1584.39</ele>
        <time>2022-03-28T11:19:35Z</time>
      </trkpt>
      <trkpt lat="45.22231" lon="6.0093">
        <ele>1582.95</ele>
        <time>2022-03-28T11:19:37Z</time>
      </trkpt>
      <trkpt lat="45.22234" lon="6.00931">
        <ele>1581.51</ele>
        <time>2022-03-28T11:19:38Z</time>
      </trkpt>
      <trkpt lat="45.22236" lon="6.0093">
        <ele>1581.51</ele>
        <time>2022-03-28T11:19:39Z</time>
      </trkpt>
      <trkpt lat="45.22241" lon="6.00928">
        <ele>1580.54</ele>
        <time>2022-03-28T11:19:42Z</time>
      </trkpt>
      <trkpt lat="45.22245" lon="6.00922">
        <ele>1580.06</ele>
        <time>2022-03-28T11:19:44Z</time>
      </trkpt>
      <trkpt lat="45.22247" lon="6.00919">
        <ele>1578.62</ele>
        <time>2022-03-28T11:19:45Z</time>
      </trkpt>
      <trkpt lat="45.22249" lon="6.00913">
        <ele>1578.14</ele>
        <time>2022-03-28T11:19:55Z</time>
      </trkpt>
      <trkpt lat="45.22249" lon="6.0091">
        <ele>1576.22</ele>
        <time>2022-03-28T11:19:56Z</time>
      </trkpt>
      <trkpt lat="45.22251" lon="6.00907">
        <ele>1578.62</ele>
        <time>2022-03-28T11:19:57Z</time>
      </trkpt>
      <trkpt lat="45.22253" lon="6.00903">
        <ele>1575.74</ele>
        <time>2022-03-28T11:19:58Z</time>
      </trkpt>
      <trkpt lat="45.22254" lon="6.00899">
        <ele>1573.33</ele>
        <time>2022-03-28T11:19:59Z</time>
      </trkpt>
      <trkpt lat="45.22252" lon="6.00896">
        <ele>1573.33</ele>
        <time>2022-03-28T11:20:00Z</time>
      </trkpt>
      <trkpt lat="45.22251" lon="6.00892">
        <ele>1573.82</ele>
        <time>2022-03-28T11:20:02Z</time>
      </trkpt>
      <trkpt lat="45.22251" lon="6.00887">
        <ele>1570.45</ele>
        <time>2022-03-28T11:20:03Z</time>
      </trkpt>
      <trkpt lat="45.2225" lon="6.00883">
        <ele>1570.45</ele>
        <time>2022-03-28T11:20:04Z</time>
      </trkpt>
      <trkpt lat="45.2225" lon="6.0088">
        <ele>1570.45</ele>
        <time>2022-03-28T11:20:05Z</time>
      </trkpt>
      <trkpt lat="45.2225" lon="6.00876">
        <ele>1568.53</ele>
        <time>2022-03-28T11:20:06Z</time>
      </trkpt>
      <trkpt lat="45.2225" lon="6.00872">
        <ele>1567.57</ele>
        <time>2022-03-28T11:20:07Z</time>
      </trkpt>
      <trkpt lat="45.22248" lon="6.0087">
        <ele>1567.57</ele>
        <time>2022-03-28T11:20:08Z</time>
      </trkpt>
      <trkpt lat="45.22244" lon="6.00868">
        <ele>1566.12</ele>
        <time>2022-03-28T11:20:12Z</time>
      </trkpt>
      <trkpt lat="45.22244" lon="6.00866">
        <ele>1568.05</ele>
        <time>2022-03-28T11:20:13Z</time>
      </trkpt>
      <trkpt lat="45.22243" lon="6.00863">
        <ele>1566.61</ele>
        <time>2022-03-28T11:20:14Z</time>
      </trkpt>
      <trkpt lat="45.22241" lon="6.0086">
        <ele>1565.16</ele>
        <time>2022-03-28T11:20:15Z</time>
      </trkpt>
      <trkpt lat="45.22239" lon="6.00858">
        <ele>1565.16</ele>
        <time>2022-03-28T11:20:16Z</time>
      </trkpt>
      <trkpt lat="45.22237" lon="6.00856">
        <ele>1564.2</ele>
        <time>2022-03-28T11:20:17Z</time>
      </trkpt>
      <trkpt lat="45.22235" lon="6.00853">
        <ele>1564.2</ele>
        <time>2022-03-28T11:20:20Z</time>
      </trkpt>
      <trkpt lat="45.22235" lon="6.00851">
        <ele>1563.72</ele>
        <time>2022-03-28T11:20:21Z</time>
      </trkpt>
      <trkpt lat="45.22234" lon="6.00848">
        <ele>1562.28</ele>
        <time>2022-03-28T11:20:23Z</time>
      </trkpt>
      <trkpt lat="45.22233" lon="6.00848">
        <ele>1564.2</ele>
        <time>2022-03-28T11:20:27Z</time>
      </trkpt>
      <trkpt lat="45.22232" lon="6.00848">
        <ele>1562.76</ele>
        <time>2022-03-28T11:20:28Z</time>
      </trkpt>
      <trkpt lat="45.22231" lon="6.00846">
        <ele>1561.8</ele>
        <time>2022-03-28T11:20:29Z</time>
      </trkpt>
      <trkpt lat="45.2223" lon="6.00841">
        <ele>1562.28</ele>
        <time>2022-03-28T11:20:30Z</time>
      </trkpt>
      <trkpt lat="45.22229" lon="6.00837">
        <ele>1560.84</ele>
        <time>2022-03-28T11:20:31Z</time>
      </trkpt>
      <trkpt lat="45.22228" lon="6.00833">
        <ele>1559.4</ele>
        <time>2022-03-28T11:20:32Z</time>
      </trkpt>
      <trkpt lat="45.22226" lon="6.00831">
        <ele>1559.4</ele>
        <time>2022-03-28T11:20:33Z</time>
      </trkpt>
      <trkpt lat="45.22224" lon="6.00825">
        <ele>1558.43</ele>
        <time>2022-03-28T11:20:36Z</time>
      </trkpt>
      <trkpt lat="45.22225" lon="6.00824">
        <ele>1556.51</ele>
        <time>2022-03-28T11:20:45Z</time>
      </trkpt>
      <trkpt lat="45.2222" lon="6.0082">
        <ele>1556.99</ele>
        <time>2022-03-28T11:20:53Z</time>
      </trkpt>
      <trkpt lat="45.22219" lon="6.00816">
        <ele>1555.07</ele>
        <time>2022-03-28T11:20:54Z</time>
      </trkpt>
      <trkpt lat="45.22217" lon="6.00813">
        <ele>1553.15</ele>
        <time>2022-03-28T11:20:55Z</time>
      </trkpt>
      <trkpt lat="45.22215" lon="6.0081">
        <ele>1553.15</ele>
        <time>2022-03-28T11:20:56Z</time>
      </trkpt>
      <trkpt lat="45.22212" lon="6.00807">
        <ele>1554.59</ele>
        <time>2022-03-28T11:20:57Z</time>
      </trkpt>
      <trkpt lat="45.22211" lon="6.00804">
        <ele>1553.15</ele>
        <time>2022-03-28T11:20:58Z</time>
      </trkpt>
      <trkpt lat="45.2221" lon="6.00801">
        <ele>1551.71</ele>
        <time>2022-03-28T11:20:59Z</time>
      </trkpt>
      <trkpt lat="45.22208" lon="6.00798">
        <ele>1550.74</ele>
        <time>2022-03-28T11:21:00Z</time>
      </trkpt>
      <trkpt lat="45.22207" lon="6.00794">
        <ele>1550.74</ele>
        <time>2022-03-28T11:21:01Z</time>
      </trkpt>
      <trkpt lat="45.22205" lon="6.00791">
        <ele>1548.82</ele>
        <time>2022-03-28T11:21:02Z</time>
      </trkpt>
      <trkpt lat="45.22199" lon="6.00767">
        <ele>1545.46</ele>
        <time>2022-03-28T11:21:09Z</time>
      </trkpt>
      <trkpt lat="45.22198" lon="6.00765">
        <ele>1545.46</ele>
        <time>2022-03-28T11:21:10Z</time>
      </trkpt>
      <trkpt lat="45.22198" lon="6.00764">
        <ele>1544.98</ele>
        <time>2022-03-28T11:21:16Z</time>
      </trkpt>
      <trkpt lat="45.22198" lon="6.00762">
        <ele>1545.94</ele>
        <time>2022-03-28T11:21:17Z</time>
      </trkpt>
      <trkpt lat="45.22197" lon="6.0075">
        <ele>1543.05</ele>
        <time>2022-03-28T11:21:23Z</time>
      </trkpt>
      <trkpt lat="45.22196" lon="6.00743">
        <ele>1541.61</ele>
        <time>2022-03-28T11:21:33Z</time>
      </trkpt>
      <trkpt lat="45.22196" lon="6.00741">
        <ele>1543.05</ele>
        <time>2022-03-28T11:21:34Z</time>
      </trkpt>
      <trkpt lat="45.22197" lon="6.00739">
        <ele>1541.61</ele>
        <time>2022-03-28T11:21:35Z</time>
      </trkpt>
      <trkpt lat="45.22199" lon="6.00738">
        <ele>1541.61</ele>
        <time>2022-03-28T11:21:36Z</time>
      </trkpt>
      <trkpt lat="45.22201" lon="6.00735">
        <ele>1541.61</ele>
        <time>2022-03-28T11:21:37Z</time>
      </trkpt>
      <trkpt lat="45.22201" lon="6.0073">
        <ele>1539.21</ele>
        <time>2022-03-28T11:21:38Z</time>
      </trkpt>
      <trkpt lat="45.22201" lon="6.00726">
        <ele>1539.21</ele>
        <time>2022-03-28T11:21:39Z</time>
      </trkpt>
      <trkpt lat="45.22195" lon="6.00723">
        <ele>1537.77</ele>
        <time>2022-03-28T11:21:46Z</time>
      </trkpt>
      <trkpt lat="45.22192" lon="6.00731">
        <ele>1538.73</ele>
        <time>2022-03-28T11:22:00Z</time>
      </trkpt>
      <trkpt lat="45.22198" lon="6.0074">
        <ele>1536.32</ele>
        <time>2022-03-28T11:22:04Z</time>
      </trkpt>
      <trkpt lat="45.22206" lon="6.00734">
        <ele>1533.92</ele>
        <time>2022-03-28T11:22:07Z</time>
      </trkpt>
      <trkpt lat="45.22206" lon="6.00731">
        <ele>1533.92</ele>
        <time>2022-03-28T11:22:08Z</time>
      </trkpt>
      <trkpt lat="45.22205" lon="6.00725">
        <ele>1533.44</ele>
        <time>2022-03-28T11:22:11Z</time>
      </trkpt>
      <trkpt lat="45.22205" lon="6.00721">
        <ele>1532</ele>
        <time>2022-03-28T11:22:12Z</time>
      </trkpt>
      <trkpt lat="45.22208" lon="6.00719">
        <ele>1532.48</ele>
        <time>2022-03-28T11:22:16Z</time>
      </trkpt>
      <trkpt lat="45.22209" lon="6.00717">
        <ele>1532</ele>
        <time>2022-03-28T11:22:17Z</time>
      </trkpt>
      <trkpt lat="45.22216" lon="6.00714">
        <ele>1529.59</ele>
        <time>2022-03-28T11:22:20Z</time>
      </trkpt>
      <trkpt lat="45.22212" lon="6.00701">
        <ele>1526.71</ele>
        <time>2022-03-28T11:22:23Z</time>
      </trkpt>
      <trkpt lat="45.22212" lon="6.00698">
        <ele>1526.23</ele>
        <time>2022-03-28T11:22:25Z</time>
      </trkpt>
      <trkpt lat="45.22218" lon="6.00675">
        <ele>1523.83</ele>
        <time>2022-03-28T11:22:31Z</time>
      </trkpt>
      <trkpt lat="45.22212" lon="6.00662">
        <ele>1522.39</ele>
        <time>2022-03-28T11:22:35Z</time>
      </trkpt>
      <trkpt lat="45.22212" lon="6.00658">
        <ele>1520.94</ele>
        <time>2022-03-28T11:22:36Z</time>
      </trkpt>
      <trkpt lat="45.22213" lon="6.00654">
        <ele>1520.94</ele>
        <time>2022-03-28T11:22:37Z</time>
      </trkpt>
      <trkpt lat="45.22213" lon="6.00649">
        <ele>1522.87</ele>
        <time>2022-03-28T11:22:38Z</time>
      </trkpt>
      <trkpt lat="45.22213" lon="6.00644">
        <ele>1519.98</ele>
        <time>2022-03-28T11:22:39Z</time>
      </trkpt>
      <trkpt lat="45.22213" lon="6.00639">
        <ele>1520.46</ele>
        <time>2022-03-28T11:22:40Z</time>
      </trkpt>
      <trkpt lat="45.22219" lon="6.00629">
        <ele>1519.5</ele>
        <time>2022-03-28T11:22:42Z</time>
      </trkpt>
      <trkpt lat="45.22227" lon="6.00616">
        <ele>1518.06</ele>
        <time>2022-03-28T11:22:45Z</time>
      </trkpt>
      <trkpt lat="45.22227" lon="6.00611">
        <ele>1516.62</ele>
        <time>2022-03-28T11:22:46Z</time>
      </trkpt>
      <trkpt lat="45.22224" lon="6.00608">
        <ele>1516.62</ele>
        <time>2022-03-28T11:22:47Z</time>
      </trkpt>
      <trkpt lat="45.2222" lon="6.00605">
        <ele>1515.66</ele>
        <time>2022-03-28T11:22:48Z</time>
      </trkpt>
      <trkpt lat="45.22217" lon="6.00602">
        <ele>1517.1</ele>
        <time>2022-03-28T11:22:49Z</time>
      </trkpt>
      <trkpt lat="45.22216" lon="6.00597">
        <ele>1515.66</ele>
        <time>2022-03-28T11:22:50Z</time>
      </trkpt>
      <trkpt lat="45.22216" lon="6.00592">
        <ele>1513.25</ele>
        <time>2022-03-28T11:22:51Z</time>
      </trkpt>
      <trkpt lat="45.22215" lon="6.00586">
        <ele>1511.81</ele>
        <time>2022-03-28T11:22:52Z</time>
      </trkpt>
      <trkpt lat="45.22214" lon="6.00581">
        <ele>1514.21</ele>
        <time>2022-03-28T11:22:53Z</time>
      </trkpt>
      <trkpt lat="45.22214" lon="6.00577">
        <ele>1511.81</ele>
        <time>2022-03-28T11:22:54Z</time>
      </trkpt>
      <trkpt lat="45.22216" lon="6.00573">
        <ele>1509.41</ele>
        <time>2022-03-28T11:22:55Z</time>
      </trkpt>
      <trkpt lat="45.22218" lon="6.00569">
        <ele>1509.41</ele>
        <time>2022-03-28T11:22:56Z</time>
      </trkpt>
      <trkpt lat="45.22218" lon="6.00563">
        <ele>1507.48</ele>
        <time>2022-03-28T11:22:57Z</time>
      </trkpt>
      <trkpt lat="45.22216" lon="6.00558">
        <ele>1507.48</ele>
        <time>2022-03-28T11:22:58Z</time>
      </trkpt>
      <trkpt lat="45.22214" lon="6.00554">
        <ele>1505.56</ele>
        <time>2022-03-28T11:22:59Z</time>
      </trkpt>
      <trkpt lat="45.22212" lon="6.00549">
        <ele>1507</ele>
        <time>2022-03-28T11:23:00Z</time>
      </trkpt>
      <trkpt lat="45.22209" lon="6.00542">
        <ele>1507.97</ele>
        <time>2022-03-28T11:23:02Z</time>
      </trkpt>
      <trkpt lat="45.22211" lon="6.00538">
        <ele>1506.04</ele>
        <time>2022-03-28T11:23:03Z</time>
      </trkpt>
      <trkpt lat="45.22217" lon="6.0053">
        <ele>1501.72</ele>
        <time>2022-03-28T11:23:05Z</time>
      </trkpt>
      <trkpt lat="45.22219" lon="6.00524">
        <ele>1499.31</ele>
        <time>2022-03-28T11:23:06Z</time>
      </trkpt>
      <trkpt lat="45.2222" lon="6.0052">
        <ele>1498.35</ele>
        <time>2022-03-28T11:23:07Z</time>
      </trkpt>
      <trkpt lat="45.22219" lon="6.00516">
        <ele>1500.76</ele>
        <time>2022-03-28T11:23:08Z</time>
      </trkpt>
      <trkpt lat="45.2222" lon="6.00514">
        <ele>1497.39</ele>
        <time>2022-03-28T11:23:09Z</time>
      </trkpt>
      <trkpt lat="45.22222" lon="6.00514">
        <ele>1496.43</ele>
        <time>2022-03-28T11:23:10Z</time>
      </trkpt>
      <trkpt lat="45.22225" lon="6.00515">
        <ele>1495.47</ele>
        <time>2022-03-28T11:23:11Z</time>
      </trkpt>
      <trkpt lat="45.22227" lon="6.00515">
        <ele>1494.03</ele>
        <time>2022-03-28T11:23:12Z</time>
      </trkpt>
      <trkpt lat="45.22227" lon="6.00513">
        <ele>1493.55</ele>
        <time>2022-03-28T11:23:13Z</time>
      </trkpt>
      <trkpt lat="45.22227" lon="6.00508">
        <ele>1494.03</ele>
        <time>2022-03-28T11:23:14Z</time>
      </trkpt>
      <trkpt lat="45.22225" lon="6.00502">
        <ele>1492.58</ele>
        <time>2022-03-28T11:23:15Z</time>
      </trkpt>
      <trkpt lat="45.22223" lon="6.00498">
        <ele>1492.58</ele>
        <time>2022-03-28T11:23:16Z</time>
      </trkpt>
      <trkpt lat="45.22223" lon="6.00494">
        <ele>1494.51</ele>
        <time>2022-03-28T11:23:17Z</time>
      </trkpt>
      <trkpt lat="45.22225" lon="6.00493">
        <ele>1491.62</ele>
        <time>2022-03-28T11:23:18Z</time>
      </trkpt>
      <trkpt lat="45.22227" lon="6.00494">
        <ele>1490.66</ele>
        <time>2022-03-28T11:23:19Z</time>
      </trkpt>
      <trkpt lat="45.22228" lon="6.00494">
        <ele>1490.66</ele>
        <time>2022-03-28T11:23:20Z</time>
      </trkpt>
      <trkpt lat="45.22227" lon="6.00494">
        <ele>1491.14</ele>
        <time>2022-03-28T11:23:35Z</time>
      </trkpt>
      <trkpt lat="45.22224" lon="6.00496">
        <ele>1489.7</ele>
        <time>2022-03-28T11:24:05Z</time>
      </trkpt>
      <trkpt lat="45.22226" lon="6.0049">
        <ele>1486.82</ele>
        <time>2022-03-28T11:24:07Z</time>
      </trkpt>
      <trkpt lat="45.22225" lon="6.00486">
        <ele>1489.22</ele>
        <time>2022-03-28T11:24:08Z</time>
      </trkpt>
      <trkpt lat="45.22225" lon="6.00484">
        <ele>1489.22</ele>
        <time>2022-03-28T11:24:09Z</time>
      </trkpt>
      <trkpt lat="45.22226" lon="6.00484">
        <ele>1489.22</ele>
        <time>2022-03-28T11:24:10Z</time>
      </trkpt>
      <trkpt lat="45.22229" lon="6.00484">
        <ele>1486.82</ele>
        <time>2022-03-28T11:24:11Z</time>
      </trkpt>
      <trkpt lat="45.22231" lon="6.00485">
        <ele>1486.82</ele>
        <time>2022-03-28T11:24:12Z</time>
      </trkpt>
      <trkpt lat="45.22232" lon="6.00485">
        <ele>1485.37</ele>
        <time>2022-03-28T11:24:14Z</time>
      </trkpt>
      <trkpt lat="45.22232" lon="6.00483">
        <ele>1487.3</ele>
        <time>2022-03-28T11:24:15Z</time>
      </trkpt>
      <trkpt lat="45.22233" lon="6.00482">
        <ele>1483.93</ele>
        <time>2022-03-28T11:24:17Z</time>
      </trkpt>
      <trkpt lat="45.22234" lon="6.00483">
        <ele>1485.85</ele>
        <time>2022-03-28T11:24:18Z</time>
      </trkpt>
      <trkpt lat="45.22236" lon="6.00482">
        <ele>1483.45</ele>
        <time>2022-03-28T11:24:19Z</time>
      </trkpt>
      <trkpt lat="45.22238" lon="6.00479">
        <ele>1481.53</ele>
        <time>2022-03-28T11:24:20Z</time>
      </trkpt>
      <trkpt lat="45.22239" lon="6.00476">
        <ele>1481.53</ele>
        <time>2022-03-28T11:24:21Z</time>
      </trkpt>
      <trkpt lat="45.2224" lon="6.00473">
        <ele>1480.09</ele>
        <time>2022-03-28T11:24:22Z</time>
      </trkpt>
      <trkpt lat="45.2224" lon="6.00471">
        <ele>1480.57</ele>
        <time>2022-03-28T11:24:23Z</time>
      </trkpt>
      <trkpt lat="45.22242" lon="6.00465">
        <ele>1477.2</ele>
        <time>2022-03-28T11:24:25Z</time>
      </trkpt>
      <trkpt lat="45.22242" lon="6.00461">
        <ele>1477.2</ele>
        <time>2022-03-28T11:24:26Z</time>
      </trkpt>
      <trkpt lat="45.22241" lon="6.00453">
        <ele>1478.16</ele>
        <time>2022-03-28T11:24:28Z</time>
      </trkpt>
      <trkpt lat="45.22243" lon="6.00451">
        <ele>1475.28</ele>
        <time>2022-03-28T11:24:29Z</time>
      </trkpt>
      <trkpt lat="45.22245" lon="6.0045">
        <ele>1473.84</ele>
        <time>2022-03-28T11:24:30Z</time>
      </trkpt>
      <trkpt lat="45.22247" lon="6.00449">
        <ele>1472.4</ele>
        <time>2022-03-28T11:24:31Z</time>
      </trkpt>
      <trkpt lat="45.22248" lon="6.00441">
        <ele>1471.44</ele>
        <time>2022-03-28T11:24:33Z</time>
      </trkpt>
      <trkpt lat="45.22248" lon="6.00436">
        <ele>1469.51</ele>
        <time>2022-03-28T11:24:34Z</time>
      </trkpt>
      <trkpt lat="45.22248" lon="6.00433">
        <ele>1472.88</ele>
        <time>2022-03-28T11:24:35Z</time>
      </trkpt>
      <trkpt lat="45.22249" lon="6.00433">
        <ele>1469.51</ele>
        <time>2022-03-28T11:24:36Z</time>
      </trkpt>
      <trkpt lat="45.22252" lon="6.00432">
        <ele>1467.59</ele>
        <time>2022-03-28T11:24:37Z</time>
      </trkpt>
      <trkpt lat="45.22256" lon="6.00432">
        <ele>1469.51</ele>
        <time>2022-03-28T11:24:38Z</time>
      </trkpt>
      <trkpt lat="45.22259" lon="6.00431">
        <ele>1465.19</ele>
        <time>2022-03-28T11:24:39Z</time>
      </trkpt>
      <trkpt lat="45.22259" lon="6.00429">
        <ele>1466.63</ele>
        <time>2022-03-28T11:24:40Z</time>
      </trkpt>
      <trkpt lat="45.22259" lon="6.00426">
        <ele>1466.15</ele>
        <time>2022-03-28T11:24:41Z</time>
      </trkpt>
      <trkpt lat="45.22259" lon="6.00423">
        <ele>1464.71</ele>
        <time>2022-03-28T11:24:42Z</time>
      </trkpt>
      <trkpt lat="45.22258" lon="6.00419">
        <ele>1465.19</ele>
        <time>2022-03-28T11:24:43Z</time>
      </trkpt>
      <trkpt lat="45.22255" lon="6.00413">
        <ele>1462.3</ele>
        <time>2022-03-28T11:24:46Z</time>
      </trkpt>
      <trkpt lat="45.22253" lon="6.00407">
        <ele>1465.19</ele>
        <time>2022-03-28T11:24:49Z</time>
      </trkpt>
      <trkpt lat="45.22269" lon="6.00408">
        <ele>1458.94</ele>
        <time>2022-03-28T11:24:53Z</time>
      </trkpt>
      <trkpt lat="45.22272" lon="6.00408">
        <ele>1458.46</ele>
        <time>2022-03-28T11:24:54Z</time>
      </trkpt>
      <trkpt lat="45.22274" lon="6.00408">
        <ele>1457.98</ele>
        <time>2022-03-28T11:24:55Z</time>
      </trkpt>
      <trkpt lat="45.22276" lon="6.00407">
        <ele>1457.5</ele>
        <time>2022-03-28T11:24:56Z</time>
      </trkpt>
      <trkpt lat="45.22278" lon="6.00407">
        <ele>1456.53</ele>
        <time>2022-03-28T11:24:57Z</time>
      </trkpt>
      <trkpt lat="45.2228" lon="6.00407">
        <ele>1455.09</ele>
        <time>2022-03-28T11:24:58Z</time>
      </trkpt>
      <trkpt lat="45.22282" lon="6.00404">
        <ele>1454.61</ele>
        <time>2022-03-28T11:24:59Z</time>
      </trkpt>
      <trkpt lat="45.22284" lon="6.00398">
        <ele>1454.61</ele>
        <time>2022-03-28T11:25:00Z</time>
      </trkpt>
      <trkpt lat="45.22285" lon="6.00394">
        <ele>1453.65</ele>
        <time>2022-03-28T11:25:01Z</time>
      </trkpt>
      <trkpt lat="45.22287" lon="6.0039">
        <ele>1452.21</ele>
        <time>2022-03-28T11:25:02Z</time>
      </trkpt>
      <trkpt lat="45.22291" lon="6.00385">
        <ele>1451.25</ele>
        <time>2022-03-28T11:25:03Z</time>
      </trkpt>
      <trkpt lat="45.22298" lon="6.00372">
        <ele>1447.88</ele>
        <time>2022-03-28T11:25:06Z</time>
      </trkpt>
      <trkpt lat="45.22307" lon="6.00379">
        <ele>1446.92</ele>
        <time>2022-03-28T11:25:13Z</time>
      </trkpt>
      <trkpt lat="45.22311" lon="6.00384">
        <ele>1446.44</ele>
        <time>2022-03-28T11:25:27Z</time>
      </trkpt>
      <trkpt lat="45.22318" lon="6.00383">
        <ele>1446.44</ele>
        <time>2022-03-28T11:25:41Z</time>
      </trkpt>
      <trkpt lat="45.22324" lon="6.00375">
        <ele>1442.6</ele>
        <time>2022-03-28T11:25:45Z</time>
      </trkpt>
      <trkpt lat="45.22327" lon="6.00372">
        <ele>1445.48</ele>
        <time>2022-03-28T11:25:46Z</time>
      </trkpt>
      <trkpt lat="45.22331" lon="6.00362">
        <ele>1443.08</ele>
        <time>2022-03-28T11:25:49Z</time>
      </trkpt>
      <trkpt lat="45.22331" lon="6.0036">
        <ele>1441.63</ele>
        <time>2022-03-28T11:25:50Z</time>
      </trkpt>
      <trkpt lat="45.22332" lon="6.00355">
        <ele>1443.08</ele>
        <time>2022-03-28T11:25:53Z</time>
      </trkpt>
      <trkpt lat="45.22334" lon="6.00354">
        <ele>1443.08</ele>
        <time>2022-03-28T11:25:54Z</time>
      </trkpt>
      <trkpt lat="45.22334" lon="6.00351">
        <ele>1441.63</ele>
        <time>2022-03-28T11:25:56Z</time>
      </trkpt>
      <trkpt lat="45.22334" lon="6.0035">
        <ele>1441.63</ele>
        <time>2022-03-28T11:25:57Z</time>
      </trkpt>
      <trkpt lat="45.22335" lon="6.00348">
        <ele>1441.63</ele>
        <time>2022-03-28T11:25:59Z</time>
      </trkpt>
      <trkpt lat="45.22334" lon="6.00345">
        <ele>1440.67</ele>
        <time>2022-03-28T11:26:00Z</time>
      </trkpt>
      <trkpt lat="45.22332" lon="6.00342">
        <ele>1439.71</ele>
        <time>2022-03-28T11:26:01Z</time>
      </trkpt>
      <trkpt lat="45.22329" lon="6.00338">
        <ele>1439.71</ele>
        <time>2022-03-28T11:26:02Z</time>
      </trkpt>
      <trkpt lat="45.22326" lon="6.00334">
        <ele>1438.75</ele>
        <time>2022-03-28T11:26:03Z</time>
      </trkpt>
      <trkpt lat="45.22323" lon="6.00328">
        <ele>1438.75</ele>
        <time>2022-03-28T11:26:04Z</time>
      </trkpt>
      <trkpt lat="45.22321" lon="6.00323">
        <ele>1437.31</ele>
        <time>2022-03-28T11:26:05Z</time>
      </trkpt>
      <trkpt lat="45.22319" lon="6.00318">
        <ele>1437.79</ele>
        <time>2022-03-28T11:26:06Z</time>
      </trkpt>
      <trkpt lat="45.22316" lon="6.00313">
        <ele>1436.83</ele>
        <time>2022-03-28T11:26:07Z</time>
      </trkpt>
      <trkpt lat="45.22314" lon="6.00308">
        <ele>1436.83</ele>
        <time>2022-03-28T11:26:08Z</time>
      </trkpt>
      <trkpt lat="45.22312" lon="6.00303">
        <ele>1439.23</ele>
        <time>2022-03-28T11:26:09Z</time>
      </trkpt>
      <trkpt lat="45.22312" lon="6.00299">
        <ele>1435.39</ele>
        <time>2022-03-28T11:26:10Z</time>
      </trkpt>
      <trkpt lat="45.22314" lon="6.00295">
        <ele>1434.91</ele>
        <time>2022-03-28T11:26:11Z</time>
      </trkpt>
      <trkpt lat="45.22315" lon="6.00291">
        <ele>1433.94</ele>
        <time>2022-03-28T11:26:12Z</time>
      </trkpt>
      <trkpt lat="45.22314" lon="6.00286">
        <ele>1436.35</ele>
        <time>2022-03-28T11:26:13Z</time>
      </trkpt>
      <trkpt lat="45.22314" lon="6.00281">
        <ele>1432.98</ele>
        <time>2022-03-28T11:26:14Z</time>
      </trkpt>
      <trkpt lat="45.22314" lon="6.00272">
        <ele>1432.02</ele>
        <time>2022-03-28T11:26:16Z</time>
      </trkpt>
      <trkpt lat="45.22314" lon="6.00268">
        <ele>1432.02</ele>
        <time>2022-03-28T11:26:17Z</time>
      </trkpt>
      <trkpt lat="45.22315" lon="6.00262">
        <ele>1430.1</ele>
        <time>2022-03-28T11:26:18Z</time>
      </trkpt>
      <trkpt lat="45.22316" lon="6.00256">
        <ele>1429.62</ele>
        <time>2022-03-28T11:26:20Z</time>
      </trkpt>
      <trkpt lat="45.22314" lon="6.00254">
        <ele>1429.62</ele>
        <time>2022-03-28T11:26:21Z</time>
      </trkpt>
      <trkpt lat="45.22312" lon="6.00251">
        <ele>1427.21</ele>
        <time>2022-03-28T11:26:22Z</time>
      </trkpt>
      <trkpt lat="45.2231" lon="6.00247">
        <ele>1427.21</ele>
        <time>2022-03-28T11:26:23Z</time>
      </trkpt>
      <trkpt lat="45.22308" lon="6.00242">
        <ele>1426.25</ele>
        <time>2022-03-28T11:26:24Z</time>
      </trkpt>
      <trkpt lat="45.22305" lon="6.00238">
        <ele>1424.33</ele>
        <time>2022-03-28T11:26:25Z</time>
      </trkpt>
      <trkpt lat="45.22302" lon="6.0023">
        <ele>1422.41</ele>
        <time>2022-03-28T11:26:32Z</time>
      </trkpt>
      <trkpt lat="45.22302" lon="6.00216">
        <ele>1420.97</ele>
        <time>2022-03-28T11:26:38Z</time>
      </trkpt>
      <trkpt lat="45.22304" lon="6.00213">
        <ele>1417.6</ele>
        <time>2022-03-28T11:26:39Z</time>
      </trkpt>
      <trkpt lat="45.22307" lon="6.00209">
        <ele>1417.6</ele>
        <time>2022-03-28T11:26:40Z</time>
      </trkpt>
      <trkpt lat="45.2231" lon="6.00205">
        <ele>1417.6</ele>
        <time>2022-03-28T11:26:41Z</time>
      </trkpt>
      <trkpt lat="45.22315" lon="6.002">
        <ele>1416.16</ele>
        <time>2022-03-28T11:26:42Z</time>
      </trkpt>
      <trkpt lat="45.22318" lon="6.00198">
        <ele>1413.76</ele>
        <time>2022-03-28T11:26:43Z</time>
      </trkpt>
      <trkpt lat="45.22331" lon="6.00189">
        <ele>1415.2</ele>
        <time>2022-03-28T11:26:45Z</time>
      </trkpt>
      <trkpt lat="45.22334" lon="6.00183">
        <ele>1411.35</ele>
        <time>2022-03-28T11:26:46Z</time>
      </trkpt>
      <trkpt lat="45.22336" lon="6.0018">
        <ele>1414.72</ele>
        <time>2022-03-28T11:26:47Z</time>
      </trkpt>
      <trkpt lat="45.22338" lon="6.0018">
        <ele>1412.31</ele>
        <time>2022-03-28T11:26:48Z</time>
      </trkpt>
      <trkpt lat="45.2234" lon="6.00179">
        <ele>1411.83</ele>
        <time>2022-03-28T11:26:49Z</time>
      </trkpt>
      <trkpt lat="45.22341" lon="6.00179">
        <ele>1411.83</ele>
        <time>2022-03-28T11:26:50Z</time>
      </trkpt>
      <trkpt lat="45.22343" lon="6.00173">
        <ele>1411.35</ele>
        <time>2022-03-28T11:26:53Z</time>
      </trkpt>
      <trkpt lat="45.22344" lon="6.00168">
        <ele>1410.39</ele>
        <time>2022-03-28T11:26:54Z</time>
      </trkpt>
      <trkpt lat="45.22346" lon="6.00162">
        <ele>1409.43</ele>
        <time>2022-03-28T11:26:55Z</time>
      </trkpt>
      <trkpt lat="45.22349" lon="6.00158">
        <ele>1407.99</ele>
        <time>2022-03-28T11:26:56Z</time>
      </trkpt>
      <trkpt lat="45.22352" lon="6.00154">
        <ele>1407.99</ele>
        <time>2022-03-28T11:26:57Z</time>
      </trkpt>
      <trkpt lat="45.2237" lon="6.00144">
        <ele>1407.99</ele>
        <time>2022-03-28T11:27:07Z</time>
      </trkpt>
      <trkpt lat="45.22379" lon="6.00145">
        <ele>1407.03</ele>
        <time>2022-03-28T11:27:17Z</time>
      </trkpt>
      <trkpt lat="45.22381" lon="6.00145">
        <ele>1406.55</ele>
        <time>2022-03-28T11:27:18Z</time>
      </trkpt>
      <trkpt lat="45.2241" lon="6.00129">
        <ele>1403.18</ele>
        <time>2022-03-28T11:27:30Z</time>
      </trkpt>
      <trkpt lat="45.22412" lon="6.00127">
        <ele>1403.18</ele>
        <time>2022-03-28T11:27:31Z</time>
      </trkpt>
      <trkpt lat="45.22425" lon="6.00117">
        <ele>1401.74</ele>
        <time>2022-03-28T11:27:36Z</time>
      </trkpt>
      <trkpt lat="45.22443" lon="6.00095">
        <ele>1397.89</ele>
        <time>2022-03-28T11:27:43Z</time>
      </trkpt>
      <trkpt lat="45.22454" lon="6.00079">
        <ele>1395.97</ele>
        <time>2022-03-28T11:27:49Z</time>
      </trkpt>
      <trkpt lat="45.22458" lon="6.00073">
        <ele>1395.49</ele>
        <time>2022-03-28T11:28:05Z</time>
      </trkpt>
      <trkpt lat="45.22459" lon="6.00071">
        <ele>1395.49</ele>
        <time>2022-03-28T11:28:24Z</time>
      </trkpt>
      <trkpt lat="45.22452" lon="6.00066">
        <ele>1395.01</ele>
        <time>2022-03-28T11:28:34Z</time>
      </trkpt>
      <trkpt lat="45.22453" lon="6.00066">
        <ele>1395.49</ele>
        <time>2022-03-28T11:28:58Z</time>
      </trkpt>
      <trkpt lat="45.22451" lon="6.00077">
        <ele>1395.49</ele>
        <time>2022-03-28T11:29:33Z</time>
      </trkpt>
      <trkpt lat="45.22449" lon="6.00079">
        <ele>1395.01</ele>
        <time>2022-03-28T11:29:58Z</time>
      </trkpt>
      <trkpt lat="45.22449" lon="6.00079">
        <ele>1395.01</ele>
        <time>2022-03-28T11:30:13Z</time>
      </trkpt>
      <trkpt lat="45.22449" lon="6.00078">
        <ele>1395.01</ele>
        <time>2022-03-28T11:30:25Z</time>
      </trkpt>
      <trkpt lat="45.22445" lon="6.00072">
        <ele>1395.01</ele>
        <time>2022-03-28T11:30:48Z</time>
      </trkpt>
      <trkpt lat="45.22446" lon="6.00081">
        <ele>1395.01</ele>
        <time>2022-03-28T11:31:15Z</time>
      </trkpt>
      <trkpt lat="45.22448" lon="6.00082">
        <ele>1395.97</ele>
        <time>2022-03-28T11:31:28Z</time>
      </trkpt>
      <trkpt lat="45.22448" lon="6.00079">
        <ele>1395.01</ele>
        <time>2022-03-28T11:31:38Z</time>
      </trkpt>
      <trkpt lat="45.22444" lon="6.00071">
        <ele>1392.13</ele>
        <time>2022-03-28T11:31:53Z</time>
      </trkpt>
      <trkpt lat="45.22447" lon="6.00062">
        <ele>1388.76</ele>
        <time>2022-03-28T11:32:04Z</time>
      </trkpt>
      <trkpt lat="45.22437" lon="6.00055">
        <ele>1386.36</ele>
        <time>2022-03-28T11:32:20Z</time>
      </trkpt>
      <trkpt lat="45.22441" lon="6.00046">
        <ele>1382.51</ele>
        <time>2022-03-28T11:32:37Z</time>
      </trkpt>
      <trkpt lat="45.22439" lon="6.0004">
        <ele>1381.07</ele>
        <time>2022-03-28T11:32:49Z</time>
      </trkpt>
      <trkpt lat="45.22436" lon="6.00026">
        <ele>1377.71</ele>
        <time>2022-03-28T11:33:00Z</time>
      </trkpt>
      <trkpt lat="45.22436" lon="6.00021">
        <ele>1376.75</ele>
        <time>2022-03-28T11:33:05Z</time>
      </trkpt>
      <trkpt lat="45.22436" lon="6.00012">
        <ele>1373.38</ele>
        <time>2022-03-28T11:33:17Z</time>
      </trkpt>
      <trkpt lat="45.22439" lon="6.00006">
        <ele>1372.9</ele>
        <time>2022-03-28T11:33:23Z</time>
      </trkpt>
      <trkpt lat="45.22442" lon="5.99987">
        <ele>1369.54</ele>
        <time>2022-03-28T11:33:39Z</time>
      </trkpt>
      <trkpt lat="45.22452" lon="5.9997">
        <ele>1366.17</ele>
        <time>2022-03-28T11:33:54Z</time>
      </trkpt>
      <trkpt lat="45.22459" lon="5.99955">
        <ele>1364.25</ele>
        <time>2022-03-28T11:34:10Z</time>
      </trkpt>
      <trkpt lat="45.22454" lon="5.9994">
        <ele>1361.36</ele>
        <time>2022-03-28T11:34:19Z</time>
      </trkpt>
      <trkpt lat="45.22454" lon="5.99918">
        <ele>1360.4</ele>
        <time>2022-03-28T11:34:36Z</time>
      </trkpt>
      <trkpt lat="45.22454" lon="5.99917">
        <ele>1358.48</ele>
        <time>2022-03-28T11:34:38Z</time>
      </trkpt>
      <trkpt lat="45.22453" lon="5.99908">
        <ele>1354.63</ele>
        <time>2022-03-28T11:34:49Z</time>
      </trkpt>
      <trkpt lat="45.2245" lon="5.999">
        <ele>1354.63</ele>
        <time>2022-03-28T11:34:57Z</time>
      </trkpt>
      <trkpt lat="45.22449" lon="5.99893">
        <ele>1353.19</ele>
        <time>2022-03-28T11:35:04Z</time>
      </trkpt>
      <trkpt lat="45.22451" lon="5.99878">
        <ele>1351.75</ele>
        <time>2022-03-28T11:35:15Z</time>
      </trkpt>
      <trkpt lat="45.22449" lon="5.99873">
        <ele>1352.23</ele>
        <time>2022-03-28T11:35:19Z</time>
      </trkpt>
      <trkpt lat="45.22451" lon="5.99865">
        <ele>1350.31</ele>
        <time>2022-03-28T11:35:27Z</time>
      </trkpt>
      <trkpt lat="45.22455" lon="5.99861">
        <ele>1349.83</ele>
        <time>2022-03-28T11:35:31Z</time>
      </trkpt>
      <trkpt lat="45.22464" lon="5.99854">
        <ele>1348.87</ele>
        <time>2022-03-28T11:35:46Z</time>
      </trkpt>
      <trkpt lat="45.22471" lon="5.99843">
        <ele>1347.91</ele>
        <time>2022-03-28T11:36:03Z</time>
      </trkpt>
      <trkpt lat="45.22491" lon="5.99827">
        <ele>1346.94</ele>
        <time>2022-03-28T11:36:18Z</time>
      </trkpt>
      <trkpt lat="45.22499" lon="5.99804">
        <ele>1346.94</ele>
        <time>2022-03-28T11:36:34Z</time>
      </trkpt>
      <trkpt lat="45.22501" lon="5.998">
        <ele>1345.02</ele>
        <time>2022-03-28T11:36:37Z</time>
      </trkpt>
      <trkpt lat="45.22502" lon="5.99786">
        <ele>1345.02</ele>
        <time>2022-03-28T11:36:52Z</time>
      </trkpt>
      <trkpt lat="45.225" lon="5.9978">
        <ele>1345.02</ele>
        <time>2022-03-28T11:36:56Z</time>
      </trkpt>
      <trkpt lat="45.22501" lon="5.99759">
        <ele>1344.06</ele>
        <time>2022-03-28T11:37:10Z</time>
      </trkpt>
    </trkseg>
  </trk>
</gpx>